Detalle de ayer:

10/10/20
Time         Wind Dir  Wind Gust   Humidity       Temp   Tot Rain Wind Chill Heat Index  Dew Point   Barom SL Temp Out H Temp Out L  DailyRain   HourRain   24HrRain   RainRate   Wind Run   Deg Heat   Deg Cool  MonthRain
                          km/hr          %         C         mm         C         C         C         mb         C         C         mm         mm         mm      mm/hr         km         C         C         mm
0:00              292        0.0         64       18.5      281.4       18.5       19.8       11.6     1018.5       18.5       18.5        0.0        0.0        0.0       0.00       71.1       0.13       2.64        0.0
0:02              292        0.0         64       18.4      281.4       18.4       19.7       11.5     1018.5       18.5       18.4        0.0        0.0        0.0       0.00        0.3       0.00       0.00        0.0
0:04              292        0.0         65       18.4      281.4       18.4       19.7       11.7     1018.4       18.5       18.4        0.0        0.0        0.0       0.00        0.5       0.00       0.00        0.0
0:06              292        0.0         65       18.4      281.4       18.4       19.7       11.7     1018.4       18.5       18.4        0.0        0.0        0.0       0.00        0.7       0.00       0.00        0.0
0:08              292        0.0         65       18.3      281.4       18.3       19.6       11.6     1018.4       18.5       18.3        0.0        0.0        0.0       0.00        1.0       0.00       0.00        0.0
0:10              292        0.0         65       18.3      281.4       18.3       19.6       11.6     1018.3       18.5       18.3        0.0        0.0        0.0       0.00        1.1       0.00       0.00        0.0
0:12              292        0.0         65       18.3      281.4       18.3       19.6       11.6     1018.4       18.5       18.3        0.0        0.0        0.0       0.00        1.3       0.00       0.00        0.0
0:14              292        0.0         65       18.3      281.4       18.3       19.6       11.6     1018.4       18.5       18.3        0.0        0.0        0.0       0.00        1.6       0.00       0.00        0.0
0:16              292        0.0         65       18.3      281.4       18.3       19.6       11.6     1018.3       18.5       18.2        0.0        0.0        0.0       0.00        2.0       0.00       0.00        0.0
0:18              292        0.0         65       18.2      281.4       18.2       19.5       11.5     1018.4       18.5       18.2        0.0        0.0        0.0       0.00        2.3       0.00       0.00        0.0
0:20              292        0.0         65       18.2      281.4       18.2       19.5       11.5     1018.3       18.5       18.2        0.0        0.0        0.0       0.00        2.5       0.00       0.00        0.0
0:22              292        0.0         66       18.2      281.4       18.2       19.5       11.7     1018.2       18.5       18.2        0.0        0.0        0.0       0.00        2.9       0.00       0.00        0.0
0:24              292        0.0         66       18.2      281.4       18.2       19.5       11.7     1018.2       18.5       18.2        0.0        0.0        0.0       0.00        3.3       0.00       0.00        0.0
0:25              292        0.0         66       18.2      281.4       18.2       19.5       11.7     1018.2       18.5       18.2        0.0        0.0        0.0       0.00        3.7       0.00       0.00        0.0
0:28              292        0.0         66       18.2      281.4       18.2       19.5       11.7     1018.1       18.5       18.2        0.0        0.0        0.0       0.00        4.0       0.00       0.00        0.0
0:30              292        0.0         67       18.2      281.4       18.2       19.6       11.9     1018.1       18.5       18.2        0.0        0.0        0.0       0.00        4.3       0.00       0.00        0.0
0:32              292        0.0         67       18.2      281.4       18.2       19.6       11.9     1018.2       18.5       18.2        0.0        0.0        0.0       0.00        4.7       0.00       0.00        0.0
0:34              292        0.0         67       18.2      281.4       18.2       19.6       11.9     1018.2       18.5       18.2        0.0        0.0        0.0       0.00        4.9       0.00       0.00        0.0
0:36              292        0.0         67       18.2      281.4       18.2       19.6       11.9     1018.2       18.5       18.1        0.0        0.0        0.0       0.00        5.1       0.00       0.00        0.0
0:37              292        0.0         67       18.1      281.4       18.1       19.6       11.9     1018.2       18.5       18.1        0.0        0.0        0.0       0.00        5.3       0.00       0.00        0.0
0:40              292        0.0         67       18.1      281.4       18.1       19.6       11.9     1018.2       18.5       18.1        0.0        0.0        0.0       0.00        5.5       0.00       0.00        0.0
0:42              292        0.0         67       18.1      281.4       18.1       19.6       11.9     1018.2       18.5       18.1        0.0        0.0        0.0       0.00        5.7       0.00       0.00        0.0
0:44              292        0.0         67       18.1      281.4       18.1       19.5       11.8     1018.3       18.5       18.1        0.0        0.0        0.0       0.00        6.0       0.00       0.00        0.0
0:46              292        0.0         67       18.1      281.4       18.1       19.5       11.8     1018.3       18.5       18.1        0.0        0.0        0.0       0.00        6.1       0.00       0.00        0.0
0:47              292        0.0         67       18.1      281.4       18.1       19.6       11.9     1018.3       18.5       18.1        0.0        0.0        0.0       0.00        6.5       0.00       0.00        0.0
0:49              292        0.0         67       18.1      281.4       18.1       19.6       11.9     1018.3       18.5       18.1        0.0        0.0        0.0       0.00        6.8       0.00       0.00        0.0
0:52              292        0.0         67       18.1      281.4       18.1       19.6       11.9     1018.3       18.5       18.1        0.0        0.0        0.0       0.00        7.2       0.00       0.00        0.0
0:54              292        0.0         67       18.2      281.4       18.2       19.6       11.9     1018.3       18.5       18.1        0.0        0.0        0.0       0.00        7.4       0.00       0.00        0.0
0:56              292        0.0         67       18.2      281.4       18.2       19.7       12.0     1018.3       18.5       18.1        0.0        0.0        0.0       0.00        7.6       0.00       0.00        0.0
0:58              292        0.0         67       18.2      281.4       18.2       19.7       12.0     1018.4       18.5       18.1        0.0        0.0        0.0       0.00        7.7       0.00       0.00        0.0
1:00              292        0.0         67       18.2      281.4       18.2       19.7       12.0     1018.4       18.5       18.1        0.0        0.0        0.0       0.00        7.8       0.00       0.00        0.0
1:02              292        0.0         67       18.2      281.4       18.2       19.7       12.0     1018.5       18.5       18.1        0.0        0.0        0.0       0.00        7.9       0.00       0.00        0.0
1:04              292        0.0         66       18.2      281.4       18.2       19.6       11.8     1018.4       18.5       18.1        0.0        0.0        0.0       0.00        8.0       0.00       0.00        0.0
1:06              292        0.0         66       18.2      281.4       18.2       19.5       11.7     1018.4       18.5       18.1        0.0        0.0        0.0       0.00        8.2       0.00       0.00        0.0
1:08              292        0.0         66       18.2      281.4       18.2       19.5       11.7     1018.5       18.5       18.1        0.0        0.0        0.0       0.00        8.3       0.00       0.00        0.0
1:10              292        0.0         67       18.1      281.4       18.1       19.6       11.9     1018.5       18.5       18.1        0.0        0.0        0.0       0.00        8.4       0.00       0.00        0.0
1:12              292        0.0         67       18.1      281.4       18.1       19.5       11.8     1018.4       18.5       18.1        0.0        0.0        0.0       0.00        8.4       0.00       0.00        0.0
1:14              292        0.0         67       18.1      281.4       18.1       19.5       11.8     1018.4       18.5       18.1        0.0        0.0        0.0       0.00        8.6       0.00       0.00        0.0
1:16              292        0.0         68       18.0      281.4       18.0       19.5       12.0     1018.4       18.5       18.0        0.0        0.0        0.0       0.00        8.9       0.00       0.00        0.0
1:18              292        0.0         68       18.1      281.4       18.1       19.6       12.1     1018.4       18.5       18.0        0.0        0.0        0.0       0.00        9.0       0.00       0.00        0.0
1:20              292        0.0         68       18.1      281.4       18.1       19.6       12.1     1018.4       18.5       18.0        0.0        0.0        0.0       0.00        9.2       0.00       0.00        0.0
1:22              292        0.0         68       18.1      281.4       18.1       19.6       12.1     1018.4       18.5       18.0        0.0        0.0        0.0       0.00        9.3       0.00       0.00        0.0
1:24              292        0.0         68       18.1      281.4       18.1       19.6       12.1     1018.4       18.5       18.0        0.0        0.0        0.0       0.00        9.5       0.00       0.00        0.0
1:25              292        0.0         68       18.1      281.4       18.1       19.6       12.1     1018.4       18.5       18.0        0.0        0.0        0.0       0.00        9.8       0.00       0.00        0.0
1:27              292        0.0         68       18.1      281.4       18.1       19.6       12.1     1018.4       18.5       18.0        0.0        0.0        0.0       0.00        9.9       0.00       0.00        0.0
1:30              292        0.0         68       18.1      281.4       18.1       19.6       12.1     1018.3       18.5       18.0        0.0        0.0        0.0       0.00       10.1       0.00       0.00        0.0
1:32              292        0.0         68       18.1      281.4       18.1       19.6       12.1     1018.3       18.5       18.0        0.0        0.0        0.0       0.00       10.2       0.00       0.00        0.0
1:34              292        0.0         68       18.1      281.4       18.1       19.6       12.1     1018.3       18.5       18.0        0.0        0.0        0.0       0.00       10.4       0.00       0.00        0.0
1:36              292        0.0         68       18.0      281.4       18.0       19.5       12.0     1018.3       18.5       18.0        0.0        0.0        0.0       0.00       10.6       0.00       0.00        0.0
1:38              292        0.0         69       18.0      281.4       18.0       19.6       12.2     1018.3       18.5       18.0        0.0        0.0        0.0       0.00       10.8       0.00       0.00        0.0
1:40              292        0.0         69       18.1      281.4       18.1       19.6       12.3     1018.3       18.5       18.0        0.0        0.0        0.0       0.00       11.0       0.00       0.00        0.0
1:42              292        0.0         70       18.1      281.4       18.1       19.7       12.5     1018.3       18.5       18.0        0.0        0.0        0.0       0.00       11.3       0.00       0.00        0.0
1:44              292        0.0         70       18.1      281.4       18.1       19.7       12.5     1018.3       18.5       18.0        0.0        0.0        0.0       0.00       11.5       0.00       0.00        0.0
1:46              292        0.0         71       18.1      281.4       18.1       19.8       12.7     1018.3       18.5       18.0        0.0        0.0        0.0       0.00       11.8       0.00       0.00        0.0
1:48              292        0.0         71       18.1      281.4       18.1       19.8       12.8     1018.3       18.5       18.0        0.0        0.0        0.0       0.00       12.0       0.00       0.00        0.0
1:50              292        0.0         72       18.1      281.4       18.1       19.9       13.0     1018.3       18.5       18.0        0.0        0.0        0.0       0.00       12.2       0.00       0.00        0.0
1:52              292        0.0         73       18.1      281.4       18.1       20.0       13.2     1018.3       18.5       18.0        0.0        0.0        0.0       0.00       12.5       0.00       0.00        0.0
1:54              292        0.0         74       18.2      281.4       18.2       20.1       13.5     1018.4       18.5       18.0        0.0        0.0        0.0       0.00       12.7       0.00       0.00        0.0
1:56              292        0.0         74       18.2      281.4       18.2       20.1       13.5     1018.4       18.5       18.0        0.0        0.0        0.0       0.00       12.8       0.00       0.00        0.0
1:58              292        0.0         74       18.2      281.4       18.2       20.1       13.5     1018.4       18.5       18.0        0.0        0.0        0.0       0.00       13.0       0.00       0.00        0.0
2:00              292        0.0         74       18.2      281.4       18.2       20.1       13.5     1018.3       18.5       18.0        0.0        0.0        0.0       0.00       13.3       0.00       0.00        0.0
2:02              292        0.0         74       18.3      281.4       18.3       20.2       13.6     1018.3       18.5       18.0        0.0        0.0        0.0       0.00       13.6       0.00       0.00        0.0
2:04              292        0.0         74       18.3      281.4       18.3       20.2       13.6     1018.3       18.5       18.0        0.0        0.0        0.0       0.00       13.8       0.00       0.00        0.0
2:06              292        0.0         73       18.3      281.4       18.3       20.1       13.4     1018.3       18.5       18.0        0.0        0.0        0.0       0.00       14.0       0.00       0.00        0.0
2:08              292        0.0         73       18.3      281.4       18.3       20.1       13.4     1018.3       18.5       18.0        0.0        0.0        0.0       0.00       14.3       0.00       0.00        0.0
2:10              292        0.0         73       18.3      281.4       18.3       20.2       13.4     1018.3       18.5       18.0        0.0        0.0        0.0       0.00       14.6       0.00       0.00        0.0
2:12              292        0.0         73       18.3      281.4       18.3       20.2       13.4     1018.2       18.5       18.0        0.0        0.0        0.0       0.00       14.8       0.00       0.00        0.0
2:14              292        0.0         73       18.3      281.4       18.3       20.2       13.4     1018.3       18.5       18.0        0.0        0.0        0.0       0.00       14.9       0.00       0.00        0.0
2:16              292        0.0         73       18.3      281.4       18.3       20.2       13.4     1018.2       18.5       18.0        0.0        0.0        0.0       0.00       14.9       0.00       0.00        0.0
2:18              292        0.0         73       18.3      281.4       18.3       20.2       13.4     1018.3       18.5       18.0        0.0        0.0        0.0       0.00       15.0       0.00       0.00        0.0
2:20              292        0.0         73       18.3      281.4       18.3       20.2       13.4     1018.3       18.5       18.0        0.0        0.0        0.0       0.00       15.0       0.00       0.00        0.0
2:21              292        0.0         72       18.3      281.4       18.3       20.1       13.2     1018.3       18.5       18.0        0.0        0.0        0.0       0.00       15.1       0.00       0.00        0.0
2:24              292        0.0         72       18.3      281.4       18.3       20.1       13.2     1018.3       18.5       18.0        0.0        0.0        0.0       0.00       15.2       0.00       0.00        0.0
2:26              292        0.0         72       18.4      281.4       18.4       20.2       13.3     1018.4       18.5       18.0        0.0        0.0        0.0       0.00       15.3       0.00       0.00        0.0
2:27              292        0.0         72       18.4      281.4       18.4       20.2       13.3     1018.2       18.5       18.0        0.0        0.0        0.0       0.00       15.3       0.00       0.00        0.0
2:30              292        0.0         72       18.4      281.4       18.4       20.2       13.3     1018.2       18.5       18.0        0.0        0.0        0.0       0.00       15.3       0.00       0.00        0.0
2:32              292        0.0         72       18.4      281.4       18.4       20.2       13.3     1018.3       18.5       18.0        0.0        0.0        0.0       0.00       15.3       0.00       0.00        0.0
2:33              292        0.0         71       18.4      281.4       18.4       20.1       13.0     1018.4       18.5       18.0        0.0        0.0        0.0       0.00       15.3       0.00       0.00        0.0
2:36              292        0.0         71       18.4      281.4       18.4       20.1       13.0     1018.2       18.5       18.0        0.0        0.0        0.0       0.00       15.3       0.00       0.00        0.0
2:38              292        0.0         71       18.4      281.4       18.4       20.1       13.0     1018.3       18.5       18.0        0.0        0.0        0.0       0.00       15.4       0.00       0.00        0.0
2:40              292        0.0         71       18.4      281.4       18.4       20.1       13.0     1018.3       18.5       18.0        0.0        0.0        0.0       0.00       15.5       0.00       0.00        0.0
2:42              292        0.0         71       18.4      281.4       18.4       20.1       13.0     1018.3       18.5       18.0        0.0        0.0        0.0       0.00       15.5       0.00       0.00        0.0
2:44              292        0.0         71       18.3      281.4       18.3       20.0       13.0     1018.3       18.5       18.0        0.0        0.0        0.0       0.00       15.5       0.00       0.00        0.0
2:46              292        0.0         71       18.3      281.4       18.3       20.0       13.0     1018.3       18.5       18.0        0.0        0.0        0.0       0.00       15.5       0.00       0.00        0.0
2:48              292        0.0         72       18.3      281.4       18.3       20.1       13.2     1018.3       18.5       18.0        0.0        0.0        0.0       0.00       15.5       0.00       0.00        0.0
2:50              292        0.0         72       18.3      281.4       18.3       20.1       13.2     1018.3       18.5       18.0        0.0        0.0        0.0       0.00       15.5       0.00       0.00        0.0
2:52              292        0.0         72       18.3      281.4       18.3       20.1       13.2     1018.3       18.5       18.0        0.0        0.0        0.0       0.00       15.5       0.00       0.00        0.0
2:53              292        0.0         72       18.3      281.4       18.3       20.1       13.2     1018.3       18.5       18.0        0.0        0.0        0.0       0.00       15.6       0.00       0.00        0.0
2:56              292        0.0         72       18.3      281.4       18.3       20.1       13.2     1018.2       18.5       18.0        0.0        0.0        0.0       0.00       15.8       0.00       0.00        0.0
2:58              292        0.0         72       18.3      281.4       18.3       20.1       13.2     1018.3       18.5       18.0        0.0        0.0        0.0       0.00       15.8       0.00       0.00        0.0
3:00              292        0.0         72       18.3      281.4       18.3       20.1       13.2     1018.4       18.5       18.0        0.0        0.0        0.0       0.00       15.9       0.00       0.00        0.0
3:02              292        0.0         73       18.3      281.4       18.3       20.2       13.4     1018.4       18.5       18.0        0.0        0.0        0.0       0.00       16.0       0.00       0.00        0.0
3:04              292        0.0         73       18.4      281.4       18.4       20.2       13.5     1018.2       18.5       18.0        0.0        0.0        0.0       0.00       16.3       0.00       0.00        0.0
3:06              292        0.0         73       18.4      281.4       18.4       20.2       13.5     1018.3       18.5       18.0        0.0        0.0        0.0       0.00       16.5       0.00       0.00        0.0
3:08              292        0.0         74       18.4      281.4       18.4       20.3       13.7     1018.2       18.5       18.0        0.0        0.0        0.0       0.00       16.5       0.00       0.00        0.0
3:10              292        0.0         74       18.4      281.4       18.4       20.3       13.7     1018.3       18.5       18.0        0.0        0.0        0.0       0.00       16.7       0.00       0.00        0.0
3:12              292        0.0         74       18.4      281.4       18.4       20.3       13.7     1018.3       18.5       18.0        0.0        0.0        0.0       0.00       16.9       0.00       0.00        0.0
3:14              292        0.0         74       18.4      281.4       18.4       20.3       13.7     1018.3       18.5       18.0        0.0        0.0        0.0       0.00       17.1       0.00       0.00        0.0
3:16              292        0.0         74       18.4      281.4       18.4       20.3       13.7     1018.3       18.5       18.0        0.0        0.0        0.0       0.00       17.2       0.00       0.00        0.0
3:18              292        0.0         74       18.4      281.4       18.4       20.3       13.7     1018.3       18.5       18.0        0.0        0.0        0.0       0.00       17.4       0.00       0.00        0.0
3:20              292        0.0         74       18.4      281.4       18.4       20.3       13.7     1018.3       18.5       18.0        0.0        0.0        0.0       0.00       17.5       0.00       0.00        0.0
3:21              292        0.0         74       18.4      281.4       18.4       20.3       13.7     1018.2       18.5       18.0        0.0        0.0        0.0       0.00       17.5       0.00       0.00        0.0
3:24              292        0.0         75       18.3      281.4       18.3       20.3       13.8     1018.3       18.5       18.0        0.0        0.0        0.0       0.00       17.5       0.00       0.00        0.0
3:26              292        0.0         75       18.3      281.4       18.3       20.3       13.8     1018.3       18.5       18.0        0.0        0.0        0.0       0.00       17.6       0.00       0.00        0.0
3:28              292        0.0         75       18.3      281.4       18.3       20.3       13.8     1018.3       18.5       18.0        0.0        0.0        0.0       0.00       17.7       0.00       0.00        0.0
3:30              292        0.0         75       18.3      281.4       18.3       20.3       13.8     1018.3       18.5       18.0        0.0        0.0        0.0       0.00       17.8       0.00       0.00        0.0
3:32              292        0.0         76       18.2      281.4       18.2       20.3       13.9     1018.2       18.5       18.0        0.0        0.0        0.0       0.00       18.0       0.00       0.00        0.0
3:34              292        0.0         76       18.2      281.4       18.2       20.3       13.9     1018.3       18.5       18.0        0.0        0.0        0.0       0.00       18.1       0.00       0.00        0.0
3:36              292        0.0         77       18.2      281.4       18.2       20.3       14.1     1018.4       18.5       18.0        0.0        0.0        0.0       0.00       18.1       0.00       0.00        0.0
3:38              292        0.0         77       18.2      281.4       18.2       20.3       14.1     1018.3       18.5       18.0        0.0        0.0        0.0       0.00       18.1       0.00       0.00        0.0
3:40              292        0.0         77       18.1      281.4       18.1       20.2       14.0     1018.3       18.5       18.0        0.0        0.0        0.0       0.00       18.1       0.00       0.00        0.0
3:42              292        0.0         77       18.1      281.4       18.1       20.2       14.0     1018.2       18.5       18.0        0.0        0.0        0.0       0.00       18.1       0.00       0.00        0.0
3:44              292        0.0         77       18.1      281.4       18.1       20.2       14.0     1018.2       18.5       18.0        0.0        0.0        0.0       0.00       18.2       0.00       0.00        0.0
3:45              292        0.0         78       18.1      281.4       18.1       20.3       14.2     1018.2       18.5       18.0        0.0        0.0        0.0       0.00       18.3       0.00       0.00        0.0
3:47              292        0.0         78       18.0      281.4       18.0       20.2       14.1     1018.2       18.5       18.0        0.0        0.0        0.0       0.00       18.5       0.00       0.00        0.0
3:50              292        0.0         79       18.0      281.4       18.0       20.3       14.3     1018.2       18.5       18.0        0.0        0.0        0.0       0.00       18.5       0.00       0.00        0.0
3:52              292        0.0         79       18.0      281.4       18.0       20.3       14.3     1018.2       18.5       18.0        0.0        0.0        0.0       0.00       18.5       0.00       0.00        0.0
3:54              292        0.0         79       18.0      281.4       18.0       20.3       14.3     1018.3       18.5       18.0        0.0        0.0        0.0       0.00       18.5       0.00       0.00        0.0
3:55              292        0.0         79       18.0      281.4       18.0       20.3       14.3     1018.2       18.5       17.9        0.0        0.0        0.0       0.00       18.5       0.00       0.00        0.0
3:58              292        0.0         80       17.9      281.4       17.9       20.3       14.4     1018.3       18.5       17.9        0.0        0.0        0.0       0.00       18.5       0.00       0.00        0.0
4:00              292        0.0         80       17.9      281.4       17.9       20.3       14.4     1018.2       18.5       17.9        0.0        0.0        0.0       0.00       18.5       0.00       0.00        0.0
4:02              292        0.0         80       17.9      281.4       17.9       20.3       14.4     1018.3       18.5       17.9        0.0        0.0        0.0       0.00       18.5       0.00       0.00        0.0
4:04              292        0.0         80       17.9      281.4       17.9       20.3       14.4     1018.3       18.5       17.9        0.0        0.0        0.0       0.00       18.5       0.00       0.00        0.0
4:06              292        0.0         80       17.9      281.4       17.9       20.2       14.4     1018.4       18.5       17.9        0.0        0.0        0.0       0.00       18.6       0.00       0.00        0.0
4:07              292        0.0         80       17.9      281.4       17.9       20.2       14.4     1018.4       18.5       17.9        0.0        0.0        0.0       0.00       18.7       0.00       0.00        0.0
4:10              292        0.0         80       17.8      281.4       17.8       20.2       14.3     1018.4       18.5       17.8        0.0        0.0        0.0       0.00       18.7       0.00       0.00        0.0
4:12              292        0.0         80       17.8      281.4       17.8       20.1       14.3     1018.4       18.5       17.8        0.0        0.0        0.0       0.00       18.7       0.00       0.00        0.0
4:14              292        0.0         80       17.7      281.4       17.7       20.1       14.2     1018.3       18.5       17.7        0.0        0.0        0.0       0.00       18.7       0.00       0.00        0.0
4:16              292        0.0         80       17.7      281.4       17.7       20.1       14.2     1018.4       18.5       17.7        0.0        0.0        0.0       0.00       18.7       0.00       0.00        0.0
4:18              292        0.0         80       17.7      281.4       17.7       20.0       14.2     1018.4       18.5       17.7        0.0        0.0        0.0       0.00       18.7       0.00       0.00        0.0
4:19              292        0.0         80       17.7      281.4       17.7       20.0       14.2     1018.5       18.5       17.7        0.0        0.0        0.0       0.00       18.7       0.00       0.00        0.0
4:22              292        0.0         81       17.6      281.4       17.6       20.0       14.3     1018.4       18.5       17.6        0.0        0.0        0.0       0.00       18.7       0.00       0.00        0.0
4:24              292        0.0         81       17.6      281.4       17.6       20.0       14.3     1018.4       18.5       17.6        0.0        0.0        0.0       0.00       18.7       0.00       0.00        0.0
4:26              292        0.0         81       17.6      281.4       17.6       20.0       14.3     1018.4       18.5       17.6        0.0        0.0        0.0       0.00       18.7       0.00       0.00        0.0
4:28              292        0.0         81       17.6      281.4       17.6       20.0       14.3     1018.4       18.5       17.6        0.0        0.0        0.0       0.00       18.7       0.00       0.00        0.0
4:30              292        0.0         81       17.6      281.4       17.6       20.0       14.3     1018.4       18.5       17.6        0.0        0.0        0.0       0.00       18.7       0.00       0.00        0.0
4:32              292        0.0         81       17.5      281.4       17.5       19.9       14.2     1018.5       18.5       17.5        0.0        0.0        0.0       0.00       18.7       0.01       0.00        0.0
4:33              292        0.0         82       17.5      281.4       17.5       20.0       14.4     1018.4       18.5       17.5        0.0        0.0        0.0       0.00       18.7       0.01       0.00        0.0
4:36              292        0.0         82       17.5      281.4       17.5       20.0       14.4     1018.5       18.5       17.4        0.0        0.0        0.0       0.00       18.7       0.01       0.00        0.0
4:38              292        0.0         82       17.4      281.4       17.4       19.9       14.3     1018.5       18.5       17.4        0.0        0.0        0.0       0.00       18.7       0.01       0.00        0.0
4:40              292        0.0         82       17.4      281.4       17.4       19.9       14.3     1018.5       18.5       17.4        0.0        0.0        0.0       0.00       18.7       0.01       0.00        0.0
4:42              292        0.0         82       17.4      281.4       17.4       19.9       14.3     1018.4       18.5       17.4        0.0        0.0        0.0       0.00       18.7       0.01       0.00        0.0
4:44              292        0.0         82       17.4      281.4       17.4       19.9       14.3     1018.5       18.5       17.4        0.0        0.0        0.0       0.00       18.7       0.01       0.00        0.0
4:46              292        0.0         83       17.4      281.4       17.4       20.0       14.5     1018.5       18.5       17.4        0.0        0.0        0.0       0.00       18.7       0.01       0.00        0.0
4:48              292        0.0         83       17.4      281.4       17.4       20.0       14.5     1018.5       18.5       17.4        0.0        0.0        0.0       0.00       18.7       0.01       0.00        0.0
4:49              292        0.0         83       17.4      281.4       17.4       20.0       14.5     1018.6       18.5       17.4        0.0        0.0        0.0       0.00       18.7       0.01       0.00        0.0
4:52              292        0.0         83       17.4      281.4       17.4       20.0       14.5     1018.6       18.5       17.4        0.0        0.0        0.0       0.00       18.7       0.01       0.00        0.0
4:54              292        0.0         83       17.4      281.4       17.4       20.0       14.5     1018.5       18.5       17.4        0.0        0.0        0.0       0.00       18.7       0.01       0.00        0.0
4:56              292        0.0         83       17.4      281.4       17.4       20.0       14.5     1018.5       18.5       17.4        0.0        0.0        0.0       0.00       18.7       0.01       0.00        0.0
4:57              292        0.0         83       17.4      281.4       17.4       20.0       14.5     1018.6       18.5       17.4        0.0        0.0        0.0       0.00       18.7       0.01       0.00        0.0
5:00              292        0.0         84       17.5      281.4       17.5       20.2       14.8     1018.6       18.5       17.4        0.0        0.0        0.0       0.00       18.7       0.01       0.00        0.0
5:02              292        0.0         84       17.5      281.4       17.5       20.2       14.8     1018.6       18.5       17.4        0.0        0.0        0.0       0.00       18.7       0.02       0.00        0.0
5:03              292        0.0         84       17.5      281.4       17.5       20.2       14.8     1018.6       18.5       17.4        0.0        0.0        0.0       0.00       18.7       0.02       0.00        0.0
5:06              292        0.0         84       17.5      281.4       17.5       20.2       14.8     1018.6       18.5       17.4        0.0        0.0        0.0       0.00       18.7       0.02       0.00        0.0
5:07              292        0.0         84       17.5      281.4       17.5       20.2       14.8     1018.6       18.5       17.4        0.0        0.0        0.0       0.00       18.7       0.02       0.00        0.0
5:10              292        0.0         83       17.4      281.4       17.4       20.0       14.5     1018.6       18.5       17.4        0.0        0.0        0.0       0.00       18.7       0.02       0.00        0.0
5:12              292        0.0         82       17.3      281.4       17.3       19.8       14.2     1018.6       18.5       17.3        0.0        0.0        0.0       0.00       18.7       0.02       0.00        0.0
5:14              292        0.0         82       17.3      281.4       17.3       19.8       14.2     1018.6       18.5       17.3        0.0        0.0        0.0       0.00       18.7       0.02       0.00        0.0
5:16              292        0.0         82       17.2      281.4       17.2       19.7       14.1     1018.6       18.5       17.2        0.0        0.0        0.0       0.00       18.7       0.03       0.00        0.0
5:18              292        0.0         82       17.2      281.4       17.2       19.7       14.1     1018.7       18.5       17.2        0.0        0.0        0.0       0.00       18.7       0.03       0.00        0.0
5:20              292        0.0         82       17.1      281.4       17.1       19.6       14.0     1018.7       18.5       17.1        0.0        0.0        0.0       0.00       18.7       0.03       0.00        0.0
5:22              292        0.0         81       17.1      281.4       17.1       19.5       13.8     1018.7       18.5       17.1        0.0        0.0        0.0       0.00       18.7       0.03       0.00        0.0
5:23              292        0.0         81       17.0      281.4       17.0       19.4       13.7     1018.7       18.5       17.0        0.0        0.0        0.0       0.00       18.7       0.03       0.00        0.0
5:26              292        0.0         81       17.0      281.4       17.0       19.4       13.7     1018.7       18.5       16.9        0.0        0.0        0.0       0.00       18.7       0.03       0.00        0.0
5:27              292        0.0         81       16.9      281.4       16.9       19.3       13.6     1018.7       18.5       16.9        0.0        0.0        0.0       0.00       18.7       0.03       0.00        0.0
5:30              292        0.0         81       16.9      281.4       16.9       19.3       13.6     1018.7       18.5       16.9        0.0        0.0        0.0       0.00       18.7       0.03       0.00        0.0
5:31              292        0.0         81       16.8      281.4       16.8       19.3       13.6     1018.7       18.5       16.8        0.0        0.0        0.0       0.00       18.7       0.04       0.00        0.0
5:33              292        0.0         81       16.8      281.4       16.8       19.2       13.5     1018.8       18.5       16.8        0.0        0.0        0.0       0.00       18.7       0.04       0.00        0.0
5:36              292        0.0         81       16.8      281.4       16.8       19.2       13.5     1018.8       18.5       16.8        0.0        0.0        0.0       0.00       18.7       0.04       0.00        0.0
5:38              292        0.0         81       16.7      281.4       16.7       19.1       13.4     1018.8       18.5       16.7        0.0        0.0        0.0       0.00       18.7       0.04       0.00        0.0
5:40              292        0.0         81       16.7      281.4       16.7       19.1       13.4     1018.8       18.5       16.7        0.0        0.0        0.0       0.00       18.7       0.04       0.00        0.0
5:42              292        0.0         81       16.7      281.4       16.7       19.1       13.4     1018.8       18.5       16.7        0.0        0.0        0.0       0.00       18.7       0.04       0.00        0.0
5:44              292        0.0         80       16.6      281.4       16.6       19.0       13.2     1018.8       18.5       16.6        0.0        0.0        0.0       0.00       18.7       0.04       0.00        0.0
5:46              292        0.0         80       16.6      281.4       16.6       18.9       13.1     1018.8       18.5       16.6        0.0        0.0        0.0       0.00       18.7       0.05       0.00        0.0
5:48              292        0.0         80       16.5      281.4       16.5       18.8       13.0     1018.8       18.5       16.5        0.0        0.0        0.0       0.00       18.7       0.05       0.00        0.0
5:49              292        0.0         80       16.5      281.4       16.5       18.8       13.0     1018.8       18.5       16.5        0.0        0.0        0.0       0.00       18.7       0.05       0.00        0.0
5:51              292        0.0         80       16.4      281.4       16.4       18.8       13.0     1018.8       18.5       16.4        0.0        0.0        0.0       0.00       18.7       0.05       0.00        0.0
5:53              292        0.0         80       16.4      281.4       16.4       18.8       13.0     1018.9       18.5       16.4        0.0        0.0        0.0       0.00       18.7       0.05       0.00        0.0
5:56              292        0.0         80       16.4      281.4       16.4       18.8       13.0     1018.9       18.5       16.4        0.0        0.0        0.0       0.00       18.7       0.05       0.00        0.0
5:58              292        0.0         80       16.4      281.4       16.4       18.8       13.0     1018.9       18.5       16.4        0.0        0.0        0.0       0.00       18.7       0.05       0.00        0.0
6:00              292        0.0         80       16.4      281.4       16.4       18.8       13.0     1018.9       18.5       16.4        0.0        0.0        0.0       0.00       18.8       0.05       0.00        0.0
6:02              292        0.0         80       16.4      281.4       16.4       18.8       13.0     1018.8       18.5       16.4        0.0        0.0        0.0       0.00       19.0       0.07       0.00        0.0
6:04              292        0.0         79       16.4      281.4       16.4       18.7       12.7     1018.9       18.5       16.4        0.0        0.0        0.0       0.00       19.0       0.07       0.00        0.0
6:06              292        0.0         79       16.4      281.4       16.4       18.7       12.7     1018.9       18.5       16.4        0.0        0.0        0.0       0.00       19.1       0.07       0.00        0.0
6:07              292        0.0         79       16.4      281.4       16.4       18.7       12.7     1018.9       18.5       16.4        0.0        0.0        0.0       0.00       19.1       0.07       0.00        0.0
6:10              292        0.0         78       16.4      281.4       16.4       18.6       12.5     1018.8       18.5       16.4        0.0        0.0        0.0       0.00       19.1       0.07       0.00        0.0
6:12              292        0.0         78       16.4      281.4       16.4       18.6       12.5     1018.9       18.5       16.4        0.0        0.0        0.0       0.00       19.1       0.07       0.00        0.0
6:13              292        0.0         78       16.4      281.4       16.4       18.6       12.5     1018.9       18.5       16.4        0.0        0.0        0.0       0.00       19.1       0.07       0.00        0.0
6:16              292        0.0         78       16.3      281.4       16.3       18.5       12.5     1018.9       18.5       16.3        0.0        0.0        0.0       0.00       19.1       0.09       0.00        0.0
6:18              292        0.0         78       16.3      281.4       16.3       18.5       12.5     1018.9       18.5       16.3        0.0        0.0        0.0       0.00       19.1       0.09       0.00        0.0
6:19              292        0.0         77       16.3      281.4       16.3       18.5       12.3     1018.9       18.5       16.3        0.0        0.0        0.0       0.00       19.1       0.09       0.00        0.0
6:22              292        0.0         77       16.3      281.4       16.3       18.5       12.3     1018.9       18.5       16.3        0.0        0.0        0.0       0.00       19.2       0.09       0.00        0.0
6:24              292        0.0         77       16.3      281.4       16.3       18.4       12.2     1018.9       18.5       16.3        0.0        0.0        0.0       0.00       19.3       0.09       0.00        0.0
6:25              292        0.0         77       16.3      281.4       16.3       18.4       12.2     1019.0       18.5       16.3        0.0        0.0        0.0       0.00       19.4       0.09       0.00        0.0
6:28              292        0.0         77       16.3      281.4       16.3       18.4       12.2     1019.0       18.5       16.3        0.0        0.0        0.0       0.00       19.5       0.09       0.00        0.0
6:30              292        0.0         77       16.2      281.4       16.2       18.4       12.2     1019.1       18.5       16.2        0.0        0.0        0.0       0.00       19.6       0.09       0.00        0.0
6:31              292        0.0         77       16.2      281.4       16.2       18.4       12.2     1019.0       18.5       16.2        0.0        0.0        0.0       0.00       19.8       0.10       0.00        0.0
6:34              292        0.0         77       16.2      281.4       16.2       18.4       12.2     1019.0       18.5       16.2        0.0        0.0        0.0       0.00       19.8       0.10       0.00        0.0
6:36              292        0.0         77       16.2      281.4       16.2       18.4       12.2     1019.0       18.5       16.2        0.0        0.0        0.0       0.00       19.8       0.10       0.00        0.0
6:37              292        0.0         77       16.2      281.4       16.2       18.4       12.2     1019.0       18.5       16.2        0.0        0.0        0.0       0.00       19.9       0.10       0.00        0.0
6:40              292        0.0         78       16.2      281.4       16.2       18.4       12.4     1019.1       18.5       16.2        0.0        0.0        0.0       0.00       20.0       0.10       0.00        0.0
6:42              292        0.0         78       16.2      281.4       16.2       18.4       12.3     1019.1       18.5       16.2        0.0        0.0        0.0       0.00       20.0       0.10       0.00        0.0
6:43              292        0.0         78       16.2      281.4       16.2       18.4       12.3     1019.1       18.5       16.2        0.0        0.0        0.0       0.00       20.0       0.10       0.00        0.0
6:46              292        0.0         78       16.2      281.4       16.2       18.4       12.3     1019.1       18.5       16.2        0.0        0.0        0.0       0.00       20.1       0.12       0.00        0.0
6:48              292        0.0         78       16.2      281.4       16.2       18.4       12.3     1019.2       18.5       16.2        0.0        0.0        0.0       0.00       20.2       0.12       0.00        0.0
6:50              292        0.0         78       16.2      281.4       16.2       18.4       12.3     1019.1       18.5       16.2        0.0        0.0        0.0       0.00       20.3       0.12       0.00        0.0
6:52              292        0.0         78       16.2      281.4       16.2       18.4       12.3     1019.1       18.5       16.2        0.0        0.0        0.0       0.00       20.5       0.12       0.00        0.0
6:54              292        0.0         78       16.2      281.4       16.2       18.4       12.3     1019.1       18.5       16.2        0.0        0.0        0.0       0.00       20.6       0.12       0.00        0.0
6:56              292        0.0         78       16.2      281.4       16.2       18.4       12.3     1019.1       18.5       16.2        0.0        0.0        0.0       0.00       20.7       0.12       0.00        0.0
6:57              292        0.0         78       16.2      281.4       16.2       18.4       12.3     1019.1       18.5       16.2        0.0        0.0        0.0       0.00       20.7       0.12       0.00        0.0
7:00              292        0.0         78       16.2      281.4       16.2       18.4       12.4     1019.2       18.5       16.2        0.0        0.0        0.0       0.00       20.7       0.12       0.00        0.0
7:02              292        0.0         78       16.2      281.4       16.2       18.4       12.4     1019.1       18.5       16.2        0.0        0.0        0.0       0.00       20.7       0.14       0.00        0.0
7:04              292        0.0         78       16.2      281.4       16.2       18.4       12.4     1019.2       18.5       16.2        0.0        0.0        0.0       0.00       20.7       0.14       0.00        0.0
7:06              292        0.0         78       16.2      281.4       16.2       18.4       12.4     1019.2       18.5       16.2        0.0        0.0        0.0       0.00       20.7       0.14       0.00        0.0
7:08              292        0.0         78       16.3      281.4       16.3       18.5       12.4     1019.1       18.5       16.2        0.0        0.0        0.0       0.00       20.7       0.14       0.00        0.0
7:09              292        0.0         78       16.3      281.4       16.3       18.5       12.4     1019.2       18.5       16.2        0.0        0.0        0.0       0.00       20.8       0.14       0.00        0.0
7:12              292        0.0         78       16.3      281.4       16.3       18.5       12.5     1019.2       18.5       16.2        0.0        0.0        0.0       0.00       20.9       0.14       0.00        0.0
7:14              292        0.0         78       16.3      281.4       16.3       18.5       12.5     1019.2       18.5       16.2        0.0        0.0        0.0       0.00       21.3       0.14       0.00        0.0
7:16              292        0.0         78       16.4      281.4       16.4       18.6       12.5     1019.2       18.5       16.2        0.0        0.0        0.0       0.00       21.7       0.16       0.00        0.0
7:18              292        0.0         77       16.4      281.4       16.4       18.6       12.4     1019.2       18.5       16.2        0.0        0.0        0.0       0.00       22.1       0.16       0.00        0.0
7:20              292        0.0         78       16.5      281.4       16.5       18.7       12.7     1019.2       18.5       16.2        0.0        0.0        0.0       0.00       22.6       0.16       0.00        0.0
7:22              292        0.0         78       16.5      281.4       16.5       18.7       12.7     1019.3       18.5       16.2        0.0        0.0        0.0       0.00       23.0       0.16       0.00        0.0
7:24              292        0.0         78       16.6      281.4       16.6       18.8       12.7     1019.2       18.5       16.2        0.0        0.0        0.0       0.00       23.1       0.16       0.00        0.0
7:26              292        0.0         78       16.6      281.4       16.6       18.8       12.7     1019.3       18.5       16.2        0.0        0.0        0.0       0.00       23.3       0.16       0.00        0.0
7:28              292        0.0         78       16.6      281.4       16.6       18.8       12.8     1019.3       18.5       16.2        0.0        0.0        0.0       0.00       23.6       0.16       0.00        0.0
7:30              292        0.0         78       16.7      281.4       16.7       18.9       12.8     1019.3       18.5       16.2        0.0        0.0        0.0       0.00       23.8       0.16       0.00        0.0
7:32              292        0.0         78       16.7      281.4       16.7       18.9       12.8     1019.3       18.5       16.2        0.0        0.0        0.0       0.00       24.1       0.17       0.00        0.0
7:33              292        0.0         78       16.7      281.4       16.7       18.9       12.8     1019.3       18.5       16.2        0.0        0.0        0.0       0.00       24.6       0.17       0.00        0.0
7:35              292        0.0         78       16.7      281.4       16.7       18.9       12.9     1019.3       18.5       16.2        0.0        0.0        0.0       0.00       24.8       0.17       0.00        0.0
7:38              292        0.0         78       16.8      281.4       16.8       19.0       12.9     1019.4       18.5       16.2        0.0        0.0        0.0       0.00       25.3       0.17       0.00        0.0
7:40              292        0.0         78       16.8      281.4       16.8       19.0       12.9     1019.3       18.5       16.2        0.0        0.0        0.0       0.00       25.7       0.17       0.00        0.0
7:42              292        0.0         78       16.8      281.4       16.8       19.0       13.0     1019.3       18.5       16.2        0.0        0.0        0.0       0.00       26.2       0.17       0.00        0.0
7:44              292        0.0         78       16.8      281.4       16.8       19.0       13.0     1019.3       18.5       16.2        0.0        0.0        0.0       0.00       26.7       0.17       0.00        0.0
7:46              292        0.0         77       16.8      281.4       16.8       19.0       12.8     1019.4       18.5       16.2        0.0        0.0        0.0       0.00       27.2       0.18       0.00        0.0
7:48              292        0.0         78       16.9      281.4       16.9       19.1       13.0     1019.4       18.5       16.2        0.0        0.0        0.0       0.00       27.5       0.18       0.00        0.0
7:49              292        0.0         78       16.9      281.4       16.9       19.1       13.0     1019.5       18.5       16.2        0.0        0.0        0.0       0.00       27.7       0.18       0.00        0.0
7:52              292        0.0         77       16.9      281.4       16.9       19.1       12.9     1019.3       18.5       16.2        0.0        0.0        0.0       0.00       28.0       0.18       0.00        0.0
7:54              292        0.0         77       16.9      281.4       16.9       19.1       12.9     1019.4       18.5       16.2        0.0        0.0        0.0       0.00       28.3       0.18       0.00        0.0
7:56              292        0.0         77       17.0      281.4       17.0       19.1       12.9     1019.5       18.5       16.2        0.0        0.0        0.0       0.00       28.8       0.18       0.00        0.0
7:57              292        0.0         76       17.0      281.4       17.0       19.1       12.7     1019.4       18.5       16.2        0.0        0.0        0.0       0.00       29.3       0.18       0.00        0.0
8:00              292        0.0         76       17.1      281.4       17.1       19.1       12.8     1019.4       18.5       16.2        0.0        0.0        0.0       0.00       29.7       0.18       0.00        0.0
8:02              292        0.0         76       17.1      281.4       17.1       19.2       12.9     1019.5       18.5       16.2        0.0        0.0        0.0       0.00       29.9       0.19       0.00        0.0
8:04              292        0.0         76       17.2      281.4       17.2       19.3       13.0     1019.5       18.5       16.2        0.0        0.0        0.0       0.00       30.3       0.19       0.00        0.0
8:05              292        0.0         75       17.3      281.4       17.3       19.3       12.8     1019.6       18.5       16.2        0.0        0.0        0.0       0.00       30.6       0.19       0.00        0.0
8:08              292        0.0         75       17.3      281.4       17.3       19.3       12.9     1019.7       18.5       16.2        0.0        0.0        0.0       0.00       30.9       0.19       0.00        0.0
8:10              292        0.0         74       17.3      281.4       17.3       19.2       12.7     1019.7       18.5       16.2        0.0        0.0        0.0       0.00       31.3       0.19       0.00        0.0
8:11              292        0.0         73       17.4      281.4       17.4       19.2       12.5     1019.8       18.5       16.2        0.0        0.0        0.0       0.00       31.6       0.19       0.00        0.0
8:13              292        0.0         73       17.4      281.4       17.4       19.3       12.6     1019.8       18.5       16.2        0.0        0.0        0.0       0.00       32.0       0.19       0.00        0.0
8:16              292        0.0         73       17.4      281.4       17.4       19.3       12.6     1019.8       18.5       16.2        0.0        0.0        0.0       0.00       32.3       0.20       0.00        0.0
8:18              292        0.0         72       17.4      281.4       17.4       19.2       12.3     1019.9       18.5       16.2        0.0        0.0        0.0       0.00       32.6       0.20       0.00        0.0
8:20              292        0.0         72       17.4      281.4       17.4       19.2       12.3     1019.9       18.5       16.2        0.0        0.0        0.0       0.00       32.9       0.20       0.00        0.0
8:22              294        0.0         72       17.5      281.4       17.5       19.3       12.4     1019.9       18.5       16.2        0.0        0.0        0.0       0.00       33.2       0.20       0.00        0.0
8:24              294        0.0         73       17.6      281.4       17.6       19.4       12.7     1019.9       18.5       16.2        0.0        0.0        0.0       0.00       33.3       0.20       0.00        0.0
8:26              294        0.0         73       17.6      281.4       17.6       19.5       12.7     1019.9       18.5       16.2        0.0        0.0        0.0       0.00       33.5       0.20       0.00        0.0
8:28              294        0.0         73       17.7      281.4       17.7       19.5       12.8     1019.8       18.5       16.2        0.0        0.0        0.0       0.00       33.7       0.20       0.00        0.0
8:30              294        0.0         74       17.7      281.4       17.7       19.6       13.0     1019.9       18.5       16.2        0.0        0.0        0.0       0.00       33.9       0.20       0.00        0.0
8:32              296        0.0         74       17.8      281.4       17.8       19.7       13.1     1019.9       18.5       16.2        0.0        0.0        0.0       0.00       34.3       0.20       0.00        0.0
8:34              296        0.0         74       17.9      281.4       17.9       19.8       13.2     1019.8       18.5       16.2        0.0        0.0        0.0       0.00       34.6       0.20       0.00        0.0
8:36              298        0.0         74       17.9      281.4       17.9       19.8       13.2     1019.9       18.5       16.2        0.0        0.0        0.0       0.00       34.9       0.20       0.00        0.0
8:38              301        0.0         73       17.9      281.4       17.9       19.7       13.0     1019.9       18.5       16.2        0.0        0.0        0.0       0.00       35.2       0.20       0.00        0.0
8:39              301        0.0         73       17.9      281.4       17.9       19.8       13.0     1019.9       18.5       16.2        0.0        0.0        0.0       0.00       35.3       0.20       0.00        0.0
8:42              306        0.0         72       18.0      281.4       18.0       19.8       12.9     1019.9       18.5       16.2        0.0        0.0        0.0       0.00       35.6       0.20       0.00        0.0
8:43              310        0.0         72       18.1      281.4       18.1       19.8       12.9     1020.0       18.5       16.2        0.0        0.0        0.0       0.00       35.9       0.20       0.00        0.0
8:46              313        0.0         72       18.1      281.4       18.1       19.9       13.0     1020.0       18.5       16.2        0.0        0.0        0.0       0.00       36.1       0.20       0.00        0.0
8:48              315        0.0         72       18.2      281.4       18.2       19.9       13.0     1020.0       18.5       16.2        0.0        0.0        0.0       0.00       36.4       0.20       0.00        0.0
8:50              315        0.0         72       18.3      281.4       18.3       20.1       13.1     1020.0       18.5       16.2        0.0        0.0        0.0       0.00       36.5       0.20       0.00        0.0
8:52              315        0.0         71       18.4      281.4       18.4       20.1       13.0     1020.0       18.5       16.2        0.0        0.0        0.0       0.00       36.7       0.20       0.00        0.0
8:54              315        0.0         71       18.4      281.4       18.4       20.2       13.1     1019.9       18.5       16.2        0.0        0.0        0.0       0.00       36.9       0.20       0.00        0.0
8:56              315        0.0         70       18.6      281.4       18.6       20.2       13.0     1019.9       18.6       16.2        0.0        0.0        0.0       0.00       37.1       0.20       0.00        0.0
8:58              315        0.0         71       18.7      281.4       18.7       20.4       13.3     1019.9       18.7       16.2        0.0        0.0        0.0       0.00       37.3       0.20       0.00        0.0
9:00              315        0.0         71       18.7      281.4       18.7       20.4       13.4     1020.0       18.7       16.2        0.0        0.0        0.0       0.00       37.5       0.20       0.00        0.0
9:01              315        0.0         71       18.8      281.4       18.8       20.5       13.5     1019.9       18.8       16.2        0.0        0.0        0.0       0.00       37.7       0.20       0.00        0.0
9:03              315        0.0         71       18.8      281.4       18.8       20.5       13.5     1019.9       18.8       16.2        0.0        0.0        0.0       0.00       38.0       0.20       0.00        0.0
9:06              315        0.0         71       18.9      281.4       18.9       20.7       13.6     1019.9       18.9       16.2        0.0        0.0        0.0       0.00       38.1       0.20       0.00        0.0
9:08              315        0.0         71       19.0      281.4       19.0       20.7       13.6     1020.0       19.0       16.2        0.0        0.0        0.0       0.00       38.3       0.20       0.00        0.0
9:10              315        0.0         70       19.1      281.4       19.1       20.8       13.5     1020.0       19.1       16.2        0.0        0.0        0.0       0.00       38.4       0.20       0.00        0.0
9:12              315        0.0         70       19.2      281.4       19.2       20.9       13.6     1019.9       19.2       16.2        0.0        0.0        0.0       0.00       38.5       0.20       0.00        0.0
9:14              315        0.0         70       19.3      281.4       19.3       21.0       13.7     1020.0       19.3       16.2        0.0        0.0        0.0       0.00       38.7       0.20       0.00        0.0
9:15              315        0.0         70       19.4      281.4       19.4       21.1       13.8     1019.9       19.4       16.2        0.0        0.0        0.0       0.00       38.8       0.20       0.00        0.0
9:18              315        0.0         69       19.6      281.4       19.6       21.1       13.7     1019.9       19.6       16.2        0.0        0.0        0.0       0.00       39.0       0.20       0.00        0.0
9:20              315        0.0         69       19.6      281.4       19.6       21.2       13.8     1019.9       19.6       16.2        0.0        0.0        0.0       0.00       39.1       0.20       0.00        0.0
9:22              315        0.0         68       19.7      281.4       19.7       21.2       13.7     1019.8       19.7       16.2        0.0        0.0        0.0       0.00       39.2       0.20       0.00        0.0
9:24              315        0.0         68       19.8      281.4       19.8       21.3       13.8     1019.9       19.8       16.2        0.0        0.0        0.0       0.00       39.4       0.20       0.00        0.0
9:26              315        0.0         68       19.9      281.4       19.9       21.5       13.9     1019.9       19.9       16.2        0.0        0.0        0.0       0.00       39.5       0.20       0.00        0.0
9:28              315        0.0         68       20.1      281.4       20.1       21.6       14.0     1019.8       20.1       16.2        0.0        0.0        0.0       0.00       39.6       0.20       0.00        0.0
9:30              315        0.0         67       20.1      281.4       20.1       21.6       13.8     1019.9       20.1       16.2        0.0        0.0        0.0       0.00       39.8       0.20       0.00        0.0
9:32              315        0.0         67       20.2      281.4       20.2       21.7       13.9     1019.9       20.2       16.2        0.0        0.0        0.0       0.00       40.0       0.20       0.00        0.0
9:34              315        0.0         66       20.3      281.4       20.3       21.7       13.8     1019.9       20.3       16.2        0.0        0.0        0.0       0.00       40.1       0.20       0.00        0.0
9:36              316        0.0         66       20.4      281.4       20.4       21.8       13.8     1019.8       20.4       16.2        0.0        0.0        0.0       0.00       40.2       0.20       0.00        0.0
9:38              315        0.0         66       20.5      281.4       20.5       21.9       13.9     1019.8       20.5       16.2        0.0        0.0        0.0       0.00       40.4       0.20       0.00        0.0
9:40              315        0.0         65       20.6      281.4       20.6       21.9       13.8     1019.9       20.6       16.2        0.0        0.0        0.0       0.00       40.5       0.20       0.00        0.0
9:42              316        0.0         64       20.7      281.4       20.7       22.0       13.7     1019.9       20.7       16.2        0.0        0.0        0.0       0.00       40.7       0.20       0.00        0.0
9:44              316        0.0         63       20.8      281.4       20.8       22.0       13.5     1019.8       20.8       16.2        0.0        0.0        0.0       0.00       40.8       0.20       0.00        0.0
9:46              316        0.0         63       20.9      281.4       20.9       22.1       13.6     1019.7       20.9       16.2        0.0        0.0        0.0       0.00       40.9       0.20       0.00        0.0
9:48              316        0.0         63       20.9      281.4       20.9       22.1       13.6     1019.8       20.9       16.2        0.0        0.0        0.0       0.00       41.0       0.20       0.00        0.0
9:50              316        0.0         63       21.0      281.4       21.0       22.2       13.7     1019.7       21.0       16.2        0.0        0.0        0.0       0.00       41.1       0.20       0.00        0.0
9:52              316        0.0         63       21.1      281.4       21.1       22.2       13.7     1019.7       21.1       16.2        0.0        0.0        0.0       0.00       41.2       0.20       0.00        0.0
9:54              316        0.0         63       21.1      281.4       21.1       22.2       13.7     1019.7       21.1       16.2        0.0        0.0        0.0       0.00       41.2       0.20       0.00        0.0
9:56              316        0.0         63       21.1      281.4       21.1       22.3       13.8     1019.7       21.1       16.2        0.0        0.0        0.0       0.00       41.3       0.20       0.00        0.0
9:58              316        0.0         63       21.2      281.4       21.2       22.4       13.9     1019.8       21.2       16.2        0.0        0.0        0.0       0.00       41.3       0.20       0.00        0.0
10:00             316        0.0         63       21.3      281.4       21.3       22.5       14.0     1019.7       21.3       16.2        0.0        0.0        0.0       0.00       41.3       0.20       0.00        0.0
10:02             316        0.0         62       21.4      281.4       21.4       22.5       13.8     1019.8       21.4       16.2        0.0        0.0        0.0       0.00       41.4       0.20       0.00        0.0
10:04             316        0.0         61       21.4      281.4       21.4       22.5       13.6     1019.9       21.4       16.2        0.0        0.0        0.0       0.00       41.5       0.20       0.00        0.0
10:06             316        0.0         62       21.5      281.4       21.5       22.6       13.9     1019.9       21.5       16.2        0.0        0.0        0.0       0.00       41.6       0.20       0.00        0.0
10:08             316        0.0         61       21.6      281.4       21.6       22.6       13.7     1019.9       21.6       16.2        0.0        0.0        0.0       0.00       41.7       0.20       0.00        0.0
10:10             316        0.0         61       21.6      281.4       21.6       22.7       13.8     1019.9       21.6       16.2        0.0        0.0        0.0       0.00       41.8       0.20       0.00        0.0
10:12             316        0.0         61       21.7      281.4       21.7       22.7       13.8     1019.9       21.7       16.2        0.0        0.0        0.0       0.00       41.8       0.20       0.00        0.0
10:14             316        0.0         61       21.7      281.4       21.7       22.8       13.9     1019.8       21.7       16.2        0.0        0.0        0.0       0.00       41.9       0.20       0.00        0.0
10:16             316        0.0         60       21.8      281.4       21.8       22.8       13.7     1019.9       21.8       16.2        0.0        0.0        0.0       0.00       42.0       0.20       0.00        0.0
10:18             316        0.0         60       21.9      281.4       21.9       22.9       13.8     1019.9       21.9       16.2        0.0        0.0        0.0       0.00       42.0       0.20       0.00        0.0
10:20             316        0.0         61       21.9      281.4       21.9       23.0       14.1     1019.8       21.9       16.2        0.0        0.0        0.0       0.00       42.0       0.20       0.00        0.0
10:22             316        0.0         61       22.1      281.4       22.1       23.1       14.2     1019.8       22.1       16.2        0.0        0.0        0.0       0.00       42.0       0.20       0.00        0.0
10:24             316        0.0         60       22.2      281.4       22.2       23.2       14.1     1019.7       22.2       16.2        0.0        0.0        0.0       0.00       42.1       0.20       0.00        0.0
10:26             316        0.0         60       22.3      281.4       22.3       23.3       14.2     1019.7       22.3       16.2        0.0        0.0        0.0       0.00       42.1       0.20       0.00        0.0
10:28             316        0.0         59       22.6      281.4       22.6       23.5       14.1     1019.8       22.6       16.2        0.0        0.0        0.0       0.00       42.2       0.20       0.00        0.0
10:30             316        0.0         58       22.7      281.4       22.7       23.6       14.0     1019.7       22.7       16.2        0.0        0.0        0.0       0.00       42.2       0.20       0.00        0.0
10:32             316        0.0         57       22.9      281.4       22.9       23.7       13.9     1019.8       22.9       16.2        0.0        0.0        0.0       0.00       42.3       0.20       0.01        0.0
10:34             316        0.0         57       23.1      281.4       23.1       23.9       14.1     1019.7       23.1       16.2        0.0        0.0        0.0       0.00       42.4       0.20       0.01        0.0
10:36             316        0.0         56       23.2      281.4       23.2       24.0       14.0     1019.7       23.2       16.2        0.0        0.0        0.0       0.00       42.4       0.20       0.01        0.0
10:38             316        0.0         56       23.3      281.4       23.3       24.1       14.1     1019.7       23.3       16.2        0.0        0.0        0.0       0.00       42.4       0.20       0.01        0.0
10:40             316        0.0         55       23.4      281.4       23.4       24.2       13.9     1019.7       23.5       16.2        0.0        0.0        0.0       0.00       42.4       0.20       0.01        0.0
10:42             316        0.0         54       23.6      281.4       23.6       24.3       13.8     1019.6       23.6       16.2        0.0        0.0        0.0       0.00       42.4       0.20       0.01        0.0
10:44             316        0.0         54       23.7      281.4       23.7       24.4       13.9     1019.7       23.7       16.2        0.0        0.0        0.0       0.00       42.4       0.20       0.01        0.0
10:46             316        0.0         53       23.7      281.4       23.7       24.3       13.6     1019.6       23.7       16.2        0.0        0.0        0.0       0.00       42.4       0.20       0.03        0.0
10:48             316        0.0         53       23.8      281.4       23.8       24.4       13.6     1019.6       23.8       16.2        0.0        0.0        0.0       0.00       42.5       0.20       0.03        0.0
10:49             316        0.0         53       23.8      281.4       23.8       24.4       13.6     1019.7       23.8       16.2        0.0        0.0        0.0       0.00       42.5       0.20       0.03        0.0
10:52             316        0.0         53       23.8      281.4       23.8       24.4       13.6     1019.6       23.8       16.2        0.0        0.0        0.0       0.00       42.6       0.20       0.03        0.0
10:54             316        0.0         53       23.7      281.4       23.7       24.3       13.6     1019.7       23.8       16.2        0.0        0.0        0.0       0.00       42.6       0.20       0.03        0.0
10:56             316        0.0         53       23.8      281.4       23.8       24.4       13.6     1019.6       23.8       16.2        0.0        0.0        0.0       0.00       42.7       0.20       0.03        0.0
10:58             316        0.0         53       23.9      281.4       23.9       24.5       13.7     1019.5       23.9       16.2        0.0        0.0        0.0       0.00       42.8       0.20       0.03        0.0
11:00             316        0.0         53       23.9      281.4       23.9       24.5       13.7     1019.6       23.9       16.2        0.0        0.0        0.0       0.00       42.8       0.20       0.03        0.0
11:02             316        0.0         53       23.9      281.4       23.9       24.5       13.7     1019.6       23.9       16.2        0.0        0.0        0.0       0.00       42.9       0.20       0.05        0.0
11:04             316        0.0         53       23.8      281.4       23.8       24.4       13.7     1019.5       23.9       16.2        0.0        0.0        0.0       0.00       42.9       0.20       0.05        0.0
11:06             316        0.0         54       23.9      281.4       23.9       24.5       14.0     1019.6       23.9       16.2        0.0        0.0        0.0       0.00       42.9       0.20       0.05        0.0
11:08             316        0.0         53       24.0      281.4       24.0       24.6       13.8     1019.6       24.0       16.2        0.0        0.0        0.0       0.00       43.0       0.20       0.05        0.0
11:10             316        0.0         53       24.1      281.4       24.1       24.7       13.9     1019.5       24.1       16.2        0.0        0.0        0.0       0.00       43.0       0.20       0.05        0.0
11:12             316        0.0         53       24.2      281.4       24.2       24.8       14.0     1019.5       24.2       16.2        0.0        0.0        0.0       0.00       43.1       0.20       0.05        0.0
11:14             316        0.0         53       24.4      281.4       24.4       25.0       14.2     1019.5       24.4       16.2        0.0        0.0        0.0       0.00       43.1       0.20       0.05        0.0
11:16             316        0.0         53       24.5      281.4       24.5       25.1       14.3     1019.5       24.5       16.2        0.0        0.0        0.0       0.00       43.1       0.20       0.07        0.0
11:18             316        0.0         52       24.6      281.4       24.6       25.2       14.1     1019.5       24.6       16.2        0.0        0.0        0.0       0.00       43.1       0.20       0.07        0.0
11:20             316        0.0         52       24.7      281.4       24.7       25.3       14.2     1019.5       24.7       16.2        0.0        0.0        0.0       0.00       43.1       0.20       0.07        0.0
11:22             316        0.0         52       24.8      281.4       24.8       25.4       14.3     1019.5       24.8       16.2        0.0        0.0        0.0       0.00       43.1       0.20       0.07        0.0
11:24             316        0.0         52       24.9      281.4       24.9       25.5       14.4     1019.6       24.9       16.2        0.0        0.0        0.0       0.00       43.1       0.20       0.07        0.0
11:26             316        0.0         52       25.0      281.4       25.0       25.6       14.5     1019.4       25.0       16.2        0.0        0.0        0.0       0.00       43.1       0.20       0.07        0.0
11:28             316        0.0         51       25.1      281.4       25.1       25.6       14.2     1019.3       25.1       16.2        0.0        0.0        0.0       0.00       43.2       0.20       0.07        0.0
11:29             316        0.0         51       25.1      281.4       25.1       25.6       14.3     1019.4       25.1       16.2        0.0        0.0        0.0       0.00       43.3       0.20       0.07        0.0
11:32             316        0.0         51       25.2      281.4       25.2       25.7       14.4     1019.2       25.2       16.2        0.0        0.0        0.0       0.00       43.3       0.20       0.10        0.0
11:34             316        0.0         51       25.3      281.4       25.3       25.8       14.4     1019.3       25.3       16.2        0.0        0.0        0.0       0.00       43.3       0.20       0.10        0.0
11:36             316        0.0         50       25.4      281.4       25.4       25.8       14.2     1019.3       25.4       16.2        0.0        0.0        0.0       0.00       43.3       0.20       0.10        0.0
11:38             316        0.0         50       25.4      281.4       25.4       25.9       14.3     1019.3       25.4       16.2        0.0        0.0        0.0       0.00       43.4       0.20       0.10        0.0
11:40             316        0.0         50       25.5      281.4       25.5       25.9       14.3     1019.2       25.5       16.2        0.0        0.0        0.0       0.00       43.5       0.20       0.10        0.0
11:42             316        0.0         49       25.6      281.4       25.6       26.0       14.1     1019.2       25.6       16.2        0.0        0.0        0.0       0.00       43.5       0.20       0.10        0.0
11:44             316        0.0         49       25.6      281.4       25.6       26.0       14.1     1019.2       25.6       16.2        0.0        0.0        0.0       0.00       43.6       0.20       0.10        0.0
11:46             316        0.0         49       25.7      281.4       25.7       26.1       14.2     1019.2       25.7       16.2        0.0        0.0        0.0       0.00       43.7       0.20       0.14        0.0
11:48             316        0.0         49       25.8      281.4       25.8       26.2       14.3     1019.2       25.8       16.2        0.0        0.0        0.0       0.00       43.7       0.20       0.14        0.0
11:50             316        0.0         49       25.9      281.4       25.9       26.3       14.4     1019.1       25.9       16.2        0.0        0.0        0.0       0.00       43.7       0.20       0.14        0.0
11:52             316        0.0         48       26.0      281.4       26.0       26.3       14.2     1019.1       26.0       16.2        0.0        0.0        0.0       0.00       43.7       0.20       0.14        0.0
11:54             316        0.0         48       26.2      281.4       26.2       26.5       14.3     1019.1       26.2       16.2        0.0        0.0        0.0       0.00       43.8       0.20       0.14        0.0
11:56             316        0.0         48       26.2      281.4       26.2       26.6       14.4     1019.0       26.2       16.2        0.0        0.0        0.0       0.00       43.8       0.20       0.14        0.0
11:58             316        0.0         48       26.3      281.4       26.3       26.7       14.5     1019.0       26.3       16.2        0.0        0.0        0.0       0.00       43.8       0.20       0.14        0.0
12:00             316        0.0         47       26.4      281.4       26.4       26.7       14.2     1019.0       26.4       16.2        0.0        0.0        0.0       0.00       43.8       0.20       0.14        0.0
12:02             316        0.0         46       26.4      281.4       26.4       26.6       13.8     1019.0       26.4       16.2        0.0        0.0        0.0       0.00       43.9       0.20       0.19        0.0
12:04             316        0.0         45       26.4      281.4       26.4       26.6       13.5     1018.9       26.4       16.2        0.0        0.0        0.0       0.00       43.9       0.20       0.19        0.0
12:06             316        0.0         45       26.4      281.4       26.4       26.6       13.5     1018.9       26.4       16.2        0.0        0.0        0.0       0.00       44.0       0.20       0.19        0.0
12:08             316        0.0         45       26.4      281.4       26.4       26.6       13.6     1018.9       26.4       16.2        0.0        0.0        0.0       0.00       44.0       0.20       0.19        0.0
12:10             316        0.0         45       26.4      281.4       26.4       26.6       13.6     1018.9       26.4       16.2        0.0        0.0        0.0       0.00       44.1       0.20       0.19        0.0
12:12             316        0.0         45       26.4      281.4       26.4       26.6       13.5     1018.8       26.4       16.2        0.0        0.0        0.0       0.00       44.2       0.20       0.19        0.0
12:14             316        0.0         45       26.4      281.4       26.4       26.6       13.5     1018.8       26.4       16.2        0.0        0.0        0.0       0.00       44.2       0.20       0.19        0.0
12:16             316        0.0         46       26.4      281.4       26.4       26.6       13.8     1018.8       26.4       16.2        0.0        0.0        0.0       0.00       44.2       0.20       0.23        0.0
12:18             316        0.0         45       26.4      281.4       26.4       26.6       13.5     1018.8       26.4       16.2        0.0        0.0        0.0       0.00       44.4       0.20       0.23        0.0
12:20             316        0.0         45       26.4      281.4       26.4       26.6       13.5     1018.8       26.4       16.2        0.0        0.0        0.0       0.00       44.5       0.20       0.23        0.0
12:22             316        0.0         45       26.4      281.4       26.4       26.6       13.5     1018.8       26.4       16.2        0.0        0.0        0.0       0.00       44.6       0.20       0.23        0.0
12:24             316        0.0         45       26.4      281.4       26.4       26.6       13.5     1018.7       26.4       16.2        0.0        0.0        0.0       0.00       44.6       0.20       0.23        0.0
12:26             316        0.0         44       26.5      281.4       26.5       26.6       13.3     1018.7       26.5       16.2        0.0        0.0        0.0       0.00       44.6       0.20       0.23        0.0
12:28             316        0.0         44       26.5      281.4       26.5       26.6       13.3     1018.6       26.6       16.2        0.0        0.0        0.0       0.00       44.7       0.20       0.23        0.0
12:29             316        0.0         44       26.6      281.4       26.6       26.7       13.3     1018.6       26.6       16.2        0.0        0.0        0.0       0.00       44.8       0.20       0.23        0.0
12:32             316        0.0         44       26.6      281.4       26.6       26.7       13.3     1018.6       26.6       16.2        0.0        0.0        0.0       0.00       44.8       0.20       0.28        0.0
12:34             316        0.0         45       26.6      281.4       26.6       26.8       13.7     1018.5       26.6       16.2        0.0        0.0        0.0       0.00       44.9       0.20       0.28        0.0
12:36             316        0.0         45       26.6      281.4       26.6       26.8       13.7     1018.5       26.7       16.2        0.0        0.0        0.0       0.00       44.9       0.20       0.28        0.0
12:38             316        0.0         45       26.7      281.4       26.7       26.9       13.8     1018.5       26.7       16.2        0.0        0.0        0.0       0.00       45.0       0.20       0.28        0.0
12:40             316        0.0         44       26.8      281.4       26.8       26.9       13.6     1018.5       26.8       16.2        0.0        0.0        0.0       0.00       45.0       0.20       0.28        0.0
12:42             316        0.0         44       26.8      281.4       26.8       26.9       13.6     1018.4       26.8       16.2        0.0        0.0        0.0       0.00       45.1       0.20       0.28        0.0
12:44             316        0.0         44       26.9      281.4       26.9       27.0       13.7     1018.3       26.9       16.2        0.0        0.0        0.0       0.00       45.1       0.20       0.28        0.0
12:46             316        0.0         44       27.1      281.4       27.1       27.1       13.8     1018.4       27.1       16.2        0.0        0.0        0.0       0.00       45.1       0.20       0.33        0.0
12:48             316        0.0         44       27.2      281.4       27.2       27.2       13.9     1018.3       27.2       16.2        0.0        0.0        0.0       0.00       45.1       0.20       0.33        0.0
12:50             316        0.0         44       27.3      281.4       27.3       27.3       14.0     1018.3       27.3       16.2        0.0        0.0        0.0       0.00       45.2       0.20       0.33        0.0
12:52             316        0.0         44       27.4      281.4       27.4       27.4       14.1     1018.2       27.4       16.2        0.0        0.0        0.0       0.00       45.3       0.20       0.33        0.0
12:54             316        0.0         43       27.5      281.4       27.5       27.4       13.8     1018.1       27.5       16.2        0.0        0.0        0.0       0.00       45.4       0.20       0.33        0.0
12:56             316        0.0         43       27.5      281.4       27.5       27.4       13.8     1018.1       27.5       16.2        0.0        0.0        0.0       0.00       45.4       0.20       0.33        0.0
12:58             316        0.0         43       27.4      281.4       27.4       27.4       13.8     1018.2       27.5       16.2        0.0        0.0        0.0       0.00       45.5       0.20       0.33        0.0
13:00             316        0.0         44       27.5      281.4       27.5       27.5       14.2     1018.0       27.5       16.2        0.0        0.0        0.0       0.00       45.6       0.20       0.33        0.0
13:02             316        0.0         43       27.5      281.4       27.5       27.4       13.8     1018.0       27.5       16.2        0.0        0.0        0.0       0.00       45.8       0.20       0.39        0.0
13:04             316        0.0         43       27.4      281.4       27.4       27.4       13.8     1017.9       27.5       16.2        0.0        0.0        0.0       0.00       45.8       0.20       0.39        0.0
13:06             316        0.0         43       27.5      281.4       27.5       27.4       13.8     1018.0       27.5       16.2        0.0        0.0        0.0       0.00       45.8       0.20       0.39        0.0
13:08             316        0.0         42       27.6      281.4       27.6       27.4       13.5     1017.9       27.6       16.2        0.0        0.0        0.0       0.00       45.9       0.20       0.39        0.0
13:10             315        0.0         42       27.7      281.4       27.7       27.5       13.6     1017.9       27.7       16.2        0.0        0.0        0.0       0.00       46.0       0.20       0.39        0.0
13:12             306        0.0         41       27.8      281.4       27.8       27.5       13.3     1017.8       27.8       16.2        0.0        0.0        0.0       0.00       46.2       0.20       0.39        0.0
13:14             306        0.0         40       27.8      281.4       27.8       27.5       13.0     1017.8       27.8       16.2        0.0        0.0        0.0       0.00       46.3       0.20       0.39        0.0
13:16             305        0.0         40       27.9      281.4       27.9       27.6       13.1     1017.7       27.9       16.2        0.0        0.0        0.0       0.00       46.4       0.20       0.45        0.0
13:18             305        0.0         40       28.0      281.4       28.0       27.7       13.2     1017.7       28.0       16.2        0.0        0.0        0.0       0.00       46.5       0.20       0.45        0.0
13:20             305        0.0         39       28.1      281.4       28.1       27.6       12.8     1017.6       28.1       16.2        0.0        0.0        0.0       0.00       46.5       0.20       0.45        0.0
13:22             305        0.0         40       28.2      281.4       28.2       27.8       13.3     1017.6       28.2       16.2        0.0        0.0        0.0       0.00       46.6       0.20       0.45        0.0
13:24             304        0.0         39       28.3      281.4       28.3       27.9       13.1     1017.6       28.3       16.2        0.0        0.0        0.0       0.00       46.7       0.20       0.45        0.0
13:26             304        0.0         39       28.4      281.4       28.4       27.9       13.1     1017.6       28.4       16.2        0.0        0.0        0.0       0.00       46.8       0.20       0.45        0.0
13:28             304        0.0         39       28.5      281.4       28.5       28.0       13.2     1017.6       28.5       16.2        0.0        0.0        0.0       0.00       46.9       0.20       0.45        0.0
13:30             304        0.0         39       28.6      281.4       28.6       28.1       13.3     1017.5       28.6       16.2        0.0        0.0        0.0       0.00       47.1       0.20       0.45        0.0
13:32             295        0.0         39       28.8      281.4       28.8       28.3       13.5     1017.4       28.8       16.2        0.0        0.0        0.0       0.00       47.2       0.20       0.52        0.0
13:34             294        0.0         39       28.9      281.4       28.9       28.4       13.6     1017.5       28.9       16.2        0.0        0.0        0.0       0.00       47.3       0.20       0.52        0.0
13:36             294        0.0         38       29.0      281.4       29.0       28.4       13.3     1017.4       29.0       16.2        0.0        0.0        0.0       0.00       47.4       0.20       0.52        0.0
13:38             294        0.0         39       29.1      281.4       29.1       28.6       13.7     1017.3       29.1       16.2        0.0        0.0        0.0       0.00       47.6       0.20       0.52        0.0
13:40             294        0.0         39       29.0      281.4       29.0       28.5       13.7     1017.3       29.1       16.2        0.0        0.0        0.0       0.00       47.7       0.20       0.52        0.0
13:42             294        0.0         39       28.9      281.4       28.9       28.5       13.6     1017.3       29.1       16.2        0.0        0.0        0.0       0.00       47.7       0.20       0.52        0.0
13:44             292        0.0         39       28.9      281.4       28.9       28.4       13.6     1017.3       29.1       16.2        0.0        0.0        0.0       0.00       47.9       0.20       0.52        0.0
13:46             290        0.0         38       28.9      281.4       28.9       28.4       13.2     1017.3       29.1       16.2        0.0        0.0        0.0       0.00       48.0       0.20       0.59        0.0
13:48             289        0.0         38       29.0      281.4       29.0       28.4       13.3     1017.2       29.1       16.2        0.0        0.0        0.0       0.00       48.1       0.20       0.59        0.0
13:50             288        0.0         38       29.1      281.4       29.1       28.5       13.3     1017.2       29.1       16.2        0.0        0.0        0.0       0.00       48.3       0.20       0.59        0.0
13:52             287        0.0         37       29.1      281.4       29.1       28.5       12.9     1017.3       29.1       16.2        0.0        0.0        0.0       0.00       48.4       0.20       0.59        0.0
13:54             286        0.0         37       29.1      281.4       29.1       28.5       12.9     1017.2       29.1       16.2        0.0        0.0        0.0       0.00       48.6       0.20       0.59        0.0
13:56             286        0.0         37       29.1      281.4       29.1       28.4       12.9     1017.2       29.1       16.2        0.0        0.0        0.0       0.00       48.8       0.20       0.59        0.0
13:58             286        0.0         37       29.1      281.4       29.1       28.4       12.9     1017.2       29.1       16.2        0.0        0.0        0.0       0.00       48.9       0.20       0.59        0.0
14:00             285        0.0         37       29.1      281.4       29.1       28.5       12.9     1017.0       29.1       16.2        0.0        0.0        0.0       0.00       49.1       0.20       0.59        0.0
14:02             284        0.0         36       29.2      281.4       29.2       28.4       12.6     1017.0       29.2       16.2        0.0        0.0        0.0       0.00       49.2       0.20       0.67        0.0
14:04             284        0.0         36       29.2      281.4       29.2       28.4       12.6     1017.1       29.2       16.2        0.0        0.0        0.0       0.00       49.3       0.20       0.67        0.0
14:06             284        0.0         36       29.2      281.4       29.2       28.5       12.6     1017.0       29.2       16.2        0.0        0.0        0.0       0.00       49.4       0.20       0.67        0.0
14:08             284        0.0         35       29.3      281.4       29.3       28.5       12.2     1016.9       29.3       16.2        0.0        0.0        0.0       0.00       49.6       0.20       0.67        0.0
14:09             284        0.0         35       29.3      281.4       29.3       28.5       12.3     1017.0       29.3       16.2        0.0        0.0        0.0       0.00       49.7       0.20       0.67        0.0
14:12             284        0.0         35       29.3      281.4       29.3       28.5       12.3     1016.9       29.3       16.2        0.0        0.0        0.0       0.00       49.8       0.20       0.67        0.0
14:14             284        0.0         36       29.4      281.4       29.4       28.6       12.8     1016.9       29.4       16.2        0.0        0.0        0.0       0.00       49.8       0.20       0.67        0.0
14:16             284        0.0         35       29.5      281.4       29.5       28.7       12.4     1016.9       29.5       16.2        0.0        0.0        0.0       0.00       50.0       0.20       0.74        0.0
14:18             284        0.0         34       29.6      281.4       29.6       28.6       12.1     1016.9       29.6       16.2        0.0        0.0        0.0       0.00       50.0       0.20       0.74        0.0
14:20             283        0.0         34       29.6      281.4       29.6       28.7       12.1     1016.8       29.6       16.2        0.0        0.0        0.0       0.00       50.2       0.20       0.74        0.0
14:22             282        0.0         34       29.7      281.4       29.7       28.7       12.1     1016.9       29.7       16.2        0.0        0.0        0.0       0.00       50.4       0.20       0.74        0.0
14:24             282        0.0         34       29.7      281.4       29.7       28.8       12.2     1016.9       29.7       16.2        0.0        0.0        0.0       0.00       50.5       0.20       0.74        0.0
14:26             282        0.0         33       29.7      281.4       29.7       28.7       11.7     1016.8       29.7       16.2        0.0        0.0        0.0       0.00       50.6       0.20       0.74        0.0
14:28             282        0.0         33       29.7      281.4       29.7       28.7       11.7     1016.9       29.7       16.2        0.0        0.0        0.0       0.00       50.7       0.20       0.74        0.0
14:30             282        0.0         34       29.7      281.4       29.7       28.7       12.1     1016.8       29.7       16.2        0.0        0.0        0.0       0.00       50.8       0.20       0.74        0.0
14:32             282        0.0         34       29.7      281.4       29.7       28.7       12.1     1016.7       29.7       16.2        0.0        0.0        0.0       0.00       50.9       0.20       0.82        0.0
14:34             282        0.0         34       29.7      281.4       29.7       28.7       12.1     1016.7       29.7       16.2        0.0        0.0        0.0       0.00       51.1       0.20       0.82        0.0
14:36             282        0.0         34       29.7      281.4       29.7       28.7       12.1     1016.8       29.7       16.2        0.0        0.0        0.0       0.00       51.2       0.20       0.82        0.0
14:38             282        0.0         34       29.7      281.4       29.7       28.7       12.1     1016.6       29.7       16.2        0.0        0.0        0.0       0.00       51.3       0.20       0.82        0.0
14:40             282        0.0         33       29.7      281.4       29.7       28.7       11.7     1016.6       29.7       16.2        0.0        0.0        0.0       0.00       51.5       0.20       0.82        0.0
14:42             281        0.0         32       29.7      281.4       29.7       28.6       11.2     1016.6       29.7       16.2        0.0        0.0        0.0       0.00       51.7       0.20       0.82        0.0
14:44             282        0.0         32       29.7      281.4       29.7       28.6       11.3     1016.6       29.7       16.2        0.0        0.0        0.0       0.00       51.8       0.20       0.82        0.0
14:46             282        0.0         33       29.8      281.4       29.8       28.8       11.8     1016.6       29.8       16.2        0.0        0.0        0.0       0.00       51.9       0.20       0.90        0.0
14:48             282        0.0         32       29.8      281.4       29.8       28.7       11.4     1016.6       29.8       16.2        0.0        0.0        0.0       0.00       52.0       0.20       0.90        0.0
14:50             282        0.0         32       29.9      281.4       29.9       28.8       11.4     1016.6       29.9       16.2        0.0        0.0        0.0       0.00       52.0       0.20       0.90        0.0
14:52             282        0.0         32       29.9      281.4       29.9       28.9       11.5     1016.6       29.9       16.2        0.0        0.0        0.0       0.00       52.1       0.20       0.90        0.0
14:54             282        0.0         32       30.1      281.4       30.1       29.0       11.6     1016.6       30.1       16.2        0.0        0.0        0.0       0.00       52.1       0.20       0.90        0.0
14:56             282        0.0         32       30.1      281.4       30.1       29.0       11.6     1016.5       30.1       16.2        0.0        0.0        0.0       0.00       52.2       0.20       0.90        0.0
14:58             282        0.0         33       30.2      281.4       30.2       29.2       12.1     1016.6       30.2       16.2        0.0        0.0        0.0       0.00       52.2       0.20       0.90        0.0
15:00             282        0.0         32       30.3      281.4       30.3       29.2       11.8     1016.5       30.3       16.2        0.0        0.0        0.0       0.00       52.2       0.20       0.90        0.0
15:02             282        0.0         32       30.4      281.4       30.4       29.3       11.9     1016.6       30.4       16.2        0.0        0.0        0.0       0.00       52.2       0.20       0.99        0.0
15:04             282        0.0         32       30.6      281.4       30.6       29.5       12.0     1016.6       30.6       16.2        0.0        0.0        0.0       0.00       52.2       0.20       0.99        0.0
15:06             282        0.0         31       30.7      281.4       30.7       29.5       11.6     1016.5       30.7       16.2        0.0        0.0        0.0       0.00       52.3       0.20       0.99        0.0
15:08             282        0.0         31       30.7      281.4       30.7       29.5       11.7     1016.6       30.7       16.2        0.0        0.0        0.0       0.00       52.4       0.20       0.99        0.0
15:10             282        0.0         31       30.7      281.4       30.7       29.5       11.7     1016.6       30.7       16.2        0.0        0.0        0.0       0.00       52.5       0.20       0.99        0.0
15:12             282        0.0         31       30.7      281.4       30.7       29.5       11.6     1016.6       30.7       16.2        0.0        0.0        0.0       0.00       52.7       0.20       0.99        0.0
15:14             282        0.0         31       30.6      281.4       30.6       29.4       11.6     1016.5       30.7       16.2        0.0        0.0        0.0       0.00       52.8       0.20       0.99        0.0
15:16             282        0.0         32       30.6      281.4       30.6       29.5       12.0     1016.5       30.7       16.2        0.0        0.0        0.0       0.00       53.0       0.20       1.08        0.0
15:18             282        0.0         32       30.6      281.4       30.6       29.5       12.1     1016.5       30.7       16.2        0.0        0.0        0.0       0.00       53.1       0.20       1.08        0.0
15:20             282        0.0         32       30.6      281.4       30.6       29.5       12.1     1016.5       30.7       16.2        0.0        0.0        0.0       0.00       53.1       0.20       1.08        0.0
15:22             282        0.0         33       30.7      281.4       30.7       29.7       12.6     1016.5       30.7       16.2        0.0        0.0        0.0       0.00       53.2       0.20       1.08        0.0
15:24             282        0.0         30       30.7      281.4       30.7       29.5       11.2     1016.5       30.7       16.2        0.0        0.0        0.0       0.00       53.4       0.20       1.08        0.0
15:26             282        0.0         30       30.7      281.4       30.7       29.5       11.2     1016.4       30.7       16.2        0.0        0.0        0.0       0.00       53.5       0.20       1.08        0.0
15:28             282        0.0         29       30.7      281.4       30.7       29.3       10.6     1016.5       30.7       16.2        0.0        0.0        0.0       0.00       53.6       0.20       1.08        0.0
15:29             282        0.0         29       30.7      281.4       30.7       29.3       10.6     1016.5       30.7       16.2        0.0        0.0        0.0       0.00       53.7       0.20       1.08        0.0
15:32             282        0.0         30       30.8      281.4       30.8       29.5       11.2     1016.4       30.8       16.2        0.0        0.0        0.0       0.00       53.7       0.20       1.17        0.0
15:34             282        0.0         29       30.8      281.4       30.8       29.5       10.8     1016.4       30.8       16.2        0.0        0.0        0.0       0.00       53.8       0.20       1.17        0.0
15:36             282        0.0         29       30.8      281.4       30.8       29.5       10.8     1016.5       30.8       16.2        0.0        0.0        0.0       0.00       54.0       0.20       1.17        0.0
15:38             282        0.0         29       30.8      281.4       30.8       29.5       10.8     1016.4       30.8       16.2        0.0        0.0        0.0       0.00       54.1       0.20       1.17        0.0
15:40             282        0.0         28       30.8      281.4       30.8       29.4       10.2     1016.5       30.8       16.2        0.0        0.0        0.0       0.00       54.2       0.20       1.17        0.0
15:42             282        0.0         29       30.8      281.4       30.8       29.4       10.7     1016.4       30.8       16.2        0.0        0.0        0.0       0.00       54.3       0.20       1.17        0.0
15:44             282        0.0         29       30.8      281.4       30.8       29.5       10.8     1016.4       30.8       16.2        0.0        0.0        0.0       0.00       54.3       0.20       1.17        0.0
15:46             282        0.0         29       30.9      281.4       30.9       29.6       10.9     1016.5       30.9       16.2        0.0        0.0        0.0       0.00       54.4       0.20       1.26        0.0
15:48             282        0.0         29       31.1      281.4       31.1       29.7       10.9     1016.4       31.1       16.2        0.0        0.0        0.0       0.00       54.4       0.20       1.26        0.0
15:50             282        0.0         28       31.2      281.4       31.2       29.8       10.6     1016.4       31.2       16.2        0.0        0.0        0.0       0.00       54.5       0.20       1.26        0.0
15:52             282        0.0         28       31.3      281.4       31.3       29.9       10.7     1016.5       31.3       16.2        0.0        0.0        0.0       0.00       54.5       0.20       1.26        0.0
15:54             282        0.0         28       31.4      281.4       31.4       30.0       10.8     1016.4       31.4       16.2        0.0        0.0        0.0       0.00       54.6       0.20       1.26        0.0
15:56             282        0.0         27       31.6      281.4       31.6       30.0       10.3     1016.4       31.6       16.2        0.0        0.0        0.0       0.00       54.8       0.20       1.26        0.0
15:58             282        0.0         27       31.6      281.4       31.6       30.1       10.3     1016.4       31.6       16.2        0.0        0.0        0.0       0.00       54.8       0.20       1.26        0.0
16:00             281        0.0         27       31.7      281.4       31.7       30.1       10.4     1016.4       31.7       16.2        0.0        0.0        0.0       0.00       55.0       0.20       1.26        0.0
16:02             282        0.0         26       31.6      281.4       31.6       30.0        9.8     1016.4       31.7       16.2        0.0        0.0        0.0       0.00       55.2       0.20       1.36        0.0
16:04             282        0.0         27       31.6      281.4       31.6       30.1       10.3     1016.4       31.7       16.2        0.0        0.0        0.0       0.00       55.2       0.20       1.36        0.0
16:06             282        0.0         27       31.6      281.4       31.6       30.1       10.3     1016.3       31.7       16.2        0.0        0.0        0.0       0.00       55.3       0.20       1.36        0.0
16:08             282        0.0         27       31.6      281.4       31.6       30.1       10.3     1016.3       31.7       16.2        0.0        0.0        0.0       0.00       55.3       0.20       1.36        0.0
16:10             282        0.0         27       31.6      281.4       31.6       30.1       10.3     1016.2       31.7       16.2        0.0        0.0        0.0       0.00       55.3       0.20       1.36        0.0
16:12             282        0.0         27       31.6      281.4       31.6       30.1       10.3     1016.2       31.7       16.2        0.0        0.0        0.0       0.00       55.3       0.20       1.36        0.0
16:14             282        0.0         27       31.7      281.4       31.7       30.1       10.4     1016.1       31.7       16.2        0.0        0.0        0.0       0.00       55.3       0.20       1.36        0.0
16:16             282        0.0         29       31.8      281.4       31.8       30.5       11.6     1016.1       31.8       16.2        0.0        0.0        0.0       0.00       55.3       0.20       1.46        0.0
16:18             282        0.0         29       31.8      281.4       31.8       30.5       11.6     1016.2       31.8       16.2        0.0        0.0        0.0       0.00       55.4       0.20       1.46        0.0
16:20             282        0.0         30       31.8      281.4       31.8       30.6       12.1     1016.2       31.8       16.2        0.0        0.0        0.0       0.00       55.5       0.20       1.46        0.0
16:22             282        0.0         36       31.7      281.4       31.7       31.3       14.8     1016.1       31.8       16.2        0.0        0.0        0.0       0.00       55.7       0.20       1.46        0.0
16:24             277        0.0         37       31.6      281.4       31.6       31.3       15.2     1016.1       31.8       16.2        0.0        0.0        0.0       0.00       55.9       0.20       1.46        0.0
16:26             277        0.0         37       31.3      281.4       31.3       30.9       14.9     1016.1       31.8       16.2        0.0        0.0        0.0       0.00       56.0       0.20       1.46        0.0
16:28             272        0.0         39       31.1      281.4       31.1       30.9       15.5     1016.1       31.8       16.2        0.0        0.0        0.0       0.00       56.2       0.20       1.46        0.0
16:30             267        0.0         39       31.0      281.4       31.0       30.8       15.4     1016.1       31.8       16.2        0.0        0.0        0.0       0.00       56.4       0.20       1.46        0.0
16:32             267        0.0         40       30.8      281.4       30.8       30.7       15.7     1016.1       31.8       16.2        0.0        0.0        0.0       0.00       56.5       0.20       1.56        0.0
16:34             265        0.0         40       30.6      281.4       30.6       30.4       15.5     1016.2       31.8       16.2        0.0        0.0        0.0       0.00       56.7       0.20       1.56        0.0
16:36             250        0.0         40       30.4      281.4       30.4       30.1       15.3     1016.2       31.8       16.2        0.0        0.0        0.0       0.00       57.0       0.20       1.56        0.0
16:38             254        0.0         40       30.2      281.4       30.2       29.9       15.1     1016.2       31.8       16.2        0.0        0.0        0.0       0.00       57.3       0.20       1.56        0.0
16:40             236        0.0         41       29.9      281.4       29.9       29.7       15.3     1016.1       31.8       16.2        0.0        0.0        0.0       0.00       57.5       0.20       1.56        0.0
16:42             241        0.0         42       29.8      281.4       29.8       29.7       15.5     1016.2       31.8       16.2        0.0        0.0        0.0       0.00       57.8       0.20       1.56        0.0
16:44             233        0.0         42       29.7      281.4       29.7       29.5       15.4     1016.2       31.8       16.2        0.0        0.0        0.0       0.00       58.0       0.20       1.56        0.0
16:46             240        0.0         43       29.6      281.4       29.6       29.5       15.7     1016.2       31.8       16.2        0.0        0.0        0.0       0.00       58.2       0.20       1.64        0.0
16:48             247        0.0         43       29.4      281.4       29.4       29.3       15.5     1016.2       31.8       16.2        0.0        0.0        0.0       0.00       58.4       0.20       1.64        0.0
16:50             249        0.0         43       29.2      281.4       29.2       29.1       15.4     1016.2       31.8       16.2        0.0        0.0        0.0       0.00       58.7       0.20       1.64        0.0
16:52             244        0.0         43       29.1      281.4       29.1       29.0       15.3     1016.2       31.8       16.2        0.0        0.0        0.0       0.00       59.0       0.20       1.64        0.0
16:54             239        0.0         44       28.9      281.4       28.9       28.9       15.5     1016.2       31.8       16.2        0.0        0.0        0.0       0.00       59.2       0.20       1.64        0.0
16:56             229        0.0         44       28.9      281.4       28.9       28.9       15.4     1016.3       31.8       16.2        0.0        0.0        0.0       0.00       59.4       0.20       1.64        0.0
16:58             234        0.0         44       28.7      281.4       28.7       28.7       15.3     1016.2       31.8       16.2        0.0        0.0        0.0       0.00       59.6       0.20       1.64        0.0
17:00             254        0.0         44       28.7      281.4       28.7       28.6       15.2     1016.2       31.8       16.2        0.0        0.0        0.0       0.00       59.8       0.20       1.64        0.0
17:02             258        0.0         44       28.5      281.4       28.5       28.5       15.1     1016.2       31.8       16.2        0.0        0.0        0.0       0.00       60.0       0.20       1.71        0.0
17:04             238        0.0         45       28.4      281.4       28.4       28.4       15.3     1016.2       31.8       16.2        0.0        0.0        0.0       0.00       60.3       0.20       1.71        0.0
17:06             254        0.0         45       28.3      281.4       28.3       28.3       15.2     1016.3       31.8       16.2        0.0        0.0        0.0       0.00       60.5       0.20       1.71        0.0
17:08             234        0.0         45       28.1      281.4       28.1       28.1       15.1     1016.3       31.8       16.2        0.0        0.0        0.0       0.00       60.8       0.20       1.71        0.0
17:10             247        0.0         45       28.0      281.4       28.0       28.0       15.0     1016.4       31.8       16.2        0.0        0.0        0.0       0.00       61.1       0.20       1.71        0.0
17:12             241        0.0         46       27.9      281.4       27.9       28.0       15.2     1016.3       31.8       16.2        0.0        0.0        0.0       0.00       61.3       0.20       1.71        0.0
17:14             248        0.0         46       27.8      281.4       27.8       27.9       15.1     1016.3       31.8       16.2        0.0        0.0        0.0       0.00       61.7       0.20       1.71        0.0
17:16             238        0.0         46       27.7      281.4       27.7       27.8       15.0     1016.3       31.8       16.2        0.0        0.0        0.0       0.00       61.9       0.20       1.77        0.0
17:18             258        0.0         46       27.6      281.4       27.6       27.7       15.0     1016.2       31.8       16.2        0.0        0.0        0.0       0.00       62.2       0.20       1.77        0.0
17:20             257        0.0         46       27.5      281.4       27.5       27.6       14.9     1016.3       31.8       16.2        0.0        0.0        0.0       0.00       62.5       0.20       1.77        0.0
17:22             266        0.0         46       27.4      281.4       27.4       27.6       14.8     1016.3       31.8       16.2        0.0        0.0        0.0       0.00       62.7       0.20       1.77        0.0
17:24             268        0.0         46       27.3      281.4       27.3       27.5       14.7     1016.3       31.8       16.2        0.0        0.0        0.0       0.00       63.0       0.20       1.77        0.0
17:26             243        0.0         47       27.3      281.4       27.3       27.5       15.0     1016.2       31.8       16.2        0.0        0.0        0.0       0.00       63.3       0.20       1.77        0.0
17:28             253        0.0         47       27.2      281.4       27.2       27.4       14.9     1016.3       31.8       16.2        0.0        0.0        0.0       0.00       63.5       0.20       1.77        0.0
17:30             253        0.0         47       27.2      281.4       27.2       27.4       14.9     1016.4       31.8       16.2        0.0        0.0        0.0       0.00       63.7       0.20       1.77        0.0
17:32             248        0.0         47       27.2      281.4       27.2       27.4       14.9     1016.4       31.8       16.2        0.0        0.0        0.0       0.00       63.8       0.20       1.82        0.0
17:34             244        0.0         47       27.1      281.4       27.1       27.3       14.8     1016.4       31.8       16.2        0.0        0.0        0.0       0.00       64.1       0.20       1.82        0.0
17:36             229        0.0         47       27.0      281.4       27.0       27.2       14.7     1016.4       31.8       16.2        0.0        0.0        0.0       0.00       64.3       0.20       1.82        0.0
17:38             235        0.0         48       26.9      281.4       26.9       27.2       15.0     1016.5       31.8       16.2        0.0        0.0        0.0       0.00       64.5       0.20       1.82        0.0
17:40             250        0.0         48       26.8      281.4       26.8       27.1       14.9     1016.5       31.8       16.2        0.0        0.0        0.0       0.00       64.7       0.20       1.82        0.0
17:42             250        0.0         48       26.6      281.4       26.6       27.0       14.7     1016.5       31.8       16.2        0.0        0.0        0.0       0.00       65.0       0.20       1.82        0.0
17:44             247        0.0         48       26.5      281.4       26.5       26.8       14.6     1016.6       31.8       16.2        0.0        0.0        0.0       0.00       65.2       0.20       1.82        0.0
17:46             248        0.0         48       26.4      281.4       26.4       26.7       14.5     1016.7       31.8       16.2        0.0        0.0        0.0       0.00       65.4       0.20       1.87        0.0
17:48             250        0.0         49       26.3      281.4       26.3       26.7       14.8     1016.7       31.8       16.2        0.0        0.0        0.0       0.00       65.6       0.20       1.87        0.0
17:50             249        0.0         49       26.2      281.4       26.2       26.6       14.7     1016.8       31.8       16.2        0.0        0.0        0.0       0.00       65.9       0.20       1.87        0.0
17:52             250        0.0         49       26.1      281.4       26.1       26.5       14.6     1016.6       31.8       16.2        0.0        0.0        0.0       0.00       66.2       0.20       1.87        0.0
17:54             237        0.0         49       26.1      281.4       26.1       26.4       14.5     1016.7       31.8       16.2        0.0        0.0        0.0       0.00       66.4       0.20       1.87        0.0
17:56             257        0.0         49       26.0      281.4       26.0       26.4       14.5     1016.8       31.8       16.2        0.0        0.0        0.0       0.00       66.7       0.20       1.87        0.0
17:58             257        0.0         49       25.9      281.4       25.9       26.3       14.4     1016.8       31.8       16.2        0.0        0.0        0.0       0.00       67.0       0.20       1.87        0.0
18:00             252        0.0         49       25.8      281.4       25.8       26.2       14.3     1016.7       31.8       16.2        0.0        0.0        0.0       0.00       67.3       0.20       1.87        0.0
18:02             254        0.0         49       25.8      281.4       25.8       26.2       14.3     1016.7       31.8       16.2        0.0        0.0        0.0       0.00       67.5       0.20       1.91        0.0
18:04             257        0.0         49       25.7      281.4       25.7       26.1       14.2     1016.7       31.8       16.2        0.0        0.0        0.0       0.00       67.8       0.20       1.91        0.0
18:06             263        0.0         49       25.7      281.4       25.7       26.1       14.2     1016.6       31.8       16.2        0.0        0.0        0.0       0.00       68.1       0.20       1.91        0.0
18:08             252        0.0         49       25.6      281.4       25.6       26.0       14.1     1016.7       31.8       16.2        0.0        0.0        0.0       0.00       68.3       0.20       1.91        0.0
18:10             253        0.0         50       25.6      281.4       25.6       26.0       14.4     1016.8       31.8       16.2        0.0        0.0        0.0       0.00       68.5       0.20       1.91        0.0
18:12             261        0.0         50       25.5      281.4       25.5       25.9       14.3     1016.7       31.8       16.2        0.0        0.0        0.0       0.00       68.6       0.20       1.91        0.0
18:14             247        0.0         50       25.4      281.4       25.4       25.9       14.3     1016.7       31.8       16.2        0.0        0.0        0.0       0.00       68.9       0.20       1.91        0.0
18:16             251        0.0         50       25.4      281.4       25.4       25.8       14.2     1016.8       31.8       16.2        0.0        0.0        0.0       0.00       69.1       0.20       1.94        0.0
18:18             248        0.0         50       25.3      281.4       25.3       25.8       14.2     1016.8       31.8       16.2        0.0        0.0        0.0       0.00       69.3       0.20       1.94        0.0
18:20             252        0.0         51       25.3      281.4       25.3       25.8       14.4     1016.8       31.8       16.2        0.0        0.0        0.0       0.00       69.5       0.20       1.94        0.0
18:22             249        0.0         51       25.2      281.4       25.2       25.7       14.4     1016.9       31.8       16.2        0.0        0.0        0.0       0.00       69.8       0.20       1.94        0.0
18:24             235        0.0         51       25.2      281.4       25.2       25.7       14.3     1016.9       31.8       16.2        0.0        0.0        0.0       0.00       70.0       0.20       1.94        0.0
18:26             250        0.0         51       25.1      281.4       25.1       25.6       14.3     1016.9       31.8       16.2        0.0        0.0        0.0       0.00       70.2       0.20       1.94        0.0
18:28             261        0.0         51       25.1      281.4       25.1       25.6       14.2     1016.8       31.8       16.2        0.0        0.0        0.0       0.00       70.4       0.20       1.94        0.0
18:30             262        0.0         52       25.0      281.4       25.0       25.6       14.5     1016.9       31.8       16.2        0.0        0.0        0.0       0.00       70.6       0.20       1.94        0.0
18:32             260        0.0         52       24.9      281.4       24.9       25.5       14.4     1016.9       31.8       16.2        0.0        0.0        0.0       0.00       70.7       0.20       1.97        0.0
18:34             252        0.0         52       24.9      281.4       24.9       25.4       14.4     1016.9       31.8       16.2        0.0        0.0        0.0       0.00       71.0       0.20       1.97        0.0
18:36             250        0.0         52       24.8      281.4       24.8       25.4       14.3     1016.8       31.8       16.2        0.0        0.0        0.0       0.00       71.3       0.20       1.97        0.0
18:38             258        0.0         52       24.8      281.4       24.8       25.3       14.3     1016.9       31.8       16.2        0.0        0.0        0.0       0.00       71.6       0.20       1.97        0.0
18:40             262        0.0         52       24.7      281.4       24.7       25.3       14.2     1016.9       31.8       16.2        0.0        0.0        0.0       0.00       71.9       0.20       1.97        0.0
18:42             257        0.0         53       24.7      281.4       24.7       25.3       14.5     1016.9       31.8       16.2        0.0        0.0        0.0       0.00       72.1       0.20       1.97        0.0
18:44             253        0.0         53       24.6      281.4       24.6       25.2       14.4     1016.8       31.8       16.2        0.0        0.0        0.0       0.00       72.4       0.20       1.97        0.0
18:46             252        0.0         53       24.6      281.4       24.6       25.2       14.4     1016.9       31.8       16.2        0.0        0.0        0.0       0.00       72.7       0.20       2.00        0.0
18:48             250        0.0         53       24.5      281.4       24.5       25.1       14.3     1016.9       31.8       16.2        0.0        0.0        0.0       0.00       73.0       0.20       2.00        0.0
18:50             252        0.0         53       24.4      281.4       24.4       25.1       14.3     1016.9       31.8       16.2        0.0        0.0        0.0       0.00       73.2       0.20       2.00        0.0
18:52             250        0.0         53       24.4      281.4       24.4       25.0       14.2     1016.9       31.8       16.2        0.0        0.0        0.0       0.00       73.6       0.20       2.00        0.0
18:54             247        0.0         53       24.3      281.4       24.3       24.9       14.1     1016.9       31.8       16.2        0.0        0.0        0.0       0.00       73.9       0.20       2.00        0.0
18:56             247        0.0         53       24.3      281.4       24.3       24.9       14.1     1016.9       31.8       16.2        0.0        0.0        0.0       0.00       74.1       0.20       2.00        0.0
18:58             247        0.0         53       24.2      281.4       24.2       24.8       14.0     1016.9       31.8       16.2        0.0        0.0        0.0       0.00       74.3       0.20       2.00        0.0
19:00             246        0.0         54       24.2      281.4       24.2       24.9       14.3     1017.0       31.8       16.2        0.0        0.0        0.0       0.00       74.5       0.20       2.00        0.0
19:02             247        0.0         54       24.2      281.4       24.2       24.8       14.3     1016.9       31.8       16.2        0.0        0.0        0.0       0.00       74.7       0.20       2.02        0.0
19:04             248        0.0         54       24.2      281.4       24.2       24.8       14.3     1017.0       31.8       16.2        0.0        0.0        0.0       0.00       74.9       0.20       2.02        0.0
19:06             247        0.0         54       24.1      281.4       24.1       24.8       14.2     1017.0       31.8       16.2        0.0        0.0        0.0       0.00       75.2       0.20       2.02        0.0
19:08             252        0.0         53       24.1      281.4       24.1       24.7       13.9     1017.0       31.8       16.2        0.0        0.0        0.0       0.00       75.5       0.20       2.02        0.0
19:10             254        0.0         53       24.1      281.4       24.1       24.7       13.9     1017.0       31.8       16.2        0.0        0.0        0.0       0.00       75.8       0.20       2.02        0.0
19:12             253        0.0         53       24.1      281.4       24.1       24.7       13.9     1017.1       31.8       16.2        0.0        0.0        0.0       0.00       76.0       0.20       2.02        0.0
19:14             257        0.0         53       24.2      281.4       24.2       24.8       14.0     1017.0       31.8       16.2        0.0        0.0        0.0       0.00       76.3       0.20       2.02        0.0
19:16             260        0.0         53       24.2      281.4       24.2       24.8       14.0     1017.0       31.8       16.2        0.0        0.0        0.0       0.00       76.6       0.20       2.05        0.0
19:18             259        0.0         53       24.2      281.4       24.2       24.8       14.0     1017.0       31.8       16.2        0.0        0.0        0.0       0.00       76.8       0.20       2.05        0.0
19:20             262        0.0         54       24.2      281.4       24.2       24.8       14.3     1017.0       31.8       16.2        0.0        0.0        0.0       0.00       77.1       0.20       2.05        0.0
19:22             262        0.0         54       24.2      281.4       24.2       24.8       14.3     1017.0       31.8       16.2        0.0        0.0        0.0       0.00       77.3       0.20       2.05        0.0
19:24             261        0.0         55       24.2      281.4       24.2       24.9       14.6     1017.1       31.8       16.2        0.0        0.0        0.0       0.00       77.7       0.20       2.05        0.0
19:26             267        0.0         55       24.1      281.4       24.1       24.8       14.5     1017.0       31.8       16.2        0.0        0.0        0.0       0.00       78.0       0.20       2.05        0.0
19:28             267        0.0         55       24.1      281.4       24.1       24.8       14.5     1017.1       31.8       16.2        0.0        0.0        0.0       0.00       78.2       0.20       2.05        0.0
19:30             259        0.0         55       24.1      281.4       24.1       24.8       14.5     1017.0       31.8       16.2        0.0        0.0        0.0       0.00       78.6       0.20       2.05        0.0
19:32             252        0.0         56       24.0      281.4       24.0       24.8       14.7     1017.1       31.8       16.2        0.0        0.0        0.0       0.00       78.9       0.20       2.07        0.0
19:34             261        0.0         56       23.9      281.4       23.9       24.7       14.6     1017.0       31.8       16.2        0.0        0.0        0.0       0.00       79.2       0.20       2.07        0.0
19:36             263        0.0         56       23.9      281.4       23.9       24.7       14.6     1017.0       31.8       16.2        0.0        0.0        0.0       0.00       79.5       0.20       2.07        0.0
19:38             269        0.0         56       23.8      281.4       23.8       24.6       14.5     1017.0       31.8       16.2        0.0        0.0        0.0       0.00       79.9       0.20       2.07        0.0
19:40             269        0.0         56       23.8      281.4       23.8       24.6       14.5     1017.0       31.8       16.2        0.0        0.0        0.0       0.00       80.3       0.20       2.07        0.0
19:42             270        0.0         57       23.7      281.4       23.7       24.6       14.7     1017.0       31.8       16.2        0.0        0.0        0.0       0.00       80.5       0.20       2.07        0.0
19:44             270        0.0         57       23.7      281.4       23.7       24.6       14.7     1017.0       31.8       16.2        0.0        0.0        0.0       0.00       80.8       0.20       2.07        0.0
19:46             267        0.0         57       23.7      281.4       23.7       24.5       14.7     1017.1       31.8       16.2        0.0        0.0        0.0       0.00       81.2       0.20       2.09        0.0
19:48             263        0.0         57       23.6      281.4       23.6       24.4       14.6     1017.1       31.8       16.2        0.0        0.0        0.0       0.00       81.5       0.20       2.09        0.0
19:50             262        0.0         57       23.6      281.4       23.6       24.4       14.6     1017.2       31.8       16.2        0.0        0.0        0.0       0.00       81.8       0.20       2.09        0.0
19:52             259        0.0         57       23.5      281.4       23.5       24.3       14.5     1017.2       31.8       16.2        0.0        0.0        0.0       0.00       82.2       0.20       2.09        0.0
19:54             259        0.0         58       23.4      281.4       23.4       24.3       14.7     1017.1       31.8       16.2        0.0        0.0        0.0       0.00       82.5       0.20       2.09        0.0
19:56             259        0.0         58       23.4      281.4       23.4       24.3       14.7     1017.2       31.8       16.2        0.0        0.0        0.0       0.00       82.8       0.20       2.09        0.0
19:58             259        0.0         58       23.3      281.4       23.3       24.2       14.6     1017.1       31.8       16.2        0.0        0.0        0.0       0.00       83.1       0.20       2.09        0.0
20:00             258        0.0         58       23.2      281.4       23.2       24.1       14.5     1017.2       31.8       16.2        0.0        0.0        0.0       0.00       83.4       0.20       2.09        0.0
20:02             263        0.0         58       23.2      281.4       23.2       24.1       14.5     1017.3       31.8       16.2        0.0        0.0        0.0       0.00       83.7       0.20       2.10        0.0
20:04             263        0.0         59       23.1      281.4       23.1       24.1       14.7     1017.2       31.8       16.2        0.0        0.0        0.0       0.00       83.9       0.20       2.10        0.0
20:06             263        0.0         59       23.1      281.4       23.1       24.1       14.7     1017.3       31.8       16.2        0.0        0.0        0.0       0.00       84.1       0.20       2.10        0.0
20:08             262        0.0         59       23.1      281.4       23.1       24.0       14.6     1017.3       31.8       16.2        0.0        0.0        0.0       0.00       84.4       0.20       2.10        0.0
20:10             262        0.0         59       23.0      281.4       23.0       23.9       14.6     1017.3       31.8       16.2        0.0        0.0        0.0       0.00       84.7       0.20       2.10        0.0
20:12             262        0.0         59       22.9      281.4       22.9       23.9       14.5     1017.3       31.8       16.2        0.0        0.0        0.0       0.00       85.0       0.20       2.10        0.0
20:14             262        0.0         59       22.9      281.4       22.9       23.8       14.5     1017.3       31.8       16.2        0.0        0.0        0.0       0.00       85.3       0.20       2.10        0.0
20:16             262        0.0         59       22.8      281.4       22.8       23.8       14.4     1017.4       31.8       16.2        0.0        0.0        0.0       0.00       85.5       0.20       2.11        0.0
20:18             262        0.0         59       22.8      281.4       22.8       23.7       14.4     1017.3       31.8       16.2        0.0        0.0        0.0       0.00       85.8       0.20       2.11        0.0
20:20             262        0.0         59       22.8      281.4       22.8       23.7       14.4     1017.3       31.8       16.2        0.0        0.0        0.0       0.00       86.0       0.20       2.11        0.0
20:22             260        0.0         59       22.7      281.4       22.7       23.7       14.3     1017.3       31.8       16.2        0.0        0.0        0.0       0.00       86.3       0.20       2.11        0.0
20:24             262        0.0         59       22.7      281.4       22.7       23.7       14.3     1017.3       31.8       16.2        0.0        0.0        0.0       0.00       86.7       0.20       2.11        0.0
20:26             262        0.0         59       22.7      281.4       22.7       23.7       14.3     1017.3       31.8       16.2        0.0        0.0        0.0       0.00       86.9       0.20       2.11        0.0
20:28             262        0.0         59       22.7      281.4       22.7       23.6       14.3     1017.3       31.8       16.2        0.0        0.0        0.0       0.00       87.2       0.20       2.11        0.0
20:30             262        0.0         59       22.6      281.4       22.6       23.6       14.2     1017.3       31.8       16.2        0.0        0.0        0.0       0.00       87.6       0.20       2.11        0.0
20:32             263        0.0         59       22.6      281.4       22.6       23.6       14.2     1017.4       31.8       16.2        0.0        0.0        0.0       0.00       87.8       0.20       2.11        0.0
20:34             263        0.0         60       22.6      281.4       22.6       23.6       14.4     1017.4       31.8       16.2        0.0        0.0        0.0       0.00       88.0       0.20       2.11        0.0
20:36             263        0.0         60       22.6      281.4       22.6       23.6       14.4     1017.4       31.8       16.2        0.0        0.0        0.0       0.00       88.2       0.20       2.11        0.0
20:38             262        0.0         60       22.5      281.4       22.5       23.5       14.4     1017.3       31.8       16.2        0.0        0.0        0.0       0.00       88.5       0.20       2.11        0.0
20:40             263        0.0         60       22.5      281.4       22.5       23.5       14.4     1017.4       31.8       16.2        0.0        0.0        0.0       0.00       88.9       0.20       2.11        0.0
20:42             265        0.0         60       22.4      281.4       22.4       23.4       14.3     1017.4       31.8       16.2        0.0        0.0        0.0       0.00       89.2       0.20       2.11        0.0
20:44             265        0.0         60       22.4      281.4       22.4       23.4       14.3     1017.4       31.8       16.2        0.0        0.0        0.0       0.00       89.6       0.20       2.11        0.0
20:46             264        0.0         60       22.4      281.4       22.4       23.4       14.3     1017.4       31.8       16.2        0.0        0.0        0.0       0.00       89.9       0.20       2.12        0.0
20:48             265        0.0         61       22.4      281.4       22.4       23.5       14.5     1017.4       31.8       16.2        0.0        0.0        0.0       0.00       90.1       0.20       2.12        0.0
20:50             265        0.0         61       22.3      281.4       22.3       23.4       14.5     1017.4       31.8       16.2        0.0        0.0        0.0       0.00       90.5       0.20       2.12        0.0
20:52             265        0.0         61       22.3      281.4       22.3       23.3       14.4     1017.5       31.8       16.2        0.0        0.0        0.0       0.00       90.7       0.20       2.12        0.0
20:54             265        0.0         61       22.3      281.4       22.3       23.3       14.4     1017.5       31.8       16.2        0.0        0.0        0.0       0.00       91.0       0.20       2.12        0.0
20:56             265        0.0         61       22.3      281.4       22.3       23.3       14.4     1017.5       31.8       16.2        0.0        0.0        0.0       0.00       91.4       0.20       2.12        0.0
20:58             265        0.0         61       22.2      281.4       22.2       23.3       14.4     1017.5       31.8       16.2        0.0        0.0        0.0       0.00       91.6       0.20       2.12        0.0
21:00             265        0.0         61       22.2      281.4       22.2       23.3       14.4     1017.5       31.8       16.2        0.0        0.0        0.0       0.00       91.9       0.20       2.12        0.0
21:02             265        0.0         61       22.2      281.4       22.2       23.2       14.3     1017.6       31.8       16.2        0.0        0.0        0.0       0.00       92.2       0.20       2.12        0.0
21:04             264        0.0         62       22.1      281.4       22.1       23.2       14.5     1017.7       31.8       16.2        0.0        0.0        0.0       0.00       92.6       0.20       2.12        0.0
21:06             263        0.0         62       22.1      281.4       22.1       23.2       14.5     1017.6       31.8       16.2        0.0        0.0        0.0       0.00       93.0       0.20       2.12        0.0
21:08             263        0.0         62       22.1      281.4       22.1       23.2       14.4     1017.7       31.8       16.2        0.0        0.0        0.0       0.00       93.2       0.20       2.12        0.0
21:10             263        0.0         62       22.0      281.4       22.0       23.1       14.4     1017.7       31.8       16.2        0.0        0.0        0.0       0.00       93.5       0.20       2.12        0.0
21:12             263        0.0         62       21.9      281.4       21.9       23.1       14.3     1017.7       31.8       16.2        0.0        0.0        0.0       0.00       93.9       0.20       2.12        0.0
21:14             263        0.0         62       21.9      281.4       21.9       23.0       14.3     1017.8       31.8       16.2        0.0        0.0        0.0       0.00       94.3       0.20       2.12        0.0
21:16             263        0.0         62       21.9      281.4       21.9       23.0       14.3     1017.8       31.8       16.2        0.0        0.0        0.0       0.00       94.7       0.20       2.12        0.0
21:18             263        0.0         62       21.8      281.4       21.8       23.0       14.2     1017.8       31.8       16.2        0.0        0.0        0.0       0.00       94.8       0.20       2.12        0.0
21:20             263        0.0         63       21.8      281.4       21.8       23.0       14.5     1017.8       31.8       16.2        0.0        0.0        0.0       0.00       95.1       0.20       2.12        0.0
21:22             263        0.0         63       21.8      281.4       21.8       23.0       14.4     1017.8       31.8       16.2        0.0        0.0        0.0       0.00       95.2       0.20       2.12        0.0
21:24             263        0.0         63       21.7      281.4       21.7       22.9       14.4     1017.9       31.8       16.2        0.0        0.0        0.0       0.00       95.5       0.20       2.12        0.0
21:26             263        0.0         63       21.7      281.4       21.7       22.9       14.3     1017.8       31.8       16.2        0.0        0.0        0.0       0.00       95.8       0.20       2.12        0.0
21:28             263        0.0         63       21.6      281.4       21.6       22.8       14.3     1017.9       31.8       16.2        0.0        0.0        0.0       0.00       96.1       0.20       2.12        0.0
21:30             263        0.0         63       21.6      281.4       21.6       22.7       14.2     1017.8       31.8       16.2        0.0        0.0        0.0       0.00       96.4       0.20       2.12        0.0
21:32             263        0.0         64       21.4      281.4       21.4       22.7       14.4     1017.8       31.8       16.2        0.0        0.0        0.0       0.00       96.8       0.20       2.12        0.0
21:34             263        0.0         64       21.3      281.4       21.3       22.6       14.3     1017.8       31.8       16.2        0.0        0.0        0.0       0.00       97.1       0.20       2.12        0.0
21:36             263        0.0         64       21.2      281.4       21.2       22.5       14.1     1017.7       31.8       16.2        0.0        0.0        0.0       0.00       97.5       0.20       2.12        0.0
21:38             263        0.0         65       21.1      281.4       21.1       22.4       14.3     1017.7       31.8       16.2        0.0        0.0        0.0       0.00       97.9       0.20       2.12        0.0
21:40             263        0.0         65       21.1      281.4       21.1       22.4       14.2     1017.6       31.8       16.2        0.0        0.0        0.0       0.00       98.3       0.20       2.12        0.0
21:42             263        0.0         65       21.0      281.4       21.0       22.3       14.2     1017.6       31.8       16.2        0.0        0.0        0.0       0.00       98.7       0.20       2.12        0.0
21:44             263        0.0         65       20.9      281.4       20.9       22.3       14.1     1017.6       31.8       16.2        0.0        0.0        0.0       0.00       99.2       0.20       2.12        0.0
21:46             263        0.0         65       20.9      281.4       20.9       22.2       14.1     1017.7       31.8       16.2        0.0        0.0        0.0       0.00       99.5       0.20       2.12        0.0
21:48             263        0.0         65       20.8      281.4       20.8       22.1       14.0     1017.6       31.8       16.2        0.0        0.0        0.0       0.00      100.1       0.20       2.12        0.0
21:50             263        0.0         65       20.9      281.4       20.9       22.2       14.1     1017.7       31.8       16.2        0.0        0.0        0.0       0.00      100.5       0.20       2.12        0.0
21:52             263        0.0         65       20.8      281.4       20.8       22.1       14.0     1017.7       31.8       16.2        0.0        0.0        0.0       0.00      101.0       0.20       2.12        0.0
21:54             262        0.0         66       20.8      281.4       20.8       22.2       14.3     1017.8       31.8       16.2        0.0        0.0        0.0       0.00      101.4       0.20       2.12        0.0
21:56             263        0.0         66       20.8      281.4       20.8       22.2       14.3     1017.8       31.8       16.2        0.0        0.0        0.0       0.00      101.9       0.20       2.12        0.0
21:58             262        0.0         66       20.8      281.4       20.8       22.2       14.3     1017.6       31.8       16.2        0.0        0.0        0.0       0.00      102.3       0.20       2.12        0.0
22:00             261        0.0         66       20.8      281.4       20.8       22.2       14.3     1017.6       31.8       16.2        0.0        0.0        0.0       0.00      102.8       0.20       2.12        0.0
22:02             261        0.0         65       20.8      281.4       20.8       22.1       14.0     1017.8       31.8       16.2        0.0        0.0        0.0       0.00      103.3       0.20       2.12        0.0
22:04             261        0.0         65       20.8      281.4       20.8       22.1       14.0     1017.7       31.8       16.2        0.0        0.0        0.0       0.00      103.8       0.20       2.12        0.0
22:06             261        0.0         65       20.7      281.4       20.7       22.0       13.9     1017.7       31.8       16.2        0.0        0.0        0.0       0.00      104.2       0.20       2.12        0.0
22:08             261        0.0         66       20.7      281.4       20.7       22.0       14.1     1017.7       31.8       16.2        0.0        0.0        0.0       0.00      104.7       0.20       2.12        0.0
22:09             261        0.0         66       20.6      281.4       20.6       22.0       14.0     1017.7       31.8       16.2        0.0        0.0        0.0       0.00      105.1       0.20       2.12        0.0
22:12             261        0.0         66       20.6      281.4       20.6       21.9       14.0     1017.7       31.8       16.2        0.0        0.0        0.0       0.00      105.6       0.20       2.12        0.0
22:14             261        0.0         66       20.5      281.4       20.5       21.9       13.9     1017.7       31.8       16.2        0.0        0.0        0.0       0.00      106.0       0.20       2.12        0.0
22:16             261        0.0         67       20.4      281.4       20.4       21.9       14.1     1017.7       31.8       16.2        0.0        0.0        0.0       0.00      106.4       0.20       2.12        0.0
22:18             261        0.0         66       20.4      281.4       20.4       21.8       13.8     1017.8       31.8       16.2        0.0        0.0        0.0       0.00      106.7       0.20       2.12        0.0
22:20             261        0.0         67       20.4      281.4       20.4       21.8       14.1     1017.6       31.8       16.2        0.0        0.0        0.0       0.00      107.0       0.20       2.12        0.0
22:22             261        0.0         67       20.3      281.4       20.3       21.8       14.0     1017.8       31.8       16.2        0.0        0.0        0.0       0.00      107.2       0.20       2.12        0.0
22:24             261        0.0         67       20.3      281.4       20.3       21.7       14.0     1017.8       31.8       16.2        0.0        0.0        0.0       0.00      107.6       0.20       2.12        0.0
22:26             261        0.0         67       20.2      281.4       20.2       21.7       13.9     1017.7       31.8       16.2        0.0        0.0        0.0       0.00      108.0       0.20       2.12        0.0
22:28             261        0.0         67       20.2      281.4       20.2       21.6       13.9     1017.8       31.8       16.2        0.0        0.0        0.0       0.00      108.4       0.20       2.12        0.0
22:30             260        0.0         68       20.1      281.4       20.1       21.6       14.0     1017.8       31.8       16.2        0.0        0.0        0.0       0.00      108.8       0.20       2.12        0.0
22:32             258        0.0         68       19.9      281.4       19.9       21.5       13.9     1017.8       31.8       16.2        0.0        0.0        0.0       0.00      109.4       0.20       2.12        0.0
22:34             256        0.0         68       19.8      281.4       19.8       21.3       13.8     1017.9       31.8       16.2        0.0        0.0        0.0       0.00      109.9       0.20       2.12        0.0
22:36             254        0.0         69       19.7      281.4       19.7       21.3       13.9     1017.8       31.8       16.2        0.0        0.0        0.0       0.00      110.4       0.20       2.12        0.0
22:38             254        0.0         69       19.6      281.4       19.6       21.1       13.7     1017.8       31.8       16.2        0.0        0.0        0.0       0.00      110.7       0.20       2.12        0.0
22:40             253        0.0         70       19.4      281.4       19.4       21.1       13.8     1017.8       31.8       16.2        0.0        0.0        0.0       0.00      111.2       0.20       2.12        0.0
22:42             253        0.0         71       19.3      281.4       19.3       21.0       13.9     1017.8       31.8       16.2        0.0        0.0        0.0       0.00      111.6       0.20       2.12        0.0
22:44             253        0.0         71       19.2      281.4       19.2       20.9       13.8     1017.7       31.8       16.2        0.0        0.0        0.0       0.00      112.0       0.20       2.12        0.0
22:46             252        0.0         72       19.1      281.4       19.1       20.9       13.9     1017.8       31.8       16.2        0.0        0.0        0.0       0.00      112.3       0.20       2.12        0.0
22:48             252        0.0         72       19.1      281.4       19.1       20.8       13.9     1017.8       31.8       16.2        0.0        0.0        0.0       0.00      112.7       0.20       2.12        0.0
22:50             252        0.0         73       18.9      281.4       18.9       20.8       14.0     1017.8       31.8       16.2        0.0        0.0        0.0       0.00      113.1       0.20       2.12        0.0
22:52             252        0.0         73       18.9      281.4       18.9       20.7       13.9     1017.8       31.8       16.2        0.0        0.0        0.0       0.00      113.5       0.20       2.12        0.0
22:54             252        0.0         74       18.8      281.4       18.8       20.7       14.1     1017.9       31.8       16.2        0.0        0.0        0.0       0.00      113.9       0.20       2.12        0.0
22:56             252        0.0         75       18.7      281.4       18.7       20.7       14.2     1017.8       31.8       16.2        0.0        0.0        0.0       0.00      114.3       0.20       2.12        0.0
22:58             250        0.0         75       18.6      281.4       18.6       20.6       14.1     1017.9       31.8       16.2        0.0        0.0        0.0       0.00      114.7       0.20       2.12        0.0
23:00             250        0.0         75       18.6      281.4       18.6       20.5       14.0     1017.7       31.8       16.2        0.0        0.0        0.0       0.00      115.1       0.20       2.12        0.0
23:02             250        0.0         76       18.5      281.4       18.5       20.6       14.2     1017.7       31.8       16.2        0.0        0.0        0.0       0.00      115.5       0.20       2.12        0.0
23:04             250        0.0         76       18.4      281.4       18.4       20.4       14.1     1017.8       31.8       16.2        0.0        0.0        0.0       0.00      115.9       0.20       2.12        0.0
23:06             248        0.0         77       18.3      281.4       18.3       20.5       14.2     1017.7       31.8       16.2        0.0        0.0        0.0       0.00      116.5       0.20       2.12        0.0
23:08             248        0.0         77       18.3      281.4       18.3       20.4       14.2     1017.8       31.8       16.2        0.0        0.0        0.0       0.00      116.9       0.20       2.12        0.0
23:10             248        0.0         77       18.2      281.4       18.2       20.4       14.1     1017.8       31.8       16.2        0.0        0.0        0.0       0.00      117.3       0.20       2.12        0.0
23:12             247        0.0         78       18.2      281.4       18.2       20.4       14.3     1017.9       31.8       16.2        0.0        0.0        0.0       0.00      117.6       0.20       2.12        0.0
23:14             247        0.0         78       18.1      281.4       18.1       20.3       14.2     1017.8       31.8       16.2        0.0        0.0        0.0       0.00      117.9       0.20       2.12        0.0
23:16             246        0.0         78       18.1      281.4       18.1       20.3       14.2     1017.8       31.8       16.2        0.0        0.0        0.0       0.00      118.4       0.20       2.12        0.0
23:18             246        0.0         79       18.1      281.4       18.1       20.3       14.4     1017.8       31.8       16.2        0.0        0.0        0.0       0.00      118.7       0.20       2.12        0.0
23:20             246        0.0         79       18.0      281.4       18.0       20.3       14.3     1017.8       31.8       16.2        0.0        0.0        0.0       0.00      119.1       0.20       2.12        0.0
23:22             246        0.0         79       17.9      281.4       17.9       20.2       14.3     1017.7       31.8       16.2        0.0        0.0        0.0       0.00      119.4       0.20       2.12        0.0
23:24             246        0.0         79       17.9      281.4       17.9       20.2       14.2     1017.8       31.8       16.2        0.0        0.0        0.0       0.00      119.8       0.20       2.12        0.0
23:26             246        0.0         80       17.9      281.4       17.9       20.2       14.4     1017.8       31.8       16.2        0.0        0.0        0.0       0.00      120.1       0.20       2.12        0.0
23:28             246        0.0         80       17.8      281.4       17.8       20.2       14.3     1017.8       31.8       16.2        0.0        0.0        0.0       0.00      120.5       0.20       2.12        0.0
23:30             246        0.0         81       17.8      281.4       17.8       20.3       14.5     1017.8       31.8       16.2        0.0        0.0        0.0       0.00      120.7       0.20       2.12        0.0
23:32             246        0.0         81       17.8      281.4       17.8       20.3       14.5     1017.9       31.8       16.2        0.0        0.0        0.0       0.00      121.0       0.20       2.12        0.0
23:34             246        0.0         81       17.8      281.4       17.8       20.2       14.5     1017.7       31.8       16.2        0.0        0.0        0.0       0.00      121.3       0.20       2.12        0.0
23:36             246        0.0         81       17.7      281.4       17.7       20.1       14.4     1017.8       31.8       16.2        0.0        0.0        0.0       0.00      121.6       0.20       2.12        0.0
23:38             246        0.0         81       17.7      281.4       17.7       20.1       14.4     1017.8       31.8       16.2        0.0        0.0        0.0       0.00      122.0       0.20       2.12        0.0
23:40             244        0.0         81       17.7      281.4       17.7       20.1       14.4     1017.8       31.8       16.2        0.0        0.0        0.0       0.00      122.5       0.20       2.12        0.0
23:42             244        0.0         82       17.6      281.4       17.6       20.1       14.5     1017.7       31.8       16.2        0.0        0.0        0.0       0.00      122.8       0.20       2.12        0.0
23:44             244        0.0         82       17.6      281.4       17.6       20.1       14.5     1017.7       31.8       16.2        0.0        0.0        0.0       0.00      123.1       0.20       2.12        0.0
23:46             244        0.0         82       17.6      281.4       17.6       20.1       14.5     1017.8       31.8       16.2        0.0        0.0        0.0       0.00      123.5       0.21       2.12        0.0
23:48             244        0.0         83       17.6      281.4       17.6       20.1       14.6     1017.8       31.8       16.2        0.0        0.0        0.0       0.00      123.9       0.21       2.12        0.0
23:50             244        0.0         83       17.5      281.4       17.5       20.1       14.6     1017.8       31.8       16.2        0.0        0.0        0.0       0.00      124.1       0.21       2.12        0.0
23:52             244        0.0         83       17.5      281.4       17.5       20.1       14.6     1017.8       31.8       16.2        0.0        0.0        0.0       0.00      124.5       0.21       2.12        0.0
23:54             244        0.0         83       17.4      281.4       17.4       20.0       14.5     1017.8       31.8       16.2        0.0        0.0        0.0       0.00      124.8       0.21       2.12        0.0
23:56             243        0.0         83       17.4      281.4       17.4       20.0       14.5     1017.8       31.8       16.2        0.0        0.0        0.0       0.00      125.2       0.21       2.12        0.0
23:58             242        0.0         83       17.4      281.4       17.4       20.0       14.5     1017.7       31.8       16.2        0.0        0.0        0.0       0.00      125.6       0.21       2.12        0.0


Detalle de hace 2 das:

9/10/20
Time         Wind Dir  Wind Gust   Humidity       Temp   Tot Rain Wind Chill Heat Index  Dew Point   Barom SL Temp Out H Temp Out L  DailyRain   HourRain   24HrRain   RainRate   Wind Run   Deg Heat   Deg Cool  MonthRain
                          km/hr          %         C         mm         C         C         C         mb         C         C         mm         mm         mm      mm/hr         km         C         C         mm
0:00              269        0.0         46       22.7      281.4       22.7       22.9       10.5     1018.9       22.7       22.7        0.0        0.0        0.0       0.00       94.3       0.03       3.61        0.0
0:02              269        0.0         47       22.6      281.4       22.6       22.9       10.7     1018.9       22.7       22.6        0.0        0.0        0.0       0.00        0.1       0.00       0.01        0.0
0:04              269        0.0         47       22.6      281.4       22.6       22.8       10.7     1018.9       22.7       22.6        0.0        0.0        0.0       0.00        0.3       0.00       0.01        0.0
0:06              269        0.0         47       22.6      281.4       22.6       22.8       10.7     1018.9       22.7       22.6        0.0        0.0        0.0       0.00        0.4       0.00       0.01        0.0
0:08              269        0.0         47       22.4      281.4       22.4       22.7       10.6     1018.9       22.7       22.4        0.0        0.0        0.0       0.00        0.5       0.00       0.01        0.0
0:10              269        0.0         47       22.4      281.4       22.4       22.7       10.5     1018.9       22.7       22.4        0.0        0.0        0.0       0.00        0.7       0.00       0.01        0.0
0:12              269        0.0         47       22.4      281.4       22.4       22.7       10.5     1018.9       22.7       22.4        0.0        0.0        0.0       0.00        0.8       0.00       0.01        0.0
0:14              269        0.0         47       22.3      281.4       22.3       22.6       10.5     1018.8       22.7       22.3        0.0        0.0        0.0       0.00        0.9       0.00       0.01        0.0
0:16              269        0.0         47       22.3      281.4       22.3       22.6       10.4     1018.9       22.7       22.3        0.0        0.0        0.0       0.00        1.1       0.00       0.01        0.0
0:18              269        0.0         48       22.2      281.4       22.2       22.6       10.7     1018.8       22.7       22.2        0.0        0.0        0.0       0.00        1.2       0.00       0.01        0.0
0:20              269        0.0         48       22.2      281.4       22.2       22.5       10.6     1018.8       22.7       22.2        0.0        0.0        0.0       0.00        1.3       0.00       0.01        0.0
0:22              269        0.0         48       22.1      281.4       22.1       22.5       10.6     1018.8       22.7       22.1        0.0        0.0        0.0       0.00        1.4       0.00       0.01        0.0
0:24              269        0.0         48       22.1      281.4       22.1       22.4       10.5     1018.8       22.7       22.1        0.0        0.0        0.0       0.00        1.5       0.00       0.01        0.0
0:26              269        0.0         48       22.0      281.4       22.0       22.3       10.5     1018.8       22.7       22.0        0.0        0.0        0.0       0.00        1.6       0.00       0.01        0.0
0:28              269        0.0         48       22.0      281.4       22.0       22.3       10.5     1018.8       22.7       22.0        0.0        0.0        0.0       0.00        1.8       0.00       0.01        0.0
0:30              269        0.0         48       22.0      281.4       22.0       22.3       10.5     1018.8       22.7       22.0        0.0        0.0        0.0       0.00        1.9       0.00       0.01        0.0
0:32              269        0.0         48       22.0      281.4       22.0       22.3       10.5     1018.8       22.7       22.0        0.0        0.0        0.0       0.00        2.1       0.00       0.01        0.0
0:34              269        0.0         48       22.0      281.4       22.0       22.3       10.5     1018.7       22.7       22.0        0.0        0.0        0.0       0.00        2.2       0.00       0.01        0.0
0:36              269        0.0         48       22.1      281.4       22.1       22.4       10.5     1018.8       22.7       22.0        0.0        0.0        0.0       0.00        2.3       0.00       0.01        0.0
0:38              269        0.0         48       22.0      281.4       22.0       22.3       10.5     1018.7       22.7       22.0        0.0        0.0        0.0       0.00        2.5       0.00       0.01        0.0
0:40              269        0.0         48       22.1      281.4       22.1       22.4       10.5     1018.7       22.7       22.0        0.0        0.0        0.0       0.00        2.6       0.00       0.01        0.0
0:42              269        0.0         48       22.1      281.4       22.1       22.4       10.5     1018.6       22.7       22.0        0.0        0.0        0.0       0.00        2.7       0.00       0.01        0.0
0:44              269        0.0         48       22.0      281.4       22.0       22.3       10.5     1018.6       22.7       22.0        0.0        0.0        0.0       0.00        2.9       0.00       0.01        0.0
0:46              269        0.0         48       22.0      281.4       22.0       22.3       10.5     1018.6       22.7       22.0        0.0        0.0        0.0       0.00        3.0       0.00       0.01        0.0
0:48              269        0.0         48       22.0      281.4       22.0       22.3       10.5     1018.6       22.7       22.0        0.0        0.0        0.0       0.00        3.1       0.00       0.01        0.0
0:50              269        0.0         48       22.0      281.4       22.0       22.3       10.5     1018.5       22.7       22.0        0.0        0.0        0.0       0.00        3.3       0.00       0.01        0.0
0:52              269        0.0         48       22.0      281.4       22.0       22.3       10.5     1018.5       22.7       21.9        0.0        0.0        0.0       0.00        3.4       0.00       0.01        0.0
0:54              269        0.0         48       21.9      281.4       21.9       22.3       10.4     1018.5       22.7       21.9        0.0        0.0        0.0       0.00        3.6       0.00       0.01        0.0
0:56              269        0.0         48       21.9      281.4       21.9       22.3       10.4     1018.4       22.7       21.9        0.0        0.0        0.0       0.00        3.7       0.00       0.01        0.0
0:58              269        0.0         48       21.9      281.4       21.9       22.3       10.4     1018.4       22.7       21.9        0.0        0.0        0.0       0.00        3.9       0.00       0.01        0.0
1:00              269        0.0         48       21.9      281.4       21.9       22.3       10.4     1018.4       22.7       21.9        0.0        0.0        0.0       0.00        4.0       0.00       0.01        0.0
1:02              269        0.0         49       21.9      281.4       21.9       22.3       10.8     1018.4       22.7       21.9        0.0        0.0        0.0       0.00        4.1       0.00       0.01        0.0
1:04              269        0.0         49       21.9      281.4       21.9       22.3       10.8     1018.4       22.7       21.9        0.0        0.0        0.0       0.00        4.3       0.00       0.01        0.0
1:06              269        0.0         49       21.9      281.4       21.9       22.3       10.8     1018.4       22.7       21.9        0.0        0.0        0.0       0.00        4.4       0.00       0.01        0.0
1:08              269        0.0         48       21.9      281.4       21.9       22.3       10.4     1018.4       22.7       21.9        0.0        0.0        0.0       0.00        4.6       0.00       0.01        0.0
1:10              269        0.0         49       21.9      281.4       21.9       22.3       10.8     1018.5       22.7       21.9        0.0        0.0        0.0       0.00        4.7       0.00       0.01        0.0
1:12              269        0.0         49       21.9      281.4       21.9       22.3       10.8     1018.5       22.7       21.9        0.0        0.0        0.0       0.00        4.8       0.00       0.01        0.0
1:14              269        0.0         49       21.9      281.4       21.9       22.3       10.8     1018.4       22.7       21.9        0.0        0.0        0.0       0.00        5.0       0.00       0.01        0.0
1:16              269        0.0         49       21.9      281.4       21.9       22.3       10.8     1018.5       22.7       21.9        0.0        0.0        0.0       0.00        5.1       0.00       0.01        0.0
1:18              269        0.0         49       21.9      281.4       21.9       22.3       10.8     1018.6       22.7       21.9        0.0        0.0        0.0       0.00        5.2       0.00       0.01        0.0
1:20              269        0.0         49       21.9      281.4       21.9       22.3       10.7     1018.7       22.7       21.9        0.0        0.0        0.0       0.00        5.4       0.00       0.01        0.0
1:22              269        0.0         49       21.9      281.4       21.9       22.3       10.7     1018.6       22.7       21.9        0.0        0.0        0.0       0.00        5.5       0.00       0.01        0.0
1:24              269        0.0         49       21.9      281.4       21.9       22.3       10.7     1018.7       22.7       21.9        0.0        0.0        0.0       0.00        5.7       0.00       0.01        0.0
1:26              269        0.0         49       21.9      281.4       21.9       22.3       10.8     1018.7       22.7       21.9        0.0        0.0        0.0       0.00        5.8       0.00       0.01        0.0
1:28              269        0.0         49       21.9      281.4       21.9       22.3       10.8     1018.7       22.7       21.9        0.0        0.0        0.0       0.00        6.0       0.00       0.01        0.0
1:29              269        0.0         49       21.9      281.4       21.9       22.3       10.8     1018.6       22.7       21.9        0.0        0.0        0.0       0.00        6.1       0.00       0.01        0.0
1:32              269        0.0         49       21.9      281.4       21.9       22.3       10.8     1018.7       22.7       21.9        0.0        0.0        0.0       0.00        6.3       0.00       0.01        0.0
1:34              269        0.0         49       22.0      281.4       22.0       22.4       10.8     1018.6       22.7       21.9        0.0        0.0        0.0       0.00        6.4       0.00       0.01        0.0
1:36              269        0.0         49       21.9      281.4       21.9       22.3       10.8     1018.6       22.7       21.9        0.0        0.0        0.0       0.00        6.5       0.00       0.01        0.0
1:38              269        0.0         49       21.9      281.4       21.9       22.3       10.8     1018.6       22.7       21.9        0.0        0.0        0.0       0.00        6.7       0.00       0.01        0.0
1:40              269        0.0         49       21.9      281.4       21.9       22.3       10.8     1018.6       22.7       21.9        0.0        0.0        0.0       0.00        6.8       0.00       0.01        0.0
1:42              269        0.0         49       21.9      281.4       21.9       22.3       10.7     1018.5       22.7       21.9        0.0        0.0        0.0       0.00        7.0       0.00       0.01        0.0
1:44              269        0.0         49       21.8      281.4       21.8       22.2       10.7     1018.6       22.7       21.8        0.0        0.0        0.0       0.00        7.1       0.00       0.01        0.0
1:46              269        0.0         49       21.8      281.4       21.8       22.2       10.6     1018.6       22.7       21.8        0.0        0.0        0.0       0.00        7.2       0.00       0.01        0.0
1:48              269        0.0         49       21.8      281.4       21.8       22.2       10.6     1018.6       22.7       21.8        0.0        0.0        0.0       0.00        7.4       0.00       0.01        0.0
1:50              269        0.0         49       21.7      281.4       21.7       22.1       10.6     1018.7       22.7       21.7        0.0        0.0        0.0       0.00        7.5       0.00       0.01        0.0
1:52              269        0.0         49       21.7      281.4       21.7       22.1       10.5     1018.7       22.7       21.7        0.0        0.0        0.0       0.00        7.6       0.00       0.01        0.0
1:54              269        0.0         50       21.6      281.4       21.6       22.1       10.8     1018.8       22.7       21.6        0.0        0.0        0.0       0.00        7.7       0.00       0.01        0.0
1:56              269        0.0         50       21.6      281.4       21.6       22.1       10.8     1018.8       22.7       21.6        0.0        0.0        0.0       0.00        7.8       0.00       0.01        0.0
1:58              269        0.0         50       21.6      281.4       21.6       22.1       10.8     1018.7       22.7       21.6        0.0        0.0        0.0       0.00        7.9       0.00       0.01        0.0
2:00              269        0.0         50       21.6      281.4       21.6       22.0       10.7     1018.8       22.7       21.6        0.0        0.0        0.0       0.00        8.0       0.00       0.01        0.0
2:02              269        0.0         50       21.6      281.4       21.6       22.0       10.7     1018.7       22.7       21.6        0.0        0.0        0.0       0.00        8.1       0.00       0.01        0.0
2:04              269        0.0         50       21.6      281.4       21.6       22.0       10.7     1018.8       22.7       21.6        0.0        0.0        0.0       0.00        8.1       0.00       0.01        0.0
2:06              269        0.0         50       21.6      281.4       21.6       22.1       10.8     1018.7       22.7       21.6        0.0        0.0        0.0       0.00        8.1       0.00       0.01        0.0
2:08              269        0.0         50       21.6      281.4       21.6       22.1       10.8     1018.7       22.7       21.6        0.0        0.0        0.0       0.00        8.1       0.00       0.01        0.0
2:10              269        0.0         50       21.6      281.4       21.6       22.1       10.8     1018.7       22.7       21.6        0.0        0.0        0.0       0.00        8.1       0.00       0.01        0.0
2:12              269        0.0         51       21.6      281.4       21.6       22.1       11.0     1018.8       22.7       21.6        0.0        0.0        0.0       0.00        8.2       0.00       0.01        0.0
2:14              269        0.0         52       21.6      281.4       21.6       22.1       11.3     1018.6       22.7       21.6        0.0        0.0        0.0       0.00        8.3       0.00       0.01        0.0
2:16              269        0.0         52       21.5      281.4       21.5       22.1       11.2     1018.7       22.7       21.5        0.0        0.0        0.0       0.00        8.3       0.00       0.01        0.0
2:18              269        0.0         52       21.4      281.4       21.4       21.9       11.1     1018.7       22.7       21.4        0.0        0.0        0.0       0.00        8.4       0.00       0.01        0.0
2:20              269        0.0         53       21.3      281.4       21.3       21.9       11.3     1018.8       22.7       21.3        0.0        0.0        0.0       0.00        8.4       0.00       0.01        0.0
2:22              269        0.0         53       21.2      281.4       21.2       21.8       11.3     1018.9       22.7       21.2        0.0        0.0        0.0       0.00        8.4       0.00       0.01        0.0
2:24              269        0.0         53       21.1      281.4       21.1       21.7       11.2     1018.7       22.7       21.1        0.0        0.0        0.0       0.00        8.4       0.00       0.01        0.0
2:26              269        0.0         54       20.9      281.4       20.9       21.6       11.3     1018.7       22.7       20.9        0.0        0.0        0.0       0.00        8.4       0.00       0.01        0.0
2:28              270        0.0         54       20.8      281.4       20.8       21.5       11.2     1018.5       22.7       20.8        0.0        0.0        0.0       0.00        8.5       0.00       0.01        0.0
2:30              269        0.0         54       20.7      281.4       20.7       21.3       11.0     1018.7       22.7       20.7        0.0        0.0        0.0       0.00        8.6       0.00       0.01        0.0
2:32              269        0.0         53       20.6      281.4       20.6       21.2       10.7     1018.8       22.7       20.6        0.0        0.0        0.0       0.00        8.7       0.00       0.01        0.0
2:34              269        0.0         53       20.4      281.4       20.4       21.1       10.6     1018.7       22.7       20.4        0.0        0.0        0.0       0.00        8.8       0.00       0.01        0.0
2:36              269        0.0         53       20.3      281.4       20.3       20.9       10.4     1018.7       22.7       20.3        0.0        0.0        0.0       0.00        8.9       0.00       0.01        0.0
2:38              269        0.0         53       20.3      281.4       20.3       20.9       10.4     1018.7       22.7       20.3        0.0        0.0        0.0       0.00        9.0       0.00       0.01        0.0
2:40              269        0.0         53       20.2      281.4       20.2       20.8       10.3     1018.6       22.7       20.2        0.0        0.0        0.0       0.00        9.0       0.00       0.01        0.0
2:42              269        0.0         53       20.2      281.4       20.2       20.8       10.3     1018.7       22.7       20.2        0.0        0.0        0.0       0.00        9.0       0.00       0.01        0.0
2:44              269        0.0         53       20.1      281.4       20.1       20.7       10.2     1018.6       22.7       20.1        0.0        0.0        0.0       0.00        9.1       0.00       0.01        0.0
2:46              269        0.0         53       20.1      281.4       20.1       20.7       10.2     1018.7       22.7       20.1        0.0        0.0        0.0       0.00        9.2       0.00       0.01        0.0
2:48              269        0.0         53       20.0      281.4       20.0       20.6       10.1     1018.7       22.7       20.0        0.0        0.0        0.0       0.00        9.2       0.00       0.01        0.0
2:50              269        0.0         53       19.9      281.4       19.9       20.6       10.1     1018.6       22.7       19.9        0.0        0.0        0.0       0.00        9.2       0.00       0.01        0.0
2:52              269        0.0         53       19.9      281.4       19.9       20.6       10.1     1018.6       22.7       19.9        0.0        0.0        0.0       0.00        9.3       0.00       0.01        0.0
2:54              269        0.0         53       19.9      281.4       19.9       20.5       10.0     1018.6       22.7       19.9        0.0        0.0        0.0       0.00        9.3       0.00       0.01        0.0
2:56              269        0.0         53       19.8      281.4       19.8       20.4       10.0     1018.5       22.7       19.8        0.0        0.0        0.0       0.00        9.3       0.00       0.01        0.0
2:58              269        0.0         53       19.8      281.4       19.8       20.4       10.0     1018.6       22.7       19.8        0.0        0.0        0.0       0.00        9.4       0.00       0.01        0.0
3:00              269        0.0         53       19.8      281.4       19.8       20.4        9.9     1018.5       22.7       19.8        0.0        0.0        0.0       0.00        9.4       0.00       0.01        0.0
3:02              269        0.0         54       19.7      281.4       19.7       20.4       10.2     1018.5       22.7       19.7        0.0        0.0        0.0       0.00        9.4       0.00       0.01        0.0
3:04              269        0.0         54       19.7      281.4       19.7       20.4       10.2     1018.5       22.7       19.7        0.0        0.0        0.0       0.00        9.5       0.00       0.01        0.0
3:06              269        0.0         54       19.6      281.4       19.6       20.3       10.1     1018.5       22.7       19.6        0.0        0.0        0.0       0.00        9.5       0.00       0.01        0.0
3:08              269        0.0         54       19.6      281.4       19.6       20.3       10.1     1018.6       22.7       19.6        0.0        0.0        0.0       0.00        9.6       0.00       0.01        0.0
3:10              269        0.0         54       19.6      281.4       19.6       20.2       10.0     1018.6       22.7       19.6        0.0        0.0        0.0       0.00        9.6       0.00       0.01        0.0
3:12              269        0.0         54       19.6      281.4       19.6       20.2       10.0     1018.6       22.7       19.5        0.0        0.0        0.0       0.00        9.7       0.00       0.01        0.0
3:14              269        0.0         54       19.5      281.4       19.5       20.2       10.0     1018.6       22.7       19.5        0.0        0.0        0.0       0.00        9.7       0.00       0.01        0.0
3:16              269        0.0         54       19.5      281.4       19.5       20.2       10.0     1018.5       22.7       19.4        0.0        0.0        0.0       0.00        9.8       0.00       0.01        0.0
3:18              269        0.0         54       19.4      281.4       19.4       20.1        9.9     1018.5       22.7       19.4        0.0        0.0        0.0       0.00        9.8       0.00       0.01        0.0
3:20              269        0.0         54       19.4      281.4       19.4       20.0        9.9     1018.5       22.7       19.4        0.0        0.0        0.0       0.00        9.9       0.00       0.01        0.0
3:22              269        0.0         55       19.4      281.4       19.4       20.1       10.1     1018.5       22.7       19.4        0.0        0.0        0.0       0.00       10.0       0.00       0.01        0.0
3:24              269        0.0         55       19.3      281.4       19.3       20.0       10.1     1018.5       22.7       19.3        0.0        0.0        0.0       0.00       10.1       0.00       0.01        0.0
3:26              269        0.0         55       19.3      281.4       19.3       20.0       10.1     1018.4       22.7       19.3        0.0        0.0        0.0       0.00       10.1       0.00       0.01        0.0
3:28              269        0.0         55       19.3      281.4       19.3       20.0       10.0     1018.5       22.7       19.3        0.0        0.0        0.0       0.00       10.2       0.00       0.01        0.0
3:30              269        0.0         55       19.2      281.4       19.2       19.9       10.0     1018.5       22.7       19.2        0.0        0.0        0.0       0.00       10.3       0.00       0.01        0.0
3:32              269        0.0         55       19.2      281.4       19.2       19.9       10.0     1018.4       22.7       19.2        0.0        0.0        0.0       0.00       10.4       0.00       0.01        0.0
3:34              269        0.0         55       19.2      281.4       19.2       19.9       10.0     1018.4       22.7       19.2        0.0        0.0        0.0       0.00       10.4       0.00       0.01        0.0
3:36              269        0.0         55       19.2      281.4       19.2       19.9        9.9     1018.4       22.7       19.2        0.0        0.0        0.0       0.00       10.5       0.00       0.01        0.0
3:38              269        0.0         55       19.1      281.4       19.1       19.8        9.9     1018.3       22.7       19.1        0.0        0.0        0.0       0.00       10.6       0.00       0.01        0.0
3:40              269        0.0         55       19.1      281.4       19.1       19.8        9.9     1018.4       22.7       19.1        0.0        0.0        0.0       0.00       10.7       0.00       0.01        0.0
3:42              269        0.0         56       19.1      281.4       19.1       19.8       10.1     1018.4       22.7       19.1        0.0        0.0        0.0       0.00       10.7       0.00       0.01        0.0
3:44              269        0.0         56       19.1      281.4       19.1       19.8       10.1     1018.4       22.7       19.0        0.0        0.0        0.0       0.00       10.8       0.00       0.01        0.0
3:46              269        0.0         56       19.0      281.4       19.0       19.8       10.0     1018.5       22.7       19.0        0.0        0.0        0.0       0.00       10.9       0.00       0.01        0.0
3:48              269        0.0         56       18.9      281.4       18.9       19.7       10.0     1018.5       22.7       18.9        0.0        0.0        0.0       0.00       11.0       0.00       0.01        0.0
3:50              269        0.0         56       18.9      281.4       18.9       19.7        9.9     1018.4       22.7       18.9        0.0        0.0        0.0       0.00       11.1       0.00       0.01        0.0
3:52              269        0.0         56       18.8      281.4       18.8       19.6        9.9     1018.5       22.7       18.8        0.0        0.0        0.0       0.00       11.2       0.00       0.01        0.0
3:54              269        0.0         56       18.8      281.4       18.8       19.6        9.8     1018.5       22.7       18.8        0.0        0.0        0.0       0.00       11.3       0.00       0.01        0.0
3:56              270        0.0         56       18.7      281.4       18.7       19.5        9.8     1018.4       22.7       18.7        0.0        0.0        0.0       0.00       11.4       0.00       0.01        0.0
3:58              270        0.0         57       18.7      281.4       18.7       19.5       10.0     1018.4       22.7       18.7        0.0        0.0        0.0       0.00       11.6       0.00       0.01        0.0
4:00              271        0.0         57       18.7      281.4       18.7       19.5       10.0     1018.6       22.7       18.7        0.0        0.0        0.0       0.00       11.7       0.00       0.01        0.0
4:02              271        0.0         57       18.6      281.4       18.6       19.4        9.9     1018.5       22.7       18.6        0.0        0.0        0.0       0.00       11.8       0.00       0.01        0.0
4:04              271        0.0         57       18.6      281.4       18.6       19.4        9.9     1018.5       22.7       18.6        0.0        0.0        0.0       0.00       12.0       0.00       0.01        0.0
4:06              271        0.0         57       18.6      281.4       18.6       19.4        9.9     1018.6       22.7       18.6        0.0        0.0        0.0       0.00       12.2       0.00       0.01        0.0
4:08              271        0.0         57       18.5      281.4       18.5       19.3        9.8     1018.5       22.7       18.5        0.0        0.0        0.0       0.00       12.3       0.00       0.01        0.0
4:10              277        0.0         57       18.5      281.4       18.5       19.3        9.8     1018.5       22.7       18.5        0.0        0.0        0.0       0.00       12.6       0.00       0.01        0.0
4:11              279        0.0         58       18.4      281.4       18.4       19.3       10.0     1018.5       22.7       18.4        0.0        0.0        0.0       0.00       12.7       0.00       0.01        0.0
4:14              279        0.0         58       18.4      281.4       18.4       19.3       10.0     1018.5       22.7       18.4        0.0        0.0        0.0       0.00       12.9       0.00       0.01        0.0
4:16              279        0.0         58       18.3      281.4       18.3       19.2        9.9     1018.5       22.7       18.3        0.0        0.0        0.0       0.00       13.0       0.00       0.01        0.0
4:18              279        0.0         58       18.3      281.4       18.3       19.2        9.9     1018.5       22.7       18.3        0.0        0.0        0.0       0.00       13.2       0.00       0.01        0.0
4:20              281        0.0         58       18.2      281.4       18.2       19.1        9.8     1018.5       22.7       18.2        0.0        0.0        0.0       0.00       13.4       0.00       0.01        0.0
4:22              283        0.0         58       18.2      281.4       18.2       19.1        9.8     1018.5       22.7       18.2        0.0        0.0        0.0       0.00       13.6       0.00       0.01        0.0
4:24              288        0.0         59       18.1      281.4       18.1       19.1       10.0     1018.5       22.7       18.1        0.0        0.0        0.0       0.00       13.9       0.00       0.01        0.0
4:26              288        0.0         59       18.1      281.4       18.1       19.1       10.0     1018.4       22.7       18.1        0.0        0.0        0.0       0.00       14.1       0.00       0.01        0.0
4:27              290        0.0         59       18.1      281.4       18.1       19.0        9.9     1018.4       22.7       18.1        0.0        0.0        0.0       0.00       14.3       0.00       0.01        0.0
4:30              292        0.0         59       18.1      281.4       18.1       19.0        9.9     1018.5       22.7       18.0        0.0        0.0        0.0       0.00       14.5       0.00       0.01        0.0
4:32              292        0.0         59       18.0      281.4       18.0       18.9        9.9     1018.6       22.7       18.0        0.0        0.0        0.0       0.00       14.7       0.00       0.01        0.0
4:34              292        0.0         59       18.0      281.4       18.0       18.9        9.9     1018.6       22.7       18.0        0.0        0.0        0.0       0.00       14.9       0.00       0.01        0.0
4:36              293        0.0         59       17.9      281.4       17.9       18.9        9.8     1018.5       22.7       17.9        0.0        0.0        0.0       0.00       15.1       0.00       0.01        0.0
4:38              292        0.0         59       17.9      281.4       17.9       18.9        9.8     1018.6       22.7       17.9        0.0        0.0        0.0       0.00       15.3       0.00       0.01        0.0
4:40              293        0.0         59       17.9      281.4       17.9       18.9        9.8     1018.6       22.7       17.9        0.0        0.0        0.0       0.00       15.5       0.00       0.01        0.0
4:42              293        0.0         59       17.9      281.4       17.9       18.9        9.8     1018.6       22.7       17.9        0.0        0.0        0.0       0.00       15.7       0.00       0.01        0.0
4:44              294        0.0         59       17.9      281.4       17.9       18.9        9.8     1018.5       22.7       17.9        0.0        0.0        0.0       0.00       15.8       0.00       0.01        0.0
4:46              294        0.0         59       17.9      281.4       17.9       18.8        9.8     1018.5       22.7       17.9        0.0        0.0        0.0       0.00       16.0       0.00       0.01        0.0
4:48              294        0.0         60       17.9      281.4       17.9       18.9       10.0     1018.5       22.7       17.9        0.0        0.0        0.0       0.00       16.2       0.00       0.01        0.0
4:50              294        0.0         60       17.9      281.4       17.9       18.9       10.0     1018.6       22.7       17.9        0.0        0.0        0.0       0.00       16.4       0.00       0.01        0.0
4:52              294        0.0         60       17.8      281.4       17.8       18.8       10.0     1018.6       22.7       17.8        0.0        0.0        0.0       0.00       16.6       0.00       0.01        0.0
4:54              294        0.0         60       17.8      281.4       17.8       18.8       10.0     1018.6       22.7       17.8        0.0        0.0        0.0       0.00       16.8       0.00       0.01        0.0
4:56              294        0.0         60       17.8      281.4       17.8       18.8       10.0     1018.7       22.7       17.8        0.0        0.0        0.0       0.00       17.0       0.00       0.01        0.0
4:58              306        0.0         60       17.8      281.4       17.8       18.8       10.0     1018.6       22.7       17.8        0.0        0.0        0.0       0.00       17.3       0.00       0.01        0.0
5:00              309        0.0         60       17.8      281.4       17.8       18.8        9.9     1018.7       22.7       17.8        0.0        0.0        0.0       0.00       17.6       0.00       0.01        0.0
5:02              311        0.0         60       17.8      281.4       17.8       18.8        9.9     1018.6       22.7       17.8        0.0        0.0        0.0       0.00       17.8       0.00       0.01        0.0
5:04              311        0.0         60       17.7      281.4       17.7       18.7        9.9     1018.6       22.7       17.7        0.0        0.0        0.0       0.00       18.0       0.00       0.01        0.0
5:06              311        0.0         60       17.7      281.4       17.7       18.7        9.9     1018.7       22.7       17.7        0.0        0.0        0.0       0.00       18.2       0.00       0.01        0.0
5:08              311        0.0         60       17.7      281.4       17.7       18.7        9.8     1018.7       22.7       17.7        0.0        0.0        0.0       0.00       18.4       0.00       0.01        0.0
5:10              311        0.0         61       17.6      281.4       17.6       18.7       10.0     1018.7       22.7       17.6        0.0        0.0        0.0       0.00       18.6       0.00       0.01        0.0
5:12              311        0.0         61       17.6      281.4       17.6       18.7       10.0     1018.6       22.7       17.6        0.0        0.0        0.0       0.00       18.8       0.00       0.01        0.0
5:14              312        0.0         61       17.6      281.4       17.6       18.6       10.0     1018.8       22.7       17.6        0.0        0.0        0.0       0.00       19.0       0.00       0.01        0.0
5:16              312        0.0         61       17.5      281.4       17.5       18.6        9.9     1018.7       22.7       17.5        0.0        0.0        0.0       0.00       19.2       0.01       0.01        0.0
5:18              314        0.0         61       17.5      281.4       17.5       18.6        9.9     1018.8       22.7       17.5        0.0        0.0        0.0       0.00       19.5       0.01       0.01        0.0
5:20              315        0.0         61       17.4      281.4       17.4       18.5        9.9     1018.7       22.7       17.4        0.0        0.0        0.0       0.00       19.7       0.01       0.01        0.0
5:22              316        0.0         61       17.4      281.4       17.4       18.5        9.9     1018.9       22.7       17.4        0.0        0.0        0.0       0.00       19.9       0.01       0.01        0.0
5:24              315        0.0         61       17.4      281.4       17.4       18.5        9.8     1018.9       22.7       17.4        0.0        0.0        0.0       0.00       20.1       0.01       0.01        0.0
5:26              316        0.0         61       17.3      281.4       17.3       18.4        9.7     1018.9       22.7       17.3        0.0        0.0        0.0       0.00       20.3       0.01       0.01        0.0
5:28              316        0.0         61       17.3      281.4       17.3       18.4        9.7     1018.9       22.7       17.3        0.0        0.0        0.0       0.00       20.5       0.01       0.01        0.0
5:30              315        0.0         62       17.3      281.4       17.3       18.4        9.9     1018.9       22.7       17.3        0.0        0.0        0.0       0.00       20.7       0.01       0.01        0.0
5:32              316        0.0         62       17.3      281.4       17.3       18.4        9.9     1018.9       22.7       17.3        0.0        0.0        0.0       0.00       20.9       0.02       0.01        0.0
5:34              316        0.0         62       17.2      281.4       17.2       18.3        9.9     1018.9       22.7       17.2        0.0        0.0        0.0       0.00       21.0       0.02       0.01        0.0
5:36              316        0.0         62       17.2      281.4       17.2       18.3        9.9     1018.9       22.7       17.2        0.0        0.0        0.0       0.00       21.2       0.02       0.01        0.0
5:37              316        0.0         62       17.2      281.4       17.2       18.3        9.8     1018.9       22.7       17.2        0.0        0.0        0.0       0.00       21.4       0.02       0.01        0.0
5:40              316        0.0         62       17.2      281.4       17.2       18.3        9.8     1018.9       22.7       17.2        0.0        0.0        0.0       0.00       21.6       0.02       0.01        0.0
5:42              316        0.0         62       17.1      281.4       17.1       18.2        9.8     1018.9       22.7       17.1        0.0        0.0        0.0       0.00       21.7       0.02       0.01        0.0
5:44              316        0.0         62       17.1      281.4       17.1       18.2        9.8     1018.9       22.7       17.1        0.0        0.0        0.0       0.00       21.8       0.02       0.01        0.0
5:46              316        0.0         62       17.1      281.4       17.1       18.2        9.8     1019.0       22.7       17.1        0.0        0.0        0.0       0.00       21.9       0.02       0.01        0.0
5:48              316        0.0         62       17.1      281.4       17.1       18.2        9.7     1019.0       22.7       17.1        0.0        0.0        0.0       0.00       22.0       0.02       0.01        0.0
5:50              315        0.0         62       17.1      281.4       17.1       18.2        9.7     1018.9       22.7       17.1        0.0        0.0        0.0       0.00       22.2       0.02       0.01        0.0
5:52              316        0.0         63       17.1      281.4       17.1       18.2       10.0     1019.0       22.7       17.1        0.0        0.0        0.0       0.00       22.3       0.02       0.01        0.0
5:54              316        0.0         63       17.1      281.4       17.1       18.2       10.0     1018.9       22.7       17.1        0.0        0.0        0.0       0.00       22.4       0.02       0.01        0.0
5:56              316        0.0         63       17.0      281.4       17.0       18.2        9.9     1018.9       22.7       17.0        0.0        0.0        0.0       0.00       22.5       0.02       0.01        0.0
5:58              316        0.0         63       17.0      281.4       17.0       18.2        9.9     1018.9       22.7       17.0        0.0        0.0        0.0       0.00       22.6       0.02       0.01        0.0
6:00              316        0.0         63       17.0      281.4       17.0       18.2        9.9     1018.9       22.7       17.0        0.0        0.0        0.0       0.00       22.8       0.02       0.01        0.0
6:02              316        0.0         63       17.0      281.4       17.0       18.2        9.9     1018.9       22.7       17.0        0.0        0.0        0.0       0.00       22.9       0.03       0.01        0.0
6:04              316        0.0         63       17.0      281.4       17.0       18.2        9.9     1018.9       22.7       16.9        0.0        0.0        0.0       0.00       23.1       0.03       0.01        0.0
6:06              316        0.0         63       16.9      281.4       16.9       18.1        9.9     1018.9       22.7       16.9        0.0        0.0        0.0       0.00       23.3       0.03       0.01        0.0
6:08              316        0.0         63       16.9      281.4       16.9       18.1        9.9     1019.0       22.7       16.9        0.0        0.0        0.0       0.00       23.5       0.03       0.01        0.0
6:10              316        0.0         63       16.9      281.4       16.9       18.1        9.9     1019.0       22.7       16.9        0.0        0.0        0.0       0.00       23.8       0.03       0.01        0.0
6:12              316        0.0         63       16.9      281.4       16.9       18.1        9.9     1018.9       22.7       16.9        0.0        0.0        0.0       0.00       24.0       0.03       0.01        0.0
6:14              316        0.0         63       16.9      281.4       16.9       18.1        9.8     1018.9       22.7       16.9        0.0        0.0        0.0       0.00       24.1       0.03       0.01        0.0
6:16              316        0.0         63       16.9      281.4       16.9       18.1        9.8     1019.0       22.7       16.9        0.0        0.0        0.0       0.00       24.2       0.05       0.01        0.0
6:18              316        0.0         63       16.9      281.4       16.9       18.1        9.8     1019.0       22.7       16.8        0.0        0.0        0.0       0.00       24.4       0.05       0.01        0.0
6:20              316        0.0         63       16.8      281.4       16.8       18.0        9.8     1019.1       22.7       16.8        0.0        0.0        0.0       0.00       24.6       0.05       0.01        0.0
6:22              316        0.0         63       16.8      281.4       16.8       18.0        9.7     1019.1       22.7       16.8        0.0        0.0        0.0       0.00       24.7       0.05       0.01        0.0
6:24              316        0.0         64       16.8      281.4       16.8       18.0        9.9     1019.0       22.7       16.8        0.0        0.0        0.0       0.00       24.8       0.05       0.01        0.0
6:26              316        0.0         64       16.8      281.4       16.8       18.0        9.9     1019.1       22.7       16.8        0.0        0.0        0.0       0.00       24.8       0.05       0.01        0.0
6:28              316        0.0         64       16.7      281.4       16.7       18.0        9.9     1019.0       22.7       16.7        0.0        0.0        0.0       0.00       25.0       0.05       0.01        0.0
6:29              316        0.0         64       16.7      281.4       16.7       18.0        9.9     1019.0       22.7       16.7        0.0        0.0        0.0       0.00       25.1       0.05       0.01        0.0
6:32              316        0.0         64       16.7      281.4       16.7       18.0        9.9     1019.0       22.7       16.7        0.0        0.0        0.0       0.00       25.3       0.06       0.01        0.0
6:34              316        0.0         64       16.7      281.4       16.7       18.0        9.9     1019.2       22.7       16.7        0.0        0.0        0.0       0.00       25.4       0.06       0.01        0.0
6:36              316        0.0         64       16.7      281.4       16.7       17.9        9.8     1019.2       22.7       16.7        0.0        0.0        0.0       0.00       25.6       0.06       0.01        0.0
6:38              316        0.0         64       16.7      281.4       16.7       17.9        9.8     1019.0       22.7       16.7        0.0        0.0        0.0       0.00       25.8       0.06       0.01        0.0
6:40              316        0.0         64       16.7      281.4       16.7       17.9        9.8     1019.1       22.7       16.7        0.0        0.0        0.0       0.00       25.9       0.06       0.01        0.0
6:42              316        0.0         64       16.6      281.4       16.6       17.9        9.8     1019.1       22.7       16.6        0.0        0.0        0.0       0.00       26.1       0.06       0.01        0.0
6:44              316        0.0         64       16.6      281.4       16.6       17.9        9.8     1019.1       22.7       16.6        0.0        0.0        0.0       0.00       26.3       0.06       0.01        0.0
6:46              316        0.0         64       16.6      281.4       16.6       17.9        9.8     1019.2       22.7       16.6        0.0        0.0        0.0       0.00       26.4       0.07       0.01        0.0
6:48              316        0.0         64       16.6      281.4       16.6       17.9        9.8     1019.3       22.7       16.6        0.0        0.0        0.0       0.00       26.5       0.07       0.01        0.0
6:50              316        0.0         64       16.6      281.4       16.6       17.9        9.8     1019.3       22.7       16.6        0.0        0.0        0.0       0.00       26.6       0.07       0.01        0.0
6:51              316        0.0         65       16.6      281.4       16.6       17.9       10.0     1019.2       22.7       16.6        0.0        0.0        0.0       0.00       26.7       0.07       0.01        0.0
6:54              316        0.0         64       16.6      281.4       16.6       17.9        9.8     1019.2       22.7       16.6        0.0        0.0        0.0       0.00       26.8       0.07       0.01        0.0
6:56              316        0.0         64       16.6      281.4       16.6       17.9        9.8     1019.3       22.7       16.6        0.0        0.0        0.0       0.00       26.9       0.07       0.01        0.0
6:58              316        0.0         65       16.6      281.4       16.6       17.9       10.0     1019.3       22.7       16.6        0.0        0.0        0.0       0.00       26.9       0.07       0.01        0.0
7:00              316        0.0         65       16.6      281.4       16.6       17.9       10.0     1019.3       22.7       16.6        0.0        0.0        0.0       0.00       26.9       0.07       0.01        0.0
7:02              316        0.0         65       16.6      281.4       16.6       17.9       10.0     1019.3       22.7       16.6        0.0        0.0        0.0       0.00       27.0       0.09       0.01        0.0
7:04              316        0.0         65       16.6      281.4       16.6       17.9       10.0     1019.3       22.7       16.6        0.0        0.0        0.0       0.00       27.0       0.09       0.01        0.0
7:06              316        0.0         65       16.7      281.4       16.7       18.0       10.1     1019.4       22.7       16.6        0.0        0.0        0.0       0.00       27.1       0.09       0.01        0.0
7:08              316        0.0         65       16.7      281.4       16.7       18.0       10.1     1019.3       22.7       16.6        0.0        0.0        0.0       0.00       27.3       0.09       0.01        0.0
7:10              316        0.0         65       16.7      281.4       16.7       18.0       10.1     1019.3       22.7       16.6        0.0        0.0        0.0       0.00       27.4       0.09       0.01        0.0
7:12              316        0.0         65       16.7      281.4       16.7       18.0       10.1     1019.3       22.7       16.6        0.0        0.0        0.0       0.00       27.5       0.09       0.01        0.0
7:14              316        0.0         64       16.8      281.4       16.8       18.0        9.9     1019.3       22.7       16.6        0.0        0.0        0.0       0.00       27.8       0.09       0.01        0.0
7:16              316        0.0         64       16.8      281.4       16.8       18.1       10.0     1019.3       22.7       16.6        0.0        0.0        0.0       0.00       28.0       0.10       0.01        0.0
7:18              316        0.0         64       16.8      281.4       16.8       18.1       10.0     1019.3       22.7       16.6        0.0        0.0        0.0       0.00       28.2       0.10       0.01        0.0
7:20              317        0.0         64       16.9      281.4       16.9       18.1       10.0     1019.3       22.7       16.6        0.0        0.0        0.0       0.00       28.5       0.10       0.01        0.0
7:22              316        0.0         64       16.9      281.4       16.9       18.2       10.1     1019.4       22.7       16.6        0.0        0.0        0.0       0.00       28.6       0.10       0.01        0.0
7:24              317        0.0         64       17.0      281.4       17.0       18.3       10.1     1019.4       22.7       16.6        0.0        0.0        0.0       0.00       28.8       0.10       0.01        0.0
7:25              317        0.0         64       17.1      281.4       17.1       18.3       10.2     1019.5       22.7       16.6        0.0        0.0        0.0       0.00       29.0       0.10       0.01        0.0
7:28              316        0.0         63       17.1      281.4       17.1       18.2       10.0     1019.4       22.7       16.6        0.0        0.0        0.0       0.00       29.1       0.10       0.01        0.0
7:30              316        0.0         63       17.1      281.4       17.1       18.3       10.0     1019.5       22.7       16.6        0.0        0.0        0.0       0.00       29.2       0.10       0.01        0.0
7:32              317        0.0         63       17.2      281.4       17.2       18.4       10.1     1019.4       22.7       16.6        0.0        0.0        0.0       0.00       29.3       0.11       0.01        0.0
7:34              316        0.0         63       17.2      281.4       17.2       18.4       10.1     1019.4       22.7       16.6        0.0        0.0        0.0       0.00       29.4       0.11       0.01        0.0
7:36              317        0.0         63       17.2      281.4       17.2       18.4       10.1     1019.5       22.7       16.6        0.0        0.0        0.0       0.00       29.5       0.11       0.01        0.0
7:38              317        0.0         63       17.2      281.4       17.2       18.4       10.1     1019.5       22.7       16.6        0.0        0.0        0.0       0.00       29.6       0.11       0.01        0.0
7:40              316        0.0         63       17.3      281.4       17.3       18.5       10.2     1019.6       22.7       16.6        0.0        0.0        0.0       0.00       29.7       0.11       0.01        0.0
7:42              317        0.0         63       17.3      281.4       17.3       18.5       10.2     1019.6       22.7       16.6        0.0        0.0        0.0       0.00       29.9       0.11       0.01        0.0
7:44              317        0.0         63       17.3      281.4       17.3       18.5       10.2     1019.5       22.7       16.6        0.0        0.0        0.0       0.00       29.9       0.11       0.01        0.0
7:46              317        0.0         63       17.3      281.4       17.3       18.5       10.2     1019.5       22.7       16.6        0.0        0.0        0.0       0.00       30.0       0.12       0.01        0.0
7:48              317        0.0         63       17.3      281.4       17.3       18.5       10.2     1019.6       22.7       16.6        0.0        0.0        0.0       0.00       30.2       0.12       0.01        0.0
7:50              318        0.0         63       17.3      281.4       17.3       18.5       10.2     1019.6       22.7       16.6        0.0        0.0        0.0       0.00       30.3       0.12       0.01        0.0
7:52              318        0.0         63       17.3      281.4       17.3       18.5       10.2     1019.7       22.7       16.6        0.0        0.0        0.0       0.00       30.5       0.12       0.01        0.0
7:54              318        0.0         63       17.3      281.4       17.3       18.5       10.2     1019.7       22.7       16.6        0.0        0.0        0.0       0.00       30.6       0.12       0.01        0.0
7:56              318        0.0         63       17.2      281.4       17.2       18.4       10.1     1019.7       22.7       16.6        0.0        0.0        0.0       0.00       30.8       0.12       0.01        0.0
7:58              318        0.0         63       17.2      281.4       17.2       18.4       10.1     1019.8       22.7       16.6        0.0        0.0        0.0       0.00       30.9       0.12       0.01        0.0
8:00              318        0.0         63       17.2      281.4       17.2       18.4       10.1     1019.9       22.7       16.6        0.0        0.0        0.0       0.00       31.1       0.12       0.01        0.0
8:02              318        0.0         63       17.2      281.4       17.2       18.4       10.1     1019.9       22.7       16.6        0.0        0.0        0.0       0.00       31.2       0.13       0.01        0.0
8:04              318        0.0         63       17.2      281.4       17.2       18.4       10.1     1019.9       22.7       16.6        0.0        0.0        0.0       0.00       31.2       0.13       0.01        0.0
8:06              318        0.0         63       17.2      281.4       17.2       18.4       10.1     1019.9       22.7       16.6        0.0        0.0        0.0       0.00       31.3       0.13       0.01        0.0
8:08              318        0.0         63       17.3      281.4       17.3       18.5       10.2     1019.9       22.7       16.6        0.0        0.0        0.0       0.00       31.5       0.13       0.01        0.0
8:10              318        0.0         63       17.3      281.4       17.3       18.5       10.2     1019.9       22.7       16.6        0.0        0.0        0.0       0.00       31.6       0.13       0.01        0.0
8:12              318        0.0         63       17.3      281.4       17.3       18.5       10.2     1020.0       22.7       16.6        0.0        0.0        0.0       0.00       31.7       0.13       0.01        0.0
8:14              318        0.0         63       17.4      281.4       17.4       18.6       10.3     1019.9       22.7       16.6        0.0        0.0        0.0       0.00       31.8       0.13       0.01        0.0
8:16              319        0.0         63       17.5      281.4       17.5       18.7       10.4     1019.9       22.7       16.6        0.0        0.0        0.0       0.00       31.9       0.13       0.01        0.0
8:18              319        0.0         63       17.6      281.4       17.6       18.7       10.4     1020.0       22.7       16.6        0.0        0.0        0.0       0.00       32.1       0.13       0.01        0.0
8:20              319        0.0         62       17.7      281.4       17.7       18.8       10.3     1020.0       22.7       16.6        0.0        0.0        0.0       0.00       32.2       0.13       0.01        0.0
8:22              319        0.0         62       17.7      281.4       17.7       18.8       10.4     1020.1       22.7       16.6        0.0        0.0        0.0       0.00       32.3       0.13       0.01        0.0
8:24              319        0.0         62       17.8      281.4       17.8       19.0       10.5     1020.2       22.7       16.6        0.0        0.0        0.0       0.00       32.4       0.13       0.01        0.0
8:26              319        0.0         62       17.9      281.4       17.9       19.0       10.5     1020.2       22.7       16.6        0.0        0.0        0.0       0.00       32.5       0.13       0.01        0.0
8:28              319        0.0         61       18.0      281.4       18.0       19.1       10.4     1020.3       22.7       16.6        0.0        0.0        0.0       0.00       32.6       0.13       0.01        0.0
8:29              319        0.0         61       18.0      281.4       18.0       19.1       10.4     1020.2       22.7       16.6        0.0        0.0        0.0       0.00       32.7       0.13       0.01        0.0
8:32              319        0.0         61       18.1      281.4       18.1       19.2       10.5     1020.3       22.7       16.6        0.0        0.0        0.0       0.00       32.9       0.13       0.01        0.0
8:34              319        0.0         61       18.2      281.4       18.2       19.2       10.5     1020.2       22.7       16.6        0.0        0.0        0.0       0.00       33.0       0.13       0.01        0.0
8:36              319        0.0         61       18.2      281.4       18.2       19.3       10.6     1020.3       22.7       16.6        0.0        0.0        0.0       0.00       33.1       0.13       0.01        0.0
8:38              319        0.0         61       18.3      281.4       18.3       19.4       10.7     1020.2       22.7       16.6        0.0        0.0        0.0       0.00       33.2       0.13       0.01        0.0
8:40              319        0.0         60       18.3      281.4       18.3       19.3       10.4     1020.3       22.7       16.6        0.0        0.0        0.0       0.00       33.3       0.13       0.01        0.0
8:42              319        0.0         60       18.4      281.4       18.4       19.4       10.5     1020.2       22.7       16.6        0.0        0.0        0.0       0.00       33.4       0.13       0.01        0.0
8:44              319        0.0         60       18.4      281.4       18.4       19.4       10.5     1020.3       22.7       16.6        0.0        0.0        0.0       0.00       33.6       0.13       0.01        0.0
8:46              319        0.0         60       18.5      281.4       18.5       19.5       10.6     1020.3       22.7       16.6        0.0        0.0        0.0       0.00       33.7       0.13       0.01        0.0
8:48              319        0.0         60       18.6      281.4       18.6       19.6       10.6     1020.2       22.7       16.6        0.0        0.0        0.0       0.00       33.8       0.13       0.01        0.0
8:50              319        0.0         60       18.6      281.4       18.6       19.6       10.7     1020.2       22.7       16.6        0.0        0.0        0.0       0.00       33.9       0.13       0.01        0.0
8:52              323        0.0         60       18.7      281.4       18.7       19.7       10.8     1020.2       22.7       16.6        0.0        0.0        0.0       0.00       34.1       0.13       0.01        0.0
8:54              327        0.0         59       18.8      281.4       18.8       19.7       10.6     1020.2       22.7       16.6        0.0        0.0        0.0       0.00       34.2       0.13       0.01        0.0
8:56              329        0.0         59       18.8      281.4       18.8       19.8       10.7     1020.2       22.7       16.6        0.0        0.0        0.0       0.00       34.4       0.13       0.01        0.0
8:58              329        0.0         59       18.9      281.4       18.9       19.8       10.7     1020.3       22.7       16.6        0.0        0.0        0.0       0.00       34.5       0.13       0.01        0.0
9:00              334        0.0         59       19.0      281.4       19.0       19.9       10.8     1020.2       22.7       16.6        0.0        0.0        0.0       0.00       34.7       0.13       0.01        0.0
9:02              342        0.0         58       19.1      281.4       19.1       19.9       10.6     1020.3       22.7       16.6        0.0        0.0        0.0       0.00       34.9       0.13       0.01        0.0
9:04              346        0.0         58       19.1      281.4       19.1       20.0       10.7     1020.3       22.7       16.6        0.0        0.0        0.0       0.00       35.1       0.13       0.01        0.0
9:06              347        0.0         58       19.1      281.4       19.1       20.0       10.7     1020.5       22.7       16.6        0.0        0.0        0.0       0.00       35.2       0.13       0.01        0.0
9:08              347        0.0         58       19.2      281.4       19.2       20.1       10.7     1020.5       22.7       16.6        0.0        0.0        0.0       0.00       35.3       0.13       0.01        0.0
9:10              347        0.0         58       19.3      281.4       19.3       20.2       10.8     1020.5       22.7       16.6        0.0        0.0        0.0       0.00       35.4       0.13       0.01        0.0
9:11              347        0.0         58       19.3      281.4       19.3       20.2       10.9     1020.5       22.7       16.6        0.0        0.0        0.0       0.00       35.5       0.13       0.01        0.0
9:14              347        0.0         58       19.4      281.4       19.4       20.3       11.0     1020.4       22.7       16.6        0.0        0.0        0.0       0.00       35.6       0.13       0.01        0.0
9:16              347        0.0         58       19.6      281.4       19.6       20.4       11.1     1020.4       22.7       16.6        0.0        0.0        0.0       0.00       35.7       0.13       0.01        0.0
9:18              347        0.0         58       19.7      281.4       19.7       20.6       11.2     1020.4       22.7       16.6        0.0        0.0        0.0       0.00       35.8       0.13       0.01        0.0
9:20              347        0.0         57       19.8      281.4       19.8       20.6       11.0     1020.4       22.7       16.6        0.0        0.0        0.0       0.00       36.0       0.13       0.01        0.0
9:22              347        0.0         57       19.9      281.4       19.9       20.7       11.1     1020.4       22.7       16.6        0.0        0.0        0.0       0.00       36.1       0.13       0.01        0.0
9:24              347        0.0         57       20.0      281.4       20.0       20.8       11.2     1020.4       22.7       16.6        0.0        0.0        0.0       0.00       36.2       0.13       0.01        0.0
9:26              347        0.0         56       20.2      281.4       20.2       20.9       11.1     1020.4       22.7       16.6        0.0        0.0        0.0       0.00       36.3       0.13       0.01        0.0
9:28              347        0.0         56       20.3      281.4       20.3       21.1       11.3     1020.4       22.7       16.6        0.0        0.0        0.0       0.00       36.4       0.13       0.01        0.0
9:30              347        0.0         56       20.5      281.4       20.5       21.3       11.4     1020.4       22.7       16.6        0.0        0.0        0.0       0.00       36.5       0.13       0.01        0.0
9:32              347        0.0         55       20.6      281.4       20.6       21.3       11.3     1020.4       22.7       16.6        0.0        0.0        0.0       0.00       36.7       0.13       0.01        0.0
9:34              347        0.0         55       20.8      281.4       20.8       21.5       11.4     1020.4       22.7       16.6        0.0        0.0        0.0       0.00       36.8       0.13       0.01        0.0
9:36              347        0.0         55       20.9      281.4       20.9       21.6       11.5     1020.4       22.7       16.6        0.0        0.0        0.0       0.00       37.0       0.13       0.01        0.0
9:38              347        0.0         54       21.0      281.4       21.0       21.7       11.3     1020.4       22.7       16.6        0.0        0.0        0.0       0.00       37.2       0.13       0.01        0.0
9:40              347        0.0         54       21.1      281.4       21.1       21.7       11.4     1020.4       22.7       16.6        0.0        0.0        0.0       0.00       37.3       0.13       0.01        0.0
9:42              347        0.0         55       21.2      281.4       21.2       21.9       11.8     1020.4       22.7       16.6        0.0        0.0        0.0       0.00       37.5       0.13       0.01        0.0
9:44              348        0.0         54       21.2      281.4       21.2       21.9       11.6     1020.4       22.7       16.6        0.0        0.0        0.0       0.00       37.6       0.13       0.01        0.0
9:46              348        0.0         53       21.3      281.4       21.3       21.9       11.4     1020.3       22.7       16.6        0.0        0.0        0.0       0.00       37.8       0.13       0.01        0.0
9:48              348        0.0         53       21.4      281.4       21.4       22.0       11.4     1020.4       22.7       16.6        0.0        0.0        0.0       0.00       37.9       0.13       0.01        0.0
9:50              348        0.0         53       21.5      281.4       21.5       22.1       11.5     1020.3       22.7       16.6        0.0        0.0        0.0       0.00       38.0       0.13       0.01        0.0
9:52              348        0.0         53       21.6      281.4       21.6       22.2       11.6     1020.3       22.7       16.6        0.0        0.0        0.0       0.00       38.1       0.13       0.01        0.0
9:54              348        0.0         53       21.7      281.4       21.7       22.3       11.7     1020.3       22.7       16.6        0.0        0.0        0.0       0.00       38.2       0.13       0.01        0.0
9:56              348        0.0         52       21.8      281.4       21.8       22.3       11.5     1020.3       22.7       16.6        0.0        0.0        0.0       0.00       38.4       0.13       0.01        0.0
9:58              348        0.0         52       21.9      281.4       21.9       22.4       11.6     1020.3       22.7       16.6        0.0        0.0        0.0       0.00       38.5       0.13       0.01        0.0
10:00             348        0.0         52       22.0      281.4       22.0       22.6       11.7     1020.3       22.7       16.6        0.0        0.0        0.0       0.00       38.6       0.13       0.01        0.0
10:02             348        0.0         52       22.1      281.4       22.1       22.7       11.8     1020.3       22.7       16.6        0.0        0.0        0.0       0.00       38.7       0.13       0.01        0.0
10:04             348        0.0         52       22.2      281.4       22.2       22.8       11.9     1020.3       22.7       16.6        0.0        0.0        0.0       0.00       38.8       0.13       0.01        0.0
10:06             348        0.0         51       22.3      281.4       22.3       22.8       11.7     1020.4       22.7       16.6        0.0        0.0        0.0       0.00       38.9       0.13       0.01        0.0
10:08             348        0.0         51       22.4      281.4       22.4       22.9       11.8     1020.4       22.7       16.6        0.0        0.0        0.0       0.00       39.0       0.13       0.01        0.0
10:10             348        0.0         50       22.6      281.4       22.6       23.0       11.6     1020.4       22.7       16.6        0.0        0.0        0.0       0.00       39.1       0.13       0.01        0.0
10:12             348        0.0         50       22.6      281.4       22.6       23.1       11.7     1020.3       22.7       16.6        0.0        0.0        0.0       0.00       39.2       0.13       0.01        0.0
10:14             348        0.0         49       22.7      281.4       22.7       23.1       11.5     1020.3       22.7       16.6        0.0        0.0        0.0       0.00       39.3       0.13       0.01        0.0
10:16             348        0.0         50       22.8      281.4       22.8       23.3       11.9     1020.3       22.8       16.6        0.0        0.0        0.0       0.00       39.3       0.13       0.02        0.0
10:18             348        0.0         49       23.0      281.4       23.0       23.4       11.7     1020.4       23.0       16.6        0.0        0.0        0.0       0.00       39.4       0.13       0.02        0.0
10:20             348        0.0         49       23.1      281.4       23.1       23.5       11.8     1020.4       23.1       16.6        0.0        0.0        0.0       0.00       39.4       0.13       0.02        0.0
10:22             348        0.0         49       23.2      281.4       23.2       23.6       11.9     1020.4       23.2       16.6        0.0        0.0        0.0       0.00       39.4       0.13       0.02        0.0
10:24             348        0.0         48       23.3      281.4       23.3       23.7       11.7     1020.4       23.3       16.6        0.0        0.0        0.0       0.00       39.4       0.13       0.02        0.0
10:26             348        0.0         48       23.4      281.4       23.4       23.7       11.8     1020.4       23.4       16.6        0.0        0.0        0.0       0.00       39.4       0.13       0.02        0.0
10:28             348        0.0         48       23.4      281.4       23.4       23.8       11.8     1020.4       23.4       16.6        0.0        0.0        0.0       0.00       39.4       0.13       0.02        0.0
10:30             348        0.0         48       23.5      281.4       23.5       23.8       11.9     1020.4       23.5       16.6        0.0        0.0        0.0       0.00       39.4       0.13       0.02        0.0
10:32             348        0.0         48       23.6      281.4       23.6       24.0       12.0     1020.4       23.6       16.6        0.0        0.0        0.0       0.00       39.4       0.13       0.03        0.0
10:34             348        0.0         48       23.8      281.4       23.8       24.1       12.1     1020.3       23.8       16.6        0.0        0.0        0.0       0.00       39.4       0.13       0.03        0.0
10:36             348        0.0         47       23.9      281.4       23.9       24.2       11.9     1020.3       23.9       16.6        0.0        0.0        0.0       0.00       39.4       0.13       0.03        0.0
10:38             348        0.0         46       24.1      281.4       24.1       24.3       11.7     1020.2       24.1       16.6        0.0        0.0        0.0       0.00       39.4       0.13       0.03        0.0
10:40             348        0.0         45       24.1      281.4       24.1       24.3       11.4     1020.2       24.1       16.6        0.0        0.0        0.0       0.00       39.4       0.13       0.03        0.0
10:42             348        0.0         45       24.1      281.4       24.1       24.3       11.4     1020.2       24.1       16.6        0.0        0.0        0.0       0.00       39.5       0.13       0.03        0.0
10:44             348        0.0         45       24.2      281.4       24.2       24.4       11.5     1020.2       24.2       16.6        0.0        0.0        0.0       0.00       39.6       0.13       0.03        0.0
10:46             348        0.0         45       24.2      281.4       24.2       24.4       11.5     1020.1       24.2       16.6        0.0        0.0        0.0       0.00       39.6       0.13       0.06        0.0
10:48             348        0.0         45       24.3      281.4       24.3       24.5       11.6     1020.1       24.3       16.6        0.0        0.0        0.0       0.00       39.7       0.13       0.06        0.0
10:50             348        0.0         45       24.3      281.4       24.3       24.5       11.6     1020.1       24.3       16.6        0.0        0.0        0.0       0.00       39.7       0.13       0.06        0.0
10:52             348        0.0         45       24.4      281.4       24.4       24.6       11.7     1020.2       24.4       16.6        0.0        0.0        0.0       0.00       39.7       0.13       0.06        0.0
10:54             348        0.0         45       24.6      281.4       24.6       24.7       11.9     1020.1       24.6       16.6        0.0        0.0        0.0       0.00       39.7       0.13       0.06        0.0
10:56             348        0.0         44       24.7      281.4       24.7       24.8       11.6     1020.0       24.7       16.6        0.0        0.0        0.0       0.00       39.7       0.13       0.06        0.0
10:58             348        0.0         44       24.8      281.4       24.8       25.0       11.8     1020.1       24.8       16.6        0.0        0.0        0.0       0.00       39.7       0.13       0.06        0.0
11:00             348        0.0         44       24.9      281.4       24.9       25.1       11.9     1020.2       24.9       16.6        0.0        0.0        0.0       0.00       39.7       0.13       0.06        0.0
11:02             348        0.0         44       25.1      281.4       25.1       25.3       12.0     1020.2       25.1       16.6        0.0        0.0        0.0       0.00       39.8       0.13       0.09        0.0
11:04             348        0.0         44       25.2      281.4       25.2       25.4       12.1     1020.2       25.2       16.6        0.0        0.0        0.0       0.00       39.8       0.13       0.09        0.0
11:06             348        0.0         43       25.4      281.4       25.4       25.5       11.9     1020.2       25.4       16.6        0.0        0.0        0.0       0.00       39.8       0.13       0.09        0.0
11:08             348        0.0         43       25.6      281.4       25.6       25.7       12.1     1020.2       25.6       16.6        0.0        0.0        0.0       0.00       39.8       0.13       0.09        0.0
11:10             348        0.0         43       25.7      281.4       25.7       25.8       12.2     1020.2       25.7       16.6        0.0        0.0        0.0       0.00       39.8       0.13       0.09        0.0
11:12             348        0.0         42       25.8      281.4       25.8       25.8       11.9     1020.1       25.8       16.6        0.0        0.0        0.0       0.00       39.8       0.13       0.09        0.0
11:14             348        0.0         42       25.9      281.4       25.9       26.0       12.1     1020.3       25.9       16.6        0.0        0.0        0.0       0.00       39.8       0.13       0.09        0.0
11:16             348        0.0         42       26.1      281.4       26.1       26.1       12.2     1020.3       26.1       16.6        0.0        0.0        0.0       0.00       39.8       0.13       0.13        0.0
11:18             348        0.0         42       26.2      281.4       26.2       26.2       12.3     1020.2       26.2       16.6        0.0        0.0        0.0       0.00       39.8       0.13       0.13        0.0
11:20             348        0.0         42       26.3      281.4       26.3       26.3       12.4     1020.2       26.3       16.6        0.0        0.0        0.0       0.00       39.9       0.13       0.13        0.0
11:22             348        0.0         40       26.3      281.4       26.3       26.3       11.7     1020.3       26.3       16.6        0.0        0.0        0.0       0.00       39.9       0.13       0.13        0.0
11:24             348        0.0         40       26.3      281.4       26.3       26.3       11.7     1020.2       26.3       16.6        0.0        0.0        0.0       0.00       40.0       0.13       0.13        0.0
11:26             348        0.0         40       26.4      281.4       26.4       26.3       11.7     1020.3       26.4       16.6        0.0        0.0        0.0       0.00       40.1       0.13       0.13        0.0
11:28             348        0.0         40       26.4      281.4       26.4       26.3       11.7     1020.2       26.4       16.6        0.0        0.0        0.0       0.00       40.1       0.13       0.13        0.0
11:30             348        0.0         40       26.4      281.4       26.4       26.4       11.8     1020.1       26.4       16.6        0.0        0.0        0.0       0.00       40.1       0.13       0.13        0.0
11:32             348        0.0         40       26.6      281.4       26.6       26.5       11.9     1020.1       26.6       16.6        0.0        0.0        0.0       0.00       40.1       0.13       0.17        0.0
11:34             348        0.0         40       26.6      281.4       26.6       26.6       11.9     1020.3       26.6       16.6        0.0        0.0        0.0       0.00       40.1       0.13       0.17        0.0
11:36             348        0.0         39       26.6      281.4       26.6       26.5       11.5     1020.0       26.7       16.6        0.0        0.0        0.0       0.00       40.2       0.13       0.17        0.0
11:38             348        0.0         39       26.6      281.4       26.6       26.5       11.5     1019.9       26.7       16.6        0.0        0.0        0.0       0.00       40.3       0.13       0.17        0.0
11:40             348        0.0         39       26.5      281.4       26.5       26.4       11.4     1019.9       26.7       16.6        0.0        0.0        0.0       0.00       40.4       0.13       0.17        0.0
11:42             348        0.0         39       26.5      281.4       26.5       26.4       11.4     1019.9       26.7       16.6        0.0        0.0        0.0       0.00       40.4       0.13       0.17        0.0
11:44             348        0.0         40       26.6      281.4       26.6       26.5       11.9     1019.8       26.7       16.6        0.0        0.0        0.0       0.00       40.4       0.13       0.17        0.0
11:46             348        0.0         40       26.6      281.4       26.6       26.5       11.9     1019.8       26.7       16.6        0.0        0.0        0.0       0.00       40.5       0.13       0.22        0.0
11:48             348        0.0         39       26.6      281.4       26.6       26.5       11.5     1019.7       26.7       16.6        0.0        0.0        0.0       0.00       40.6       0.13       0.22        0.0
11:50             348        0.0         39       26.6      281.4       26.6       26.5       11.5     1019.7       26.7       16.6        0.0        0.0        0.0       0.00       40.6       0.13       0.22        0.0
11:52             348        0.0         39       26.7      281.4       26.7       26.6       11.6     1019.7       26.7       16.6        0.0        0.0        0.0       0.00       40.6       0.13       0.22        0.0
11:54             348        0.0         39       26.7      281.4       26.7       26.6       11.6     1019.7       26.7       16.6        0.0        0.0        0.0       0.00       40.6       0.13       0.22        0.0
11:56             348        0.0         40       26.8      281.4       26.8       26.7       12.1     1019.7       26.8       16.6        0.0        0.0        0.0       0.00       40.6       0.13       0.22        0.0
11:58             348        0.0         39       27.0      281.4       27.0       26.8       11.9     1019.6       27.0       16.6        0.0        0.0        0.0       0.00       40.6       0.13       0.22        0.0
12:00             348        0.0         39       27.1      281.4       27.1       26.9       12.0     1019.7       27.1       16.6        0.0        0.0        0.0       0.00       40.7       0.13       0.22        0.0
12:02             348        0.0         39       27.2      281.4       27.2       27.0       12.1     1019.7       27.2       16.6        0.0        0.0        0.0       0.00       40.8       0.13       0.28        0.0
12:04             348        0.0         38       27.3      281.4       27.3       27.0       11.8     1019.6       27.3       16.6        0.0        0.0        0.0       0.00       40.8       0.13       0.28        0.0
12:06             348        0.0         38       27.4      281.4       27.4       27.1       11.9     1019.6       27.4       16.6        0.0        0.0        0.0       0.00       40.8       0.13       0.28        0.0
12:08             348        0.0         38       27.6      281.4       27.6       27.2       12.0     1019.6       27.6       16.6        0.0        0.0        0.0       0.00       40.9       0.13       0.28        0.0
12:10             348        0.0         38       27.7      281.4       27.7       27.3       12.1     1019.7       27.7       16.6        0.0        0.0        0.0       0.00       41.0       0.13       0.28        0.0
12:12             348        0.0         37       27.7      281.4       27.7       27.2       11.7     1019.4       27.7       16.6        0.0        0.0        0.0       0.00       41.0       0.13       0.28        0.0
12:14             348        0.0         37       27.7      281.4       27.7       27.2       11.7     1019.5       27.7       16.6        0.0        0.0        0.0       0.00       41.2       0.13       0.28        0.0
12:16             348        0.0         37       27.7      281.4       27.7       27.2       11.7     1019.3       27.7       16.6        0.0        0.0        0.0       0.00       41.2       0.13       0.33        0.0
12:18             348        0.0         38       27.7      281.4       27.7       27.3       12.1     1019.4       27.7       16.6        0.0        0.0        0.0       0.00       41.3       0.13       0.33        0.0
12:20             348        0.0         37       27.7      281.4       27.7       27.2       11.7     1019.4       27.7       16.6        0.0        0.0        0.0       0.00       41.4       0.13       0.33        0.0
12:22             348        0.0         37       27.7      281.4       27.7       27.2       11.7     1019.4       27.7       16.6        0.0        0.0        0.0       0.00       41.4       0.13       0.33        0.0
12:24             348        0.0         37       27.7      281.4       27.7       27.2       11.7     1019.4       27.7       16.6        0.0        0.0        0.0       0.00       41.5       0.13       0.33        0.0
12:26             348        0.0         37       27.7      281.4       27.7       27.2       11.7     1019.4       27.7       16.6        0.0        0.0        0.0       0.00       41.5       0.13       0.33        0.0
12:28             348        0.0         37       27.7      281.4       27.7       27.2       11.7     1019.4       27.7       16.6        0.0        0.0        0.0       0.00       41.6       0.13       0.33        0.0
12:30             348        0.0         37       27.7      281.4       27.7       27.2       11.7     1019.4       27.7       16.6        0.0        0.0        0.0       0.00       41.7       0.13       0.33        0.0
12:32             348        0.0         37       27.8      281.4       27.8       27.3       11.8     1019.3       27.8       16.6        0.0        0.0        0.0       0.00       41.7       0.13       0.39        0.0
12:34             348        0.0         37       27.8      281.4       27.8       27.3       11.8     1019.3       27.9       16.6        0.0        0.0        0.0       0.00       41.8       0.13       0.39        0.0
12:36             348        0.0         37       27.9      281.4       27.9       27.4       11.9     1019.2       27.9       16.6        0.0        0.0        0.0       0.00       41.9       0.13       0.39        0.0
12:38             348        0.0         36       28.1      281.4       28.1       27.5       11.6     1019.2       28.1       16.6        0.0        0.0        0.0       0.00       42.0       0.13       0.39        0.0
12:40             348        0.0         36       28.2      281.4       28.2       27.5       11.7     1019.2       28.2       16.6        0.0        0.0        0.0       0.00       42.0       0.13       0.39        0.0
12:42             348        0.0         36       28.3      281.4       28.3       27.6       11.8     1019.1       28.3       16.6        0.0        0.0        0.0       0.00       42.0       0.13       0.39        0.0
12:44             348        0.0         36       28.4      281.4       28.4       27.7       11.9     1019.1       28.4       16.6        0.0        0.0        0.0       0.00       42.0       0.13       0.39        0.0
12:46             348        0.0         36       28.4      281.4       28.4       27.8       11.9     1019.0       28.4       16.6        0.0        0.0        0.0       0.00       42.0       0.13       0.46        0.0
12:48             348        0.0         36       28.5      281.4       28.5       27.8       12.0     1019.0       28.5       16.6        0.0        0.0        0.0       0.00       42.1       0.13       0.46        0.0
12:50             348        0.0         36       28.6      281.4       28.6       27.9       12.1     1018.9       28.6       16.6        0.0        0.0        0.0       0.00       42.1       0.13       0.46        0.0
12:52             348        0.0         36       28.7      281.4       28.7       28.0       12.1     1018.9       28.7       16.6        0.0        0.0        0.0       0.00       42.2       0.13       0.46        0.0
12:54             348        0.0         36       28.7      281.4       28.7       28.0       12.1     1018.9       28.7       16.6        0.0        0.0        0.0       0.00       42.2       0.13       0.46        0.0
12:56             348        0.0         36       28.7      281.4       28.7       28.0       12.1     1018.9       28.7       16.6        0.0        0.0        0.0       0.00       42.2       0.13       0.46        0.0
12:58             348        0.0         35       28.8      281.4       28.8       28.0       11.8     1018.8       28.8       16.6        0.0        0.0        0.0       0.00       42.2       0.13       0.46        0.0
13:00             348        0.0         35       28.8      281.4       28.8       28.0       11.8     1018.8       28.8       16.6        0.0        0.0        0.0       0.00       42.2       0.13       0.46        0.0
13:02             348        0.0         36       28.8      281.4       28.8       28.1       12.3     1018.8       28.8       16.6        0.0        0.0        0.0       0.00       42.2       0.13       0.53        0.0
13:04             348        0.0         36       28.8      281.4       28.8       28.1       12.2     1018.8       28.8       16.6        0.0        0.0        0.0       0.00       42.3       0.13       0.53        0.0
13:06             348        0.0         36       28.7      281.4       28.7       28.0       12.2     1018.7       28.8       16.6        0.0        0.0        0.0       0.00       42.4       0.13       0.53        0.0
13:08             348        0.0         35       28.7      281.4       28.7       27.9       11.7     1018.7       28.8       16.6        0.0        0.0        0.0       0.00       42.5       0.13       0.53        0.0
13:10             348        0.0         35       28.6      281.4       28.6       27.8       11.6     1018.7       28.8       16.6        0.0        0.0        0.0       0.00       42.6       0.13       0.53        0.0
13:12             348        0.0         36       28.4      281.4       28.4       27.8       11.9     1018.6       28.8       16.6        0.0        0.0        0.0       0.00       42.7       0.13       0.53        0.0
13:14             348        0.0         36       28.4      281.4       28.4       27.7       11.9     1018.6       28.8       16.6        0.0        0.0        0.0       0.00       42.7       0.13       0.53        0.0
13:16             348        0.0         37       28.4      281.4       28.4       27.8       12.3     1018.5       28.8       16.6        0.0        0.0        0.0       0.00       42.7       0.13       0.60        0.0
13:18             348        0.0         37       28.4      281.4       28.4       27.8       12.4     1018.5       28.8       16.6        0.0        0.0        0.0       0.00       42.7       0.13       0.60        0.0
13:20             348        0.0         36       28.4      281.4       28.4       27.8       11.9     1018.4       28.8       16.6        0.0        0.0        0.0       0.00       42.7       0.13       0.60        0.0
13:22             348        0.0         36       28.6      281.4       28.6       27.9       12.0     1018.4       28.8       16.6        0.0        0.0        0.0       0.00       42.7       0.13       0.60        0.0
13:24             348        0.0         36       28.7      281.4       28.7       28.0       12.1     1018.5       28.8       16.6        0.0        0.0        0.0       0.00       42.7       0.13       0.60        0.0
13:26             348        0.0         36       28.7      281.4       28.7       28.0       12.2     1018.5       28.8       16.6        0.0        0.0        0.0       0.00       42.8       0.13       0.60        0.0
13:28             348        0.0         36       28.8      281.4       28.8       28.1       12.2     1018.3       28.8       16.6        0.0        0.0        0.0       0.00       42.9       0.13       0.60        0.0
13:30             348        0.0         35       28.8      281.4       28.8       28.0       11.9     1018.4       28.8       16.6        0.0        0.0        0.0       0.00       42.9       0.13       0.60        0.0
13:32             348        0.0         35       28.9      281.4       28.9       28.1       12.0     1018.4       28.9       16.6        0.0        0.0        0.0       0.00       43.0       0.13       0.67        0.0
13:34             348        0.0         35       29.0      281.4       29.0       28.2       12.0     1018.3       29.0       16.6        0.0        0.0        0.0       0.00       43.1       0.13       0.67        0.0
13:36             348        0.0         35       29.1      281.4       29.1       28.3       12.1     1018.2       29.1       16.6        0.0        0.0        0.0       0.00       43.1       0.13       0.67        0.0
13:38             348        0.0         34       29.3      281.4       29.3       28.4       11.8     1018.3       29.3       16.6        0.0        0.0        0.0       0.00       43.2       0.13       0.67        0.0
13:40             348        0.0         35       29.3      281.4       29.3       28.5       12.3     1018.2       29.3       16.6        0.0        0.0        0.0       0.00       43.2       0.13       0.67        0.0
13:42             348        0.0         34       29.3      281.4       29.3       28.4       11.9     1018.3       29.3       16.6        0.0        0.0        0.0       0.00       43.3       0.13       0.67        0.0
13:44             348        0.0         34       29.3      281.4       29.3       28.4       11.9     1018.3       29.3       16.6        0.0        0.0        0.0       0.00       43.3       0.13       0.67        0.0
13:46             348        0.0         34       29.4      281.4       29.4       28.5       11.9     1018.2       29.4       16.6        0.0        0.0        0.0       0.00       43.3       0.13       0.75        0.0
13:48             348        0.0         34       29.4      281.4       29.4       28.5       11.9     1018.2       29.4       16.6        0.0        0.0        0.0       0.00       43.3       0.13       0.75        0.0
13:50             348        0.0         34       29.5      281.4       29.5       28.6       12.0     1018.2       29.5       16.6        0.0        0.0        0.0       0.00       43.3       0.13       0.75        0.0
13:52             348        0.0         34       29.6      281.4       29.6       28.6       12.1     1018.2       29.6       16.6        0.0        0.0        0.0       0.00       43.3       0.13       0.75        0.0
13:54             348        0.0         34       29.6      281.4       29.6       28.7       12.1     1018.2       29.6       16.6        0.0        0.0        0.0       0.00       43.3       0.13       0.75        0.0
13:56             348        0.0         34       29.7      281.4       29.7       28.7       12.1     1018.1       29.7       16.6        0.0        0.0        0.0       0.00       43.3       0.13       0.75        0.0
13:58             348        0.0         33       29.7      281.4       29.7       28.7       11.7     1018.1       29.7       16.6        0.0        0.0        0.0       0.00       43.3       0.13       0.75        0.0
14:00             348        0.0         34       29.7      281.4       29.7       28.8       12.2     1018.1       29.7       16.6        0.0        0.0        0.0       0.00       43.3       0.13       0.75        0.0
14:02             348        0.0         33       29.8      281.4       29.8       28.8       11.8     1018.0       29.8       16.6        0.0        0.0        0.0       0.00       43.3       0.13       0.83        0.0
14:04             348        0.0         33       29.8      281.4       29.8       28.8       11.8     1018.0       29.8       16.6        0.0        0.0        0.0       0.00       43.3       0.13       0.83        0.0
14:06             348        0.0         34       29.8      281.4       29.8       28.9       12.2     1017.9       29.8       16.6        0.0        0.0        0.0       0.00       43.3       0.13       0.83        0.0
14:08             348        0.0         33       29.7      281.4       29.7       28.7       11.7     1018.0       29.8       16.6        0.0        0.0        0.0       0.00       43.3       0.13       0.83        0.0
14:10             348        0.0         33       29.7      281.4       29.7       28.7       11.7     1018.0       29.8       16.6        0.0        0.0        0.0       0.00       43.3       0.13       0.83        0.0
14:11             348        0.0         34       29.7      281.4       29.7       28.7       12.1     1017.9       29.8       16.6        0.0        0.0        0.0       0.00       43.3       0.13       0.83        0.0
14:14             348        0.0         34       29.6      281.4       29.6       28.7       12.1     1018.0       29.8       16.6        0.0        0.0        0.0       0.00       43.3       0.13       0.83        0.0
14:16             348        0.0         34       29.6      281.4       29.6       28.7       12.1     1017.9       29.8       16.6        0.0        0.0        0.0       0.00       43.3       0.13       0.91        0.0
14:18             348        0.0         33       29.6      281.4       29.6       28.6       11.6     1018.0       29.8       16.6        0.0        0.0        0.0       0.00       43.3       0.13       0.91        0.0
14:20             348        0.0         33       29.7      281.4       29.7       28.7       11.7     1017.9       29.8       16.6        0.0        0.0        0.0       0.00       43.3       0.13       0.91        0.0
14:22             348        0.0         33       29.7      281.4       29.7       28.7       11.7     1017.9       29.8       16.6        0.0        0.0        0.0       0.00       43.3       0.13       0.91        0.0
14:24             348        0.0         33       29.7      281.4       29.7       28.7       11.7     1017.8       29.8       16.6        0.0        0.0        0.0       0.00       43.3       0.13       0.91        0.0
14:26             348        0.0         33       29.6      281.4       29.6       28.6       11.6     1017.9       29.8       16.6        0.0        0.0        0.0       0.00       43.3       0.13       0.91        0.0
14:28             348        0.0         33       29.6      281.4       29.6       28.6       11.6     1017.8       29.8       16.6        0.0        0.0        0.0       0.00       43.3       0.13       0.91        0.0
14:30             348        0.0         33       29.7      281.4       29.7       28.7       11.7     1017.8       29.8       16.6        0.0        0.0        0.0       0.00       43.3       0.13       0.91        0.0
14:32             348        0.0         33       29.7      281.4       29.7       28.7       11.7     1017.7       29.8       16.6        0.0        0.0        0.0       0.00       43.3       0.13       0.99        0.0
14:34             348        0.0         33       29.7      281.4       29.7       28.7       11.7     1017.8       29.8       16.6        0.0        0.0        0.0       0.00       43.3       0.13       0.99        0.0
14:36             348        0.0         33       29.8      281.4       29.8       28.8       11.8     1017.8       29.8       16.6        0.0        0.0        0.0       0.00       43.3       0.13       0.99        0.0
14:38             348        0.0         33       29.9      281.4       29.9       28.9       11.9     1017.8       29.9       16.6        0.0        0.0        0.0       0.00       43.3       0.13       0.99        0.0
14:40             348        0.0         33       29.9      281.4       29.9       28.9       11.9     1017.7       29.9       16.6        0.0        0.0        0.0       0.00       43.3       0.13       0.99        0.0
14:42             348        0.0         32       30.0      281.4       30.0       28.9       11.5     1017.8       30.0       16.6        0.0        0.0        0.0       0.00       43.3       0.13       0.99        0.0
14:44             348        0.0         32       30.1      281.4       30.1       29.0       11.6     1017.7       30.1       16.6        0.0        0.0        0.0       0.00       43.3       0.13       0.99        0.0
14:46             348        0.0         32       30.2      281.4       30.2       29.1       11.7     1017.8       30.2       16.6        0.0        0.0        0.0       0.00       43.3       0.13       1.07        0.0
14:48             348        0.0         32       30.2      281.4       30.2       29.1       11.7     1017.7       30.2       16.6        0.0        0.0        0.0       0.00       43.3       0.13       1.07        0.0
14:50             348        0.0         32       30.3      281.4       30.3       29.2       11.8     1017.7       30.3       16.6        0.0        0.0        0.0       0.00       43.3       0.13       1.07        0.0
14:52             348        0.0         32       30.3      281.4       30.3       29.2       11.8     1017.7       30.3       16.6        0.0        0.0        0.0       0.00       43.3       0.13       1.07        0.0
14:54             348        0.0         32       30.3      281.4       30.3       29.2       11.8     1017.7       30.3       16.6        0.0        0.0        0.0       0.00       43.3       0.13       1.07        0.0
14:56             348        0.0         32       30.3      281.4       30.3       29.2       11.8     1017.7       30.3       16.6        0.0        0.0        0.0       0.00       43.3       0.13       1.07        0.0
14:58             348        0.0         33       30.3      281.4       30.3       29.3       12.2     1017.8       30.3       16.6        0.0        0.0        0.0       0.00       43.3       0.13       1.07        0.0
15:00             348        0.0         33       30.3      281.4       30.3       29.3       12.2     1017.7       30.3       16.6        0.0        0.0        0.0       0.00       43.3       0.13       1.07        0.0
15:02             348        0.0         33       30.2      281.4       30.2       29.2       12.2     1017.7       30.3       16.6        0.0        0.0        0.0       0.00       43.3       0.13       1.16        0.0
15:04             348        0.0         33       30.2      281.4       30.2       29.2       12.1     1017.7       30.3       16.6        0.0        0.0        0.0       0.00       43.3       0.13       1.16        0.0
15:06             348        0.0         32       30.1      281.4       30.1       29.0       11.6     1017.7       30.3       16.6        0.0        0.0        0.0       0.00       43.3       0.13       1.16        0.0
15:08             348        0.0         33       30.0      281.4       30.0       29.0       12.0     1017.6       30.3       16.6        0.0        0.0        0.0       0.00       43.3       0.13       1.16        0.0
15:10             348        0.0         33       29.9      281.4       29.9       28.9       11.9     1017.7       30.3       16.6        0.0        0.0        0.0       0.00       43.3       0.13       1.16        0.0
15:12             348        0.0         33       29.9      281.4       29.9       28.9       11.9     1017.7       30.3       16.6        0.0        0.0        0.0       0.00       43.3       0.13       1.16        0.0
15:13             348        0.0         33       29.8      281.4       29.8       28.8       11.8     1017.6       30.3       16.6        0.0        0.0        0.0       0.00       43.3       0.13       1.16        0.0
15:16             348        0.0         33       29.8      281.4       29.8       28.8       11.8     1017.7       30.3       16.6        0.0        0.0        0.0       0.00       43.3       0.13       1.24        0.0
15:18             348        0.0         33       29.9      281.4       29.9       28.9       11.9     1017.7       30.3       16.6        0.0        0.0        0.0       0.00       43.3       0.13       1.24        0.0
15:20             348        0.0         34       29.9      281.4       29.9       29.0       12.4     1017.6       30.3       16.6        0.0        0.0        0.0       0.00       43.3       0.13       1.24        0.0
15:22             348        0.0         33       30.0      281.4       30.0       29.0       12.0     1017.7       30.3       16.6        0.0        0.0        0.0       0.00       43.3       0.13       1.24        0.0
15:24             348        0.0         33       30.0      281.4       30.0       29.0       12.0     1017.7       30.3       16.6        0.0        0.0        0.0       0.00       43.3       0.13       1.24        0.0
15:25             348        0.0         33       30.1      281.4       30.1       29.1       12.1     1017.7       30.3       16.6        0.0        0.0        0.0       0.00       43.3       0.13       1.24        0.0
15:28             348        0.0         32       30.2      281.4       30.2       29.1       11.7     1017.7       30.3       16.6        0.0        0.0        0.0       0.00       43.3       0.13       1.24        0.0
15:30             348        0.0         32       30.3      281.4       30.3       29.2       11.8     1017.6       30.3       16.6        0.0        0.0        0.0       0.00       43.3       0.13       1.24        0.0
15:32             348        0.0         31       30.4      281.4       30.4       29.2       11.4     1017.6       30.4       16.6        0.0        0.0        0.0       0.00       43.3       0.13       1.32        0.0
15:34             348        0.0         31       30.4      281.4       30.4       29.3       11.4     1017.6       30.4       16.6        0.0        0.0        0.0       0.00       43.3       0.13       1.32        0.0
15:36             348        0.0         31       30.5      281.4       30.5       29.3       11.5     1017.7       30.5       16.6        0.0        0.0        0.0       0.00       43.4       0.13       1.32        0.0
15:38             348        0.0         31       30.5      281.4       30.5       29.3       11.5     1017.6       30.5       16.6        0.0        0.0        0.0       0.00       43.4       0.13       1.32        0.0
15:40             348        0.0         32       30.4      281.4       30.4       29.3       11.9     1017.6       30.5       16.6        0.0        0.0        0.0       0.00       43.5       0.13       1.32        0.0
15:42             348        0.0         32       30.5      281.4       30.5       29.4       12.0     1017.7       30.5       16.6        0.0        0.0        0.0       0.00       43.5       0.13       1.32        0.0
15:44             348        0.0         32       30.6      281.4       30.6       29.5       12.1     1017.7       30.6       16.6        0.0        0.0        0.0       0.00       43.7       0.13       1.32        0.0
15:46             348        0.0         31       30.7      281.4       30.7       29.5       11.7     1017.6       30.7       16.6        0.0        0.0        0.0       0.00       43.8       0.13       1.41        0.0
15:48             348        0.0         31       30.7      281.4       30.7       29.5       11.7     1017.6       30.7       16.6        0.0        0.0        0.0       0.00       43.9       0.13       1.41        0.0
15:50             348        0.0         31       30.6      281.4       30.6       29.4       11.6     1017.7       30.7       16.6        0.0        0.0        0.0       0.00       44.0       0.13       1.41        0.0
15:51             348        0.0         31       30.6      281.4       30.6       29.4       11.5     1017.7       30.7       16.6        0.0        0.0        0.0       0.00       44.2       0.13       1.41        0.0
15:54             348        0.0         31       30.5      281.4       30.5       29.3       11.5     1017.7       30.7       16.6        0.0        0.0        0.0       0.00       44.3       0.13       1.41        0.0
15:56             348        0.0         31       30.5      281.4       30.5       29.3       11.5     1017.7       30.7       16.6        0.0        0.0        0.0       0.00       44.3       0.13       1.41        0.0
15:58             348        0.0         31       30.6      281.4       30.6       29.4       11.5     1017.6       30.7       16.6        0.0        0.0        0.0       0.00       44.4       0.13       1.41        0.0
16:00             348        0.0         31       30.6      281.4       30.6       29.4       11.5     1017.6       30.7       16.6        0.0        0.0        0.0       0.00       44.4       0.13       1.41        0.0
16:02             348        0.0         31       30.6      281.4       30.6       29.4       11.6     1017.7       30.7       16.6        0.0        0.0        0.0       0.00       44.6       0.13       1.50        0.0
16:04             348        0.0         31       30.6      281.4       30.6       29.4       11.5     1017.7       30.7       16.6        0.0        0.0        0.0       0.00       44.7       0.13       1.50        0.0
16:06             348        0.0         31       30.5      281.4       30.5       29.3       11.5     1017.7       30.7       16.6        0.0        0.0        0.0       0.00       44.8       0.13       1.50        0.0
16:08             348        0.0         31       30.4      281.4       30.4       29.3       11.4     1017.7       30.7       16.6        0.0        0.0        0.0       0.00       44.9       0.13       1.50        0.0
16:10             348        0.0         31       30.4      281.4       30.4       29.2       11.4     1017.7       30.7       16.6        0.0        0.0        0.0       0.00       44.9       0.13       1.50        0.0
16:11             348        0.0         31       30.4      281.4       30.4       29.2       11.4     1017.7       30.7       16.6        0.0        0.0        0.0       0.00       45.0       0.13       1.50        0.0
16:14             348        0.0         31       30.4      281.4       30.4       29.2       11.4     1017.6       30.7       16.6        0.0        0.0        0.0       0.00       45.1       0.13       1.50        0.0
16:16             348        0.0         31       30.4      281.4       30.4       29.2       11.4     1017.5       30.7       16.6        0.0        0.0        0.0       0.00       45.2       0.13       1.59        0.0
16:18             348        0.0         30       30.3      281.4       30.3       29.1       10.8     1017.6       30.7       16.6        0.0        0.0        0.0       0.00       45.3       0.13       1.59        0.0
16:20             348        0.0         31       30.3      281.4       30.3       29.1       11.3     1017.6       30.7       16.6        0.0        0.0        0.0       0.00       45.4       0.13       1.59        0.0
16:22             348        0.0         31       30.3      281.4       30.3       29.1       11.3     1017.5       30.7       16.6        0.0        0.0        0.0       0.00       45.4       0.13       1.59        0.0
16:24             348        0.0         30       30.3      281.4       30.3       29.0       10.8     1017.6       30.7       16.6        0.0        0.0        0.0       0.00       45.5       0.13       1.59        0.0
16:26             348        0.0         30       30.2      281.4       30.2       29.0       10.7     1017.6       30.7       16.6        0.0        0.0        0.0       0.00       45.6       0.13       1.59        0.0
16:28             348        0.0         30       30.3      281.4       30.3       29.0       10.8     1017.5       30.7       16.6        0.0        0.0        0.0       0.00       45.6       0.13       1.59        0.0
16:30             348        0.0         30       30.3      281.4       30.3       29.1       10.8     1017.5       30.7       16.6        0.0        0.0        0.0       0.00       45.6       0.13       1.59        0.0
16:32             348        0.0         30       30.4      281.4       30.4       29.1       10.9     1017.6       30.7       16.6        0.0        0.0        0.0       0.00       45.7       0.13       1.68        0.0
16:34             348        0.0         30       30.4      281.4       30.4       29.1       10.9     1017.7       30.7       16.6        0.0        0.0        0.0       0.00       45.7       0.13       1.68        0.0
16:36             348        0.0         30       30.4      281.4       30.4       29.1       10.9     1017.7       30.7       16.6        0.0        0.0        0.0       0.00       45.7       0.13       1.68        0.0
16:37             348        0.0         30       30.4      281.4       30.4       29.2       10.9     1017.7       30.7       16.6        0.0        0.0        0.0       0.00       45.7       0.13       1.68        0.0
16:40             348        0.0         30       30.5      281.4       30.5       29.2       11.0     1017.6       30.7       16.6        0.0        0.0        0.0       0.00       45.8       0.13       1.68        0.0
16:42             348        0.0         30       30.6      281.4       30.6       29.3       11.0     1017.6       30.7       16.6        0.0        0.0        0.0       0.00       45.8       0.13       1.68        0.0
16:44             348        0.0         30       30.6      281.4       30.6       29.3       11.1     1017.6       30.7       16.6        0.0        0.0        0.0       0.00       45.9       0.13       1.68        0.0
16:46             348        0.0         30       30.7      281.4       30.7       29.4       11.1     1017.6       30.7       16.6        0.0        0.0        0.0       0.00       46.0       0.13       1.77        0.0
16:47             348        0.0         30       30.7      281.4       30.7       29.4       11.1     1017.6       30.7       16.6        0.0        0.0        0.0       0.00       46.1       0.13       1.77        0.0
16:50             348        0.0         30       30.6      281.4       30.6       29.3       11.1     1017.5       30.7       16.6        0.0        0.0        0.0       0.00       46.2       0.13       1.77        0.0
16:52             348        0.0         30       30.6      281.4       30.6       29.3       11.1     1017.5       30.7       16.6        0.0        0.0        0.0       0.00       46.3       0.13       1.77        0.0
16:54             348        0.0         30       30.6      281.4       30.6       29.3       11.0     1017.4       30.7       16.6        0.0        0.0        0.0       0.00       46.4       0.13       1.77        0.0
16:56             348        0.0         30       30.5      281.4       30.5       29.2       11.0     1017.4       30.7       16.6        0.0        0.0        0.0       0.00       46.5       0.13       1.77        0.0
16:58             348        0.0         30       30.5      281.4       30.5       29.2       11.0     1017.4       30.7       16.6        0.0        0.0        0.0       0.00       46.6       0.13       1.77        0.0
17:00             348        0.0         31       30.5      281.4       30.5       29.3       11.5     1017.4       30.7       16.6        0.0        0.0        0.0       0.00       46.6       0.13       1.77        0.0
17:02             348        0.0         31       30.4      281.4       30.4       29.3       11.4     1017.4       30.7       16.6        0.0        0.0        0.0       0.00       46.6       0.13       1.86        0.0
17:04             348        0.0         31       30.4      281.4       30.4       29.3       11.4     1017.5       30.7       16.6        0.0        0.0        0.0       0.00       46.6       0.13       1.86        0.0
17:06             348        0.0         31       30.4      281.4       30.4       29.3       11.4     1017.5       30.7       16.6        0.0        0.0        0.0       0.00       46.7       0.13       1.86        0.0
17:08             348        0.0         31       30.4      281.4       30.4       29.2       11.4     1017.4       30.7       16.6        0.0        0.0        0.0       0.00       46.8       0.13       1.86        0.0
17:10             348        0.0         31       30.3      281.4       30.3       29.1       11.3     1017.4       30.7       16.6        0.0        0.0        0.0       0.00       46.9       0.13       1.86        0.0
17:12             348        0.0         32       30.3      281.4       30.3       29.2       11.8     1017.4       30.7       16.6        0.0        0.0        0.0       0.00       47.0       0.13       1.86        0.0
17:14             348        0.0         31       30.3      281.4       30.3       29.1       11.3     1017.5       30.7       16.6        0.0        0.0        0.0       0.00       47.1       0.13       1.86        0.0
17:16             348        0.0         31       30.3      281.4       30.3       29.1       11.3     1017.4       30.7       16.6        0.0        0.0        0.0       0.00       47.2       0.13       1.94        0.0
17:18             348        0.0         31       30.3      281.4       30.3       29.1       11.3     1017.5       30.7       16.6        0.0        0.0        0.0       0.00       47.2       0.13       1.94        0.0
17:20             348        0.0         31       30.2      281.4       30.2       29.0       11.2     1017.4       30.7       16.6        0.0        0.0        0.0       0.00       47.3       0.13       1.94        0.0
17:22             348        0.0         31       30.2      281.4       30.2       29.0       11.2     1017.5       30.7       16.6        0.0        0.0        0.0       0.00       47.4       0.13       1.94        0.0
17:24             348        0.0         31       30.2      281.4       30.2       29.0       11.2     1017.6       30.7       16.6        0.0        0.0        0.0       0.00       47.4       0.13       1.94        0.0
17:26             348        0.0         32       30.1      281.4       30.1       29.0       11.6     1017.7       30.7       16.6        0.0        0.0        0.0       0.00       47.4       0.13       1.94        0.0
17:28             348        0.0         32       30.1      281.4       30.1       29.0       11.6     1017.6       30.7       16.6        0.0        0.0        0.0       0.00       47.4       0.13       1.94        0.0
17:30             348        0.0         32       30.1      281.4       30.1       29.0       11.6     1017.7       30.7       16.6        0.0        0.0        0.0       0.00       47.4       0.13       1.94        0.0
17:32             348        0.0         32       30.1      281.4       30.1       29.0       11.6     1017.7       30.7       16.6        0.0        0.0        0.0       0.00       47.4       0.13       2.03        0.0
17:34             348        0.0         32       30.1      281.4       30.1       29.0       11.6     1017.6       30.7       16.6        0.0        0.0        0.0       0.00       47.4       0.13       2.03        0.0
17:36             348        0.0         32       30.0      281.4       30.0       28.9       11.5     1017.6       30.7       16.6        0.0        0.0        0.0       0.00       47.5       0.13       2.03        0.0
17:37             348        0.0         32       29.9      281.4       29.9       28.9       11.5     1017.5       30.7       16.6        0.0        0.0        0.0       0.00       47.5       0.13       2.03        0.0
17:40             348        0.0         32       29.8      281.4       29.8       28.7       11.4     1017.6       30.7       16.6        0.0        0.0        0.0       0.00       47.6       0.13       2.03        0.0
17:41             348        0.0         32       29.7      281.4       29.7       28.6       11.3     1017.7       30.7       16.6        0.0        0.0        0.0       0.00       47.7       0.13       2.03        0.0
17:44             348        0.0         32       29.6      281.4       29.6       28.5       11.2     1017.6       30.7       16.6        0.0        0.0        0.0       0.00       47.8       0.13       2.03        0.0
17:46             348        0.0         32       29.5      281.4       29.5       28.4       11.1     1017.7       30.7       16.6        0.0        0.0        0.0       0.00       47.9       0.13       2.11        0.0
17:48             348        0.0         32       29.3      281.4       29.3       28.3       10.9     1017.6       30.7       16.6        0.0        0.0        0.0       0.00       48.0       0.13       2.11        0.0
17:50             348        0.0         33       29.2      281.4       29.2       28.2       11.3     1017.6       30.7       16.6        0.0        0.0        0.0       0.00       48.1       0.13       2.11        0.0
17:52             348        0.0         33       29.0      281.4       29.0       28.1       11.1     1017.6       30.7       16.6        0.0        0.0        0.0       0.00       48.1       0.13       2.11        0.0
17:54             348        0.0         33       28.9      281.4       28.9       28.0       11.0     1017.7       30.7       16.6        0.0        0.0        0.0       0.00       48.2       0.13       2.11        0.0
17:56             348        0.0         33       28.8      281.4       28.8       27.9       10.9     1017.6       30.7       16.6        0.0        0.0        0.0       0.00       48.3       0.13       2.11        0.0
17:57             348        0.0         34       28.6      281.4       28.6       27.8       11.2     1017.6       30.7       16.6        0.0        0.0        0.0       0.00       48.3       0.13       2.11        0.0
18:00             348        0.0         35       28.5      281.4       28.5       27.8       11.6     1017.6       30.7       16.6        0.0        0.0        0.0       0.00       48.4       0.13       2.11        0.0
18:01             348        0.0         36       28.4      281.4       28.4       27.7       11.9     1017.6       30.7       16.6        0.0        0.0        0.0       0.00       48.4       0.13       2.17        0.0
18:04             348        0.0         35       28.2      281.4       28.2       27.5       11.3     1017.6       30.7       16.6        0.0        0.0        0.0       0.00       48.5       0.13       2.17        0.0
18:06             348        0.0         36       28.1      281.4       28.1       27.5       11.6     1017.7       30.7       16.6        0.0        0.0        0.0       0.00       48.6       0.13       2.17        0.0
18:08             348        0.0         36       27.9      281.4       27.9       27.3       11.5     1017.5       30.7       16.6        0.0        0.0        0.0       0.00       48.6       0.13       2.17        0.0
18:10             348        0.0         37       27.7      281.4       27.7       27.2       11.7     1017.6       30.7       16.6        0.0        0.0        0.0       0.00       48.7       0.13       2.17        0.0
18:12             348        0.0         38       27.6      281.4       27.6       27.2       12.0     1017.5       30.7       16.6        0.0        0.0        0.0       0.00       48.8       0.13       2.17        0.0
18:14             348        0.0         38       27.5      281.4       27.5       27.1       11.9     1017.6       30.7       16.6        0.0        0.0        0.0       0.00       48.8       0.13       2.17        0.0
18:16             348        0.0         39       27.3      281.4       27.3       27.1       12.2     1017.6       30.7       16.6        0.0        0.0        0.0       0.00       48.9       0.13       2.23        0.0
18:18             348        0.0         40       27.2      281.4       27.2       27.0       12.5     1017.7       30.7       16.6        0.0        0.0        0.0       0.00       48.9       0.13       2.23        0.0
18:20             348        0.0         40       27.1      281.4       27.1       26.9       12.4     1017.6       30.7       16.6        0.0        0.0        0.0       0.00       49.0       0.13       2.23        0.0
18:21             348        0.0         41       27.0      281.4       27.0       26.9       12.6     1017.7       30.7       16.6        0.0        0.0        0.0       0.00       49.1       0.13       2.23        0.0
18:24             348        0.0         42       26.8      281.4       26.8       26.8       12.9     1017.7       30.7       16.6        0.0        0.0        0.0       0.00       49.1       0.13       2.23        0.0
18:26             348        0.0         42       26.7      281.4       26.7       26.8       12.8     1017.7       30.7       16.6        0.0        0.0        0.0       0.00       49.2       0.13       2.23        0.0
18:27             348        0.0         43       26.6      281.4       26.6       26.7       13.0     1017.7       30.7       16.6        0.0        0.0        0.0       0.00       49.2       0.13       2.23        0.0
18:30             348        0.0         43       26.5      281.4       26.5       26.6       12.9     1017.8       30.7       16.6        0.0        0.0        0.0       0.00       49.3       0.13       2.23        0.0
18:32             348        0.0         44       26.4      281.4       26.4       26.5       13.2     1017.7       30.7       16.6        0.0        0.0        0.0       0.00       49.4       0.13       2.28        0.0
18:33             348        0.0         44       26.3      281.4       26.3       26.4       13.1     1017.8       30.7       16.6        0.0        0.0        0.0       0.00       49.5       0.13       2.28        0.0
18:36             348        0.0         44       26.2      281.4       26.2       26.3       13.0     1017.8       30.7       16.6        0.0        0.0        0.0       0.00       49.5       0.13       2.28        0.0
18:38             348        0.0         44       26.1      281.4       26.1       26.2       12.9     1017.8       30.7       16.6        0.0        0.0        0.0       0.00       49.6       0.13       2.28        0.0
18:40             348        0.0         45       25.9      281.4       25.9       26.1       13.1     1017.8       30.7       16.6        0.0        0.0        0.0       0.00       49.7       0.13       2.28        0.0
18:42             348        0.0         45       25.8      281.4       25.8       26.0       13.0     1017.9       30.7       16.6        0.0        0.0        0.0       0.00       49.8       0.13       2.28        0.0
18:44             348        0.0         45       25.7      281.4       25.7       25.9       12.9     1017.8       30.7       16.6        0.0        0.0        0.0       0.00       49.9       0.13       2.28        0.0
18:46             348        0.0         46       25.7      281.4       25.7       25.9       13.2     1017.9       30.7       16.6        0.0        0.0        0.0       0.00       50.0       0.13       2.32        0.0
18:48             348        0.0         46       25.6      281.4       25.6       25.9       13.1     1017.9       30.7       16.6        0.0        0.0        0.0       0.00       50.1       0.13       2.32        0.0
18:50             348        0.0         46       25.6      281.4       25.6       25.8       13.1     1018.0       30.7       16.6        0.0        0.0        0.0       0.00       50.2       0.13       2.32        0.0
18:52             348        0.0         46       25.6      281.4       25.6       25.8       13.1     1018.0       30.7       16.6        0.0        0.0        0.0       0.00       50.3       0.13       2.32        0.0
18:54             348        0.0         47       25.5      281.4       25.5       25.8       13.4     1018.1       30.7       16.6        0.0        0.0        0.0       0.00       50.5       0.13       2.32        0.0
18:56             348        0.0         47       25.4      281.4       25.4       25.7       13.3     1018.0       30.7       16.6        0.0        0.0        0.0       0.00       50.6       0.13       2.32        0.0
18:58             348        0.0         47       25.4      281.4       25.4       25.7       13.3     1018.0       30.7       16.6        0.0        0.0        0.0       0.00       50.7       0.13       2.32        0.0
19:00             348        0.0         47       25.4      281.4       25.4       25.7       13.3     1018.0       30.7       16.6        0.0        0.0        0.0       0.00       50.8       0.13       2.32        0.0
19:02             348        0.0         47       25.4      281.4       25.4       25.7       13.3     1018.0       30.7       16.6        0.0        0.0        0.0       0.00       50.9       0.13       2.35        0.0
19:04             348        0.0         47       25.3      281.4       25.3       25.6       13.2     1018.0       30.7       16.6        0.0        0.0        0.0       0.00       50.9       0.13       2.35        0.0
19:06             348        0.0         47       25.3      281.4       25.3       25.6       13.2     1018.0       30.7       16.6        0.0        0.0        0.0       0.00       51.0       0.13       2.35        0.0
19:08             348        0.0         47       25.3      281.4       25.3       25.6       13.2     1018.0       30.7       16.6        0.0        0.0        0.0       0.00       51.1       0.13       2.35        0.0
19:10             348        0.0         47       25.2      281.4       25.2       25.5       13.1     1017.9       30.7       16.6        0.0        0.0        0.0       0.00       51.2       0.13       2.35        0.0
19:11             348        0.0         48       25.2      281.4       25.2       25.6       13.4     1018.0       30.7       16.6        0.0        0.0        0.0       0.00       51.3       0.13       2.35        0.0
19:14             348        0.0         47       25.2      281.4       25.2       25.5       13.1     1018.0       30.7       16.6        0.0        0.0        0.0       0.00       51.4       0.13       2.35        0.0
19:16             348        0.0         47       25.2      281.4       25.2       25.5       13.1     1017.9       30.7       16.6        0.0        0.0        0.0       0.00       51.6       0.13       2.38        0.0
19:17             348        0.0         47       25.2      281.4       25.2       25.5       13.1     1018.0       30.7       16.6        0.0        0.0        0.0       0.00       51.7       0.13       2.38        0.0
19:20             348        0.0         47       25.2      281.4       25.2       25.5       13.1     1018.0       30.7       16.6        0.0        0.0        0.0       0.00       51.9       0.13       2.38        0.0
19:22             348        0.0         47       25.2      281.4       25.2       25.5       13.1     1018.0       30.7       16.6        0.0        0.0        0.0       0.00       52.0       0.13       2.38        0.0
19:24             348        0.0         47       25.2      281.4       25.2       25.5       13.1     1018.0       30.7       16.6        0.0        0.0        0.0       0.00       52.2       0.13       2.38        0.0
19:26             348        0.0         47       25.2      281.4       25.2       25.5       13.1     1018.0       30.7       16.6        0.0        0.0        0.0       0.00       52.3       0.13       2.38        0.0
19:28             348        0.0         47       25.2      281.4       25.2       25.5       13.1     1018.0       30.7       16.6        0.0        0.0        0.0       0.00       52.5       0.13       2.38        0.0
19:30             348        0.0         47       25.2      281.4       25.2       25.5       13.1     1018.0       30.7       16.6        0.0        0.0        0.0       0.00       52.6       0.13       2.38        0.0
19:32             348        0.0         47       25.2      281.4       25.2       25.5       13.1     1018.0       30.7       16.6        0.0        0.0        0.0       0.00       52.8       0.13       2.42        0.0
19:34             348        0.0         47       25.1      281.4       25.1       25.4       13.0     1018.0       30.7       16.6        0.0        0.0        0.0       0.00       52.9       0.13       2.42        0.0
19:36             348        0.0         47       25.1      281.4       25.1       25.4       13.0     1018.0       30.7       16.6        0.0        0.0        0.0       0.00       53.1       0.13       2.42        0.0
19:37             348        0.0         47       25.0      281.4       25.0       25.3       12.9     1018.0       30.7       16.6        0.0        0.0        0.0       0.00       53.2       0.13       2.42        0.0
19:40             348        0.0         47       25.0      281.4       25.0       25.3       12.9     1018.1       30.7       16.6        0.0        0.0        0.0       0.00       53.3       0.13       2.42        0.0
19:42             348        0.0         47       24.9      281.4       24.9       25.2       12.9     1018.0       30.7       16.6        0.0        0.0        0.0       0.00       53.4       0.13       2.42        0.0
19:44             348        0.0         47       24.9      281.4       24.9       25.2       12.8     1018.1       30.7       16.6        0.0        0.0        0.0       0.00       53.6       0.13       2.42        0.0
19:46             348        0.0         47       24.8      281.4       24.8       25.1       12.8     1018.0       30.7       16.6        0.0        0.0        0.0       0.00       53.7       0.13       2.45        0.0
19:48             346        0.0         48       24.8      281.4       24.8       25.2       13.1     1018.0       30.7       16.6        0.0        0.0        0.0       0.00       53.9       0.13       2.45        0.0
19:50             336        0.0         48       24.8      281.4       24.8       25.2       13.1     1018.1       30.7       16.6        0.0        0.0        0.0       0.00       54.0       0.13       2.45        0.0
19:52             293        0.0         47       24.8      281.4       24.8       25.1       12.8     1018.1       30.7       16.6        0.0        0.0        0.0       0.00       54.2       0.13       2.45        0.0
19:54             288        0.0         47       24.8      281.4       24.8       25.1       12.8     1018.0       30.7       16.6        0.0        0.0        0.0       0.00       54.4       0.13       2.45        0.0
19:55             288        0.0         47       24.9      281.4       24.9       25.2       12.8     1018.1       30.7       16.6        0.0        0.0        0.0       0.00       54.6       0.13       2.45        0.0
19:58             288        0.0         46       24.9      281.4       24.9       25.1       12.5     1018.0       30.7       16.6        0.0        0.0        0.0       0.00       54.7       0.13       2.45        0.0
20:00             287        0.0         45       24.8      281.4       24.8       25.0       12.1     1018.1       30.7       16.6        0.0        0.0        0.0       0.00       54.9       0.13       2.45        0.0
20:02             288        0.0         45       24.8      281.4       24.8       25.0       12.1     1018.1       30.7       16.6        0.0        0.0        0.0       0.00       55.1       0.13       2.48        0.0
20:04             288        0.0         45       24.8      281.4       24.8       25.0       12.1     1018.1       30.7       16.6        0.0        0.0        0.0       0.00       55.2       0.13       2.48        0.0
20:06             288        0.0         45       24.8      281.4       24.8       25.0       12.1     1018.1       30.7       16.6        0.0        0.0        0.0       0.00       55.3       0.13       2.48        0.0
20:07             286        0.0         45       24.7      281.4       24.7       24.9       12.0     1018.0       30.7       16.6        0.0        0.0        0.0       0.00       55.5       0.13       2.48        0.0
20:10             287        0.0         44       24.7      281.4       24.7       24.8       11.6     1018.0       30.7       16.6        0.0        0.0        0.0       0.00       55.7       0.13       2.48        0.0
20:12             288        0.0         44       24.6      281.4       24.6       24.8       11.6     1018.1       30.7       16.6        0.0        0.0        0.0       0.00       55.8       0.13       2.48        0.0
20:14             288        0.0         44       24.6      281.4       24.6       24.7       11.5     1018.1       30.7       16.6        0.0        0.0        0.0       0.00       56.0       0.13       2.48        0.0
20:16             289        0.0         44       24.6      281.4       24.6       24.7       11.5     1018.1       30.7       16.6        0.0        0.0        0.0       0.00       56.1       0.13       2.50        0.0
20:18             289        0.0         44       24.4      281.4       24.4       24.6       11.4     1018.0       30.7       16.6        0.0        0.0        0.0       0.00       56.3       0.13       2.50        0.0
20:20             290        0.0         44       24.4      281.4       24.4       24.5       11.4     1018.1       30.7       16.6        0.0        0.0        0.0       0.00       56.5       0.13       2.50        0.0
20:21             290        0.0         44       24.3      281.4       24.3       24.5       11.3     1018.1       30.7       16.6        0.0        0.0        0.0       0.00       56.6       0.13       2.50        0.0
20:24             290        0.0         44       24.3      281.4       24.3       24.4       11.3     1018.1       30.7       16.6        0.0        0.0        0.0       0.00       56.8       0.13       2.50        0.0
20:26             290        0.0         44       24.3      281.4       24.3       24.4       11.3     1018.1       30.7       16.6        0.0        0.0        0.0       0.00       56.9       0.13       2.50        0.0
20:28             290        0.0         44       24.2      281.4       24.2       24.4       11.2     1018.0       30.7       16.6        0.0        0.0        0.0       0.00       57.1       0.13       2.50        0.0
20:30             290        0.0         44       24.2      281.4       24.2       24.4       11.2     1018.1       30.7       16.6        0.0        0.0        0.0       0.00       57.3       0.13       2.50        0.0
20:32             291        0.0         44       24.1      281.4       24.1       24.3       11.1     1018.1       30.7       16.6        0.0        0.0        0.0       0.00       57.4       0.13       2.53        0.0
20:33             291        0.0         44       24.1      281.4       24.1       24.3       11.1     1018.1       30.7       16.6        0.0        0.0        0.0       0.00       57.6       0.13       2.53        0.0
20:36             292        0.0         44       24.1      281.4       24.1       24.2       11.1     1018.1       30.7       16.6        0.0        0.0        0.0       0.00       57.8       0.13       2.53        0.0
20:38             293        0.0         44       24.0      281.4       24.0       24.1       11.0     1018.1       30.7       16.6        0.0        0.0        0.0       0.00       58.0       0.13       2.53        0.0
20:39             294        0.0         44       24.0      281.4       24.0       24.1       11.0     1018.1       30.7       16.6        0.0        0.0        0.0       0.00       58.1       0.13       2.53        0.0
20:42             294        0.0         45       23.9      281.4       23.9       24.1       11.3     1018.0       30.7       16.6        0.0        0.0        0.0       0.00       58.3       0.13       2.53        0.0
20:44             291        0.0         45       23.9      281.4       23.9       24.1       11.2     1018.0       30.7       16.6        0.0        0.0        0.0       0.00       58.5       0.13       2.53        0.0
20:46             289        0.0         45       23.8      281.4       23.8       24.0       11.2     1018.0       30.7       16.6        0.0        0.0        0.0       0.00       58.7       0.13       2.55        0.0
20:48             294        0.0         45       23.8      281.4       23.8       24.0       11.2     1018.0       30.7       16.6        0.0        0.0        0.0       0.00       58.9       0.13       2.55        0.0
20:50             294        0.0         45       23.8      281.4       23.8       24.0       11.1     1018.0       30.7       16.6        0.0        0.0        0.0       0.00       59.1       0.13       2.55        0.0
20:51             295        0.0         45       23.8      281.4       23.8       24.0       11.1     1018.1       30.7       16.6        0.0        0.0        0.0       0.00       59.2       0.13       2.55        0.0
20:54             295        0.0         45       23.7      281.4       23.7       23.9       11.1     1018.0       30.7       16.6        0.0        0.0        0.0       0.00       59.4       0.13       2.55        0.0
20:56             298        0.0         46       23.7      281.4       23.7       23.9       11.4     1018.1       30.7       16.6        0.0        0.0        0.0       0.00       59.6       0.13       2.55        0.0
20:57             299        0.0         46       23.7      281.4       23.7       23.9       11.4     1018.2       30.7       16.6        0.0        0.0        0.0       0.00       59.8       0.13       2.55        0.0
21:00             298        0.0         46       23.7      281.4       23.7       23.9       11.4     1018.1       30.7       16.6        0.0        0.0        0.0       0.00       60.0       0.13       2.55        0.0
21:02             298        0.0         46       23.7      281.4       23.7       23.9       11.4     1018.1       30.7       16.6        0.0        0.0        0.0       0.00       60.1       0.13       2.56        0.0
21:04             296        0.0         46       23.7      281.4       23.7       23.9       11.4     1018.2       30.7       16.6        0.0        0.0        0.0       0.00       60.3       0.13       2.56        0.0
21:06             294        0.0         46       23.7      281.4       23.7       23.9       11.4     1018.2       30.7       16.6        0.0        0.0        0.0       0.00       60.5       0.13       2.56        0.0
21:08             294        0.0         46       23.7      281.4       23.7       23.9       11.4     1018.2       30.7       16.6        0.0        0.0        0.0       0.00       60.7       0.13       2.56        0.0
21:10             298        0.0         46       23.6      281.4       23.6       23.9       11.3     1018.2       30.7       16.6        0.0        0.0        0.0       0.00       60.9       0.13       2.56        0.0
21:12             296        0.0         46       23.6      281.4       23.6       23.9       11.3     1018.2       30.7       16.6        0.0        0.0        0.0       0.00       61.1       0.13       2.56        0.0
21:14             294        0.0         47       23.7      281.4       23.7       24.0       11.7     1018.2       30.7       16.6        0.0        0.0        0.0       0.00       61.3       0.13       2.56        0.0
21:16             294        0.0         47       23.6      281.4       23.6       23.9       11.6     1018.2       30.7       16.6        0.0        0.0        0.0       0.00       61.5       0.13       2.58        0.0
21:18             293        0.0         47       23.7      281.4       23.7       24.0       11.7     1018.2       30.7       16.6        0.0        0.0        0.0       0.00       61.7       0.13       2.58        0.0
21:20             294        0.0         47       23.7      281.4       23.7       24.0       11.7     1018.1       30.7       16.6        0.0        0.0        0.0       0.00       61.9       0.13       2.58        0.0
21:22             294        0.0         47       23.7      281.4       23.7       24.0       11.7     1018.2       30.7       16.6        0.0        0.0        0.0       0.00       62.1       0.13       2.58        0.0
21:24             299        0.0         47       23.7      281.4       23.7       24.0       11.7     1018.2       30.7       16.6        0.0        0.0        0.0       0.00       62.3       0.13       2.58        0.0
21:26             300        0.0         47       23.7      281.4       23.7       24.0       11.7     1018.2       30.7       16.6        0.0        0.0        0.0       0.00       62.5       0.13       2.58        0.0
21:28             298        0.0         47       23.7      281.4       23.7       24.0       11.7     1018.2       30.7       16.6        0.0        0.0        0.0       0.00       62.7       0.13       2.58        0.0
21:30             298        0.0         47       23.7      281.4       23.7       24.0       11.7     1018.2       30.7       16.6        0.0        0.0        0.0       0.00       62.8       0.13       2.58        0.0
21:31             298        0.0         47       23.7      281.4       23.7       24.0       11.7     1018.2       30.7       16.6        0.0        0.0        0.0       0.00       63.0       0.13       2.60        0.0
21:34             298        0.0         47       23.7      281.4       23.7       24.0       11.7     1018.2       30.7       16.6        0.0        0.0        0.0       0.00       63.2       0.13       2.60        0.0
21:35             297        0.0         47       23.7      281.4       23.7       24.0       11.7     1018.3       30.7       16.6        0.0        0.0        0.0       0.00       63.4       0.13       2.60        0.0
21:38             296        0.0         47       23.7      281.4       23.7       24.0       11.7     1018.3       30.7       16.6        0.0        0.0        0.0       0.00       63.6       0.13       2.60        0.0
21:40             296        0.0         47       23.7      281.4       23.7       24.0       11.7     1018.2       30.7       16.6        0.0        0.0        0.0       0.00       63.8       0.13       2.60        0.0
21:41             296        0.0         47       23.7      281.4       23.7       24.0       11.7     1018.3       30.7       16.6        0.0        0.0        0.0       0.00       64.0       0.13       2.60        0.0
21:44             296        0.0         47       23.7      281.4       23.7       24.0       11.7     1018.3       30.7       16.6        0.0        0.0        0.0       0.00       64.1       0.13       2.60        0.0
21:46             296        0.0         47       23.7      281.4       23.7       24.0       11.7     1018.3       30.7       16.6        0.0        0.0        0.0       0.00       64.3       0.13       2.62        0.0
21:48             296        0.0         47       23.7      281.4       23.7       24.0       11.7     1018.3       30.7       16.6        0.0        0.0        0.0       0.00       64.4       0.13       2.62        0.0
21:50             296        0.0         47       23.6      281.4       23.6       23.9       11.6     1018.3       30.7       16.6        0.0        0.0        0.0       0.00       64.4       0.13       2.62        0.0
21:52             296        0.0         47       23.6      281.4       23.6       23.9       11.6     1018.4       30.7       16.6        0.0        0.0        0.0       0.00       64.4       0.13       2.62        0.0
21:53             296        0.0         47       23.6      281.4       23.6       23.9       11.6     1018.5       30.7       16.6        0.0        0.0        0.0       0.00       64.4       0.13       2.62        0.0
21:56             296        0.0         47       23.6      281.4       23.6       23.8       11.6     1018.5       30.7       16.6        0.0        0.0        0.0       0.00       64.5       0.13       2.62        0.0
21:58             296        0.0         48       23.5      281.4       23.5       23.8       11.9     1018.5       30.7       16.6        0.0        0.0        0.0       0.00       64.7       0.13       2.62        0.0
22:00             296        0.0         47       23.4      281.4       23.4       23.7       11.4     1018.5       30.7       16.6        0.0        0.0        0.0       0.00       64.7       0.13       2.62        0.0
22:02             296        0.0         48       23.3      281.4       23.3       23.7       11.7     1018.4       30.7       16.6        0.0        0.0        0.0       0.00       64.7       0.13       2.63        0.0
22:04             296        0.0         48       23.3      281.4       23.3       23.6       11.7     1018.5       30.7       16.6        0.0        0.0        0.0       0.00       64.7       0.13       2.63        0.0
22:05             296        0.0         48       23.2      281.4       23.2       23.6       11.6     1018.5       30.7       16.6        0.0        0.0        0.0       0.00       64.8       0.13       2.63        0.0
22:08             296        0.0         48       23.2      281.4       23.2       23.5       11.6     1018.5       30.7       16.6        0.0        0.0        0.0       0.00       64.8       0.13       2.63        0.0
22:10             296        0.0         48       23.1      281.4       23.1       23.5       11.5     1018.4       30.7       16.6        0.0        0.0        0.0       0.00       64.9       0.13       2.63        0.0
22:12             296        0.0         49       23.0      281.4       23.0       23.4       11.7     1018.4       30.7       16.6        0.0        0.0        0.0       0.00       65.0       0.13       2.63        0.0
22:14             296        0.0         49       22.9      281.4       22.9       23.3       11.7     1018.4       30.7       16.6        0.0        0.0        0.0       0.00       65.0       0.13       2.63        0.0
22:16             296        0.0         49       22.9      281.4       22.9       23.3       11.6     1018.5       30.7       16.6        0.0        0.0        0.0       0.00       65.0       0.13       2.64        0.0
22:18             296        0.0         49       22.8      281.4       22.8       23.2       11.6     1018.6       30.7       16.6        0.0        0.0        0.0       0.00       65.1       0.13       2.64        0.0
22:20             296        0.0         49       22.8      281.4       22.8       23.2       11.5     1018.5       30.7       16.6        0.0        0.0        0.0       0.00       65.2       0.13       2.64        0.0
22:22             296        0.0         49       22.7      281.4       22.7       23.1       11.4     1018.5       30.7       16.6        0.0        0.0        0.0       0.00       65.3       0.13       2.64        0.0
22:24             296        0.0         50       22.6      281.4       22.6       23.0       11.6     1018.4       30.7       16.6        0.0        0.0        0.0       0.00       65.4       0.13       2.64        0.0
22:26             296        0.0         50       22.4      281.4       22.4       22.9       11.5     1018.5       30.7       16.6        0.0        0.0        0.0       0.00       65.4       0.13       2.64        0.0
22:28             292        0.0         50       22.3      281.4       22.3       22.8       11.4     1018.5       30.7       16.6        0.0        0.0        0.0       0.00       65.6       0.13       2.64        0.0
22:30             292        0.0         51       22.2      281.4       22.2       22.7       11.6     1018.5       30.7       16.6        0.0        0.0        0.0       0.00       65.7       0.13       2.64        0.0
22:32             292        0.0         51       22.1      281.4       22.1       22.6       11.5     1018.5       30.7       16.6        0.0        0.0        0.0       0.00       65.7       0.13       2.64        0.0
22:34             292        0.0         51       21.9      281.4       21.9       22.4       11.3     1018.4       30.7       16.6        0.0        0.0        0.0       0.00       65.8       0.13       2.64        0.0
22:36             292        0.0         52       21.8      281.4       21.8       22.3       11.5     1018.5       30.7       16.6        0.0        0.0        0.0       0.00       65.8       0.13       2.64        0.0
22:38             292        0.0         52       21.7      281.4       21.7       22.2       11.4     1018.5       30.7       16.6        0.0        0.0        0.0       0.00       65.9       0.13       2.64        0.0
22:40             292        0.0         52       21.6      281.4       21.6       22.1       11.3     1018.5       30.7       16.6        0.0        0.0        0.0       0.00       65.9       0.13       2.64        0.0
22:42             292        0.0         53       21.4      281.4       21.4       22.1       11.5     1018.5       30.7       16.6        0.0        0.0        0.0       0.00       66.0       0.13       2.64        0.0
22:44             292        0.0         53       21.3      281.4       21.3       21.9       11.4     1018.5       30.7       16.6        0.0        0.0        0.0       0.00       66.0       0.13       2.64        0.0
22:46             292        0.0         53       21.2      281.4       21.2       21.8       11.3     1018.5       30.7       16.6        0.0        0.0        0.0       0.00       66.1       0.13       2.64        0.0
22:48             292        0.0         54       21.1      281.4       21.1       21.8       11.4     1018.5       30.7       16.6        0.0        0.0        0.0       0.00       66.2       0.13       2.64        0.0
22:50             292        0.0         54       21.1      281.4       21.1       21.7       11.4     1018.5       30.7       16.6        0.0        0.0        0.0       0.00       66.3       0.13       2.64        0.0
22:52             292        0.0         55       20.9      281.4       20.9       21.7       11.6     1018.5       30.7       16.6        0.0        0.0        0.0       0.00       66.3       0.13       2.64        0.0
22:54             292        0.0         55       20.8      281.4       20.8       21.5       11.5     1018.4       30.7       16.6        0.0        0.0        0.0       0.00       66.3       0.13       2.64        0.0
22:56             292        0.0         55       20.7      281.4       20.7       21.4       11.4     1018.5       30.7       16.6        0.0        0.0        0.0       0.00       66.4       0.13       2.64        0.0
22:58             292        0.0         55       20.7      281.4       20.7       21.4       11.3     1018.5       30.7       16.6        0.0        0.0        0.0       0.00       66.5       0.13       2.64        0.0
23:00             292        0.0         55       20.6      281.4       20.6       21.3       11.3     1018.5       30.7       16.6        0.0        0.0        0.0       0.00       66.5       0.13       2.64        0.0
23:02             292        0.0         55       20.6      281.4       20.6       21.3       11.2     1018.5       30.7       16.6        0.0        0.0        0.0       0.00       66.6       0.13       2.64        0.0
23:04             292        0.0         56       20.5      281.4       20.5       21.3       11.4     1018.5       30.7       16.6        0.0        0.0        0.0       0.00       66.8       0.13       2.64        0.0
23:06             292        0.0         56       20.4      281.4       20.4       21.2       11.3     1018.5       30.7       16.6        0.0        0.0        0.0       0.00       66.8       0.13       2.64        0.0
23:08             292        0.0         56       20.4      281.4       20.4       21.2       11.3     1018.5       30.7       16.6        0.0        0.0        0.0       0.00       66.9       0.13       2.64        0.0
23:09             292        0.0         56       20.3      281.4       20.3       21.1       11.2     1018.4       30.7       16.6        0.0        0.0        0.0       0.00       67.0       0.13       2.64        0.0
23:12             292        0.0         57       20.2      281.4       20.2       21.1       11.4     1018.5       30.7       16.6        0.0        0.0        0.0       0.00       67.1       0.13       2.64        0.0
23:14             292        0.0         57       20.2      281.4       20.2       21.0       11.4     1018.4       30.7       16.6        0.0        0.0        0.0       0.00       67.2       0.13       2.64        0.0
23:16             292        0.0         57       20.1      281.4       20.1       20.9       11.3     1018.4       30.7       16.6        0.0        0.0        0.0       0.00       67.3       0.13       2.64        0.0
23:18             292        0.0         58       20.1      281.4       20.1       20.9       11.5     1018.4       30.7       16.6        0.0        0.0        0.0       0.00       67.4       0.13       2.64        0.0
23:20             292        0.0         58       20.0      281.4       20.0       20.9       11.5     1018.5       30.7       16.6        0.0        0.0        0.0       0.00       67.4       0.13       2.64        0.0
23:22             292        0.0         59       19.9      281.4       19.9       20.8       11.6     1018.5       30.7       16.6        0.0        0.0        0.0       0.00       67.5       0.13       2.64        0.0
23:24             292        0.0         59       19.8      281.4       19.8       20.8       11.6     1018.5       30.7       16.6        0.0        0.0        0.0       0.00       67.6       0.13       2.64        0.0
23:26             292        0.0         59       19.7      281.4       19.7       20.7       11.5     1018.5       30.7       16.6        0.0        0.0        0.0       0.00       67.8       0.13       2.64        0.0
23:27             292        0.0         60       19.7      281.4       19.7       20.7       11.7     1018.5       30.7       16.6        0.0        0.0        0.0       0.00       67.9       0.13       2.64        0.0
23:30             292        0.0         60       19.6      281.4       19.6       20.6       11.6     1018.5       30.7       16.6        0.0        0.0        0.0       0.00       68.1       0.13       2.64        0.0
23:32             292        0.0         60       19.5      281.4       19.5       20.5       11.5     1018.5       30.7       16.6        0.0        0.0        0.0       0.00       68.3       0.13       2.64        0.0
23:34             292        0.0         61       19.4      281.4       19.4       20.5       11.7     1018.5       30.7       16.6        0.0        0.0        0.0       0.00       68.5       0.13       2.64        0.0
23:36             292        0.0         61       19.3      281.4       19.3       20.3       11.6     1018.5       30.7       16.6        0.0        0.0        0.0       0.00       68.7       0.13       2.64        0.0
23:38             292        0.0         61       19.2      281.4       19.2       20.3       11.5     1018.5       30.7       16.6        0.0        0.0        0.0       0.00       68.9       0.13       2.64        0.0
23:39             292        0.0         62       19.1      281.4       19.1       20.2       11.7     1018.5       30.7       16.6        0.0        0.0        0.0       0.00       69.1       0.13       2.64        0.0
23:42             292        0.0         62       19.1      281.4       19.1       20.2       11.6     1018.5       30.7       16.6        0.0        0.0        0.0       0.00       69.4       0.13       2.64        0.0
23:44             292        0.0         62       18.9      281.4       18.9       20.1       11.5     1018.6       30.7       16.6        0.0        0.0        0.0       0.00       69.6       0.13       2.64        0.0
23:46             292        0.0         62       18.9      281.4       18.9       20.0       11.5     1018.6       30.7       16.6        0.0        0.0        0.0       0.00       69.9       0.13       2.64        0.0
23:48             292        0.0         63       18.8      281.4       18.8       20.0       11.6     1018.5       30.7       16.6        0.0        0.0        0.0       0.00       70.1       0.13       2.64        0.0
23:50             292        0.0         63       18.8      281.4       18.8       20.0       11.6     1018.5       30.7       16.6        0.0        0.0        0.0       0.00       70.3       0.13       2.64        0.0
23:52             292        0.0         63       18.7      281.4       18.7       19.9       11.5     1018.6       30.7       16.6        0.0        0.0        0.0       0.00       70.5       0.13       2.64        0.0
23:54             292        0.0         64       18.6      281.4       18.6       19.9       11.7     1018.5       30.7       16.6        0.0        0.0        0.0       0.00       70.6       0.13       2.64        0.0
23:56             292        0.0         64       18.6      281.4       18.6       19.9       11.7     1018.5       30.7       16.6        0.0        0.0        0.0       0.00       70.8       0.13       2.64        0.0
23:58             292        0.0         64       18.6      281.4       18.6       19.8       11.6     1018.5       30.7       16.6        0.0        0.0        0.0       0.00       71.0       0.13       2.64        0.0